<?xml version="1.0" encoding="UTF-8" standalone="no" ?>
<gpx xmlns="http://www.topografix.com/GPX/1/1" xmlns:xsi="http://www.w3.org/2001/XMLSchema-instance" xsi:schemaLocation="http://www.topografix.com/GPX/1/1 http://www.topografix.com/GPX/1/1/gpx.xsd" version="1.1" creator="VisuGPX - https://www.visugpx.com">
  <metadata>
    <name>Chusclan 13-04-19</name>
  </metadata>
  <trk>
    <name><![CDATA[Chusclan 13-04-19]]></name>
    <trkseg>
      <trkpt lat="44.14574" lon="4.67703">
        <ele>43.396606445312</ele>
        <time>2019-04-13T08:05:49Z</time>
      </trkpt>
      <trkpt lat="44.14563" lon="4.67723">
        <ele>43.877319335938</ele>
        <time>2019-04-13T08:06:02Z</time>
      </trkpt>
      <trkpt lat="44.14554" lon="4.67724">
        <ele>41.954711914062</ele>
        <time>2019-04-13T08:06:07Z</time>
      </trkpt>
      <trkpt lat="44.14547" lon="4.67727">
        <ele>41.954711914062</ele>
        <time>2019-04-13T08:06:11Z</time>
      </trkpt>
      <trkpt lat="44.14546" lon="4.67738">
        <ele>40.993408203125</ele>
        <time>2019-04-13T08:06:15Z</time>
      </trkpt>
      <trkpt lat="44.14548" lon="4.67754">
        <ele>44.358032226562</ele>
        <time>2019-04-13T08:06:20Z</time>
      </trkpt>
      <trkpt lat="44.14561" lon="4.67794">
        <ele>45.319213867188</ele>
        <time>2019-04-13T08:06:33Z</time>
      </trkpt>
      <trkpt lat="44.14569" lon="4.67817">
        <ele>43.877319335938</ele>
        <time>2019-04-13T08:06:46Z</time>
      </trkpt>
      <trkpt lat="44.14595" lon="4.67868">
        <ele>44.358032226562</ele>
        <time>2019-04-13T08:07:03Z</time>
      </trkpt>
      <trkpt lat="44.14625" lon="4.67861">
        <ele>45.799926757812</ele>
        <time>2019-04-13T08:07:15Z</time>
      </trkpt>
      <trkpt lat="44.1465" lon="4.67856">
        <ele>45.799926757812</ele>
        <time>2019-04-13T08:07:26Z</time>
      </trkpt>
      <trkpt lat="44.14691" lon="4.67871">
        <ele>44.838623046875</ele>
        <time>2019-04-13T08:07:41Z</time>
      </trkpt>
      <trkpt lat="44.14728" lon="4.67885">
        <ele>44.838623046875</ele>
        <time>2019-04-13T08:07:55Z</time>
      </trkpt>
      <trkpt lat="44.14765" lon="4.679">
        <ele>43.396606445312</ele>
        <time>2019-04-13T08:08:09Z</time>
      </trkpt>
      <trkpt lat="44.14803" lon="4.67913">
        <ele>42.435424804688</ele>
        <time>2019-04-13T08:08:22Z</time>
      </trkpt>
      <trkpt lat="44.14814" lon="4.67895">
        <ele>41.954711914062</ele>
        <time>2019-04-13T08:08:26Z</time>
      </trkpt>
      <trkpt lat="44.1483" lon="4.67825">
        <ele>40.993408203125</ele>
        <time>2019-04-13T08:08:38Z</time>
      </trkpt>
      <trkpt lat="44.14837" lon="4.6779">
        <ele>40.993408203125</ele>
        <time>2019-04-13T08:08:48Z</time>
      </trkpt>
      <trkpt lat="44.14853" lon="4.67714">
        <ele>40.512817382812</ele>
        <time>2019-04-13T08:09:06Z</time>
      </trkpt>
      <trkpt lat="44.14869" lon="4.67625">
        <ele>40.993408203125</ele>
        <time>2019-04-13T08:09:29Z</time>
      </trkpt>
      <trkpt lat="44.14897" lon="4.67559">
        <ele>40.993408203125</ele>
        <time>2019-04-13T08:09:48Z</time>
      </trkpt>
      <trkpt lat="44.14921" lon="4.67523">
        <ele>43.396606445312</ele>
        <time>2019-04-13T08:10:03Z</time>
      </trkpt>
      <trkpt lat="44.14923" lon="4.67521">
        <ele>43.396606445312</ele>
        <time>2019-04-13T08:10:04Z</time>
      </trkpt>
      <trkpt lat="44.14941" lon="4.67481">
        <ele>41.954711914062</ele>
        <time>2019-04-13T08:10:17Z</time>
      </trkpt>
      <trkpt lat="44.14965" lon="4.67436">
        <ele>43.396606445312</ele>
        <time>2019-04-13T08:10:32Z</time>
      </trkpt>
      <trkpt lat="44.14984" lon="4.67384">
        <ele>42.435424804688</ele>
        <time>2019-04-13T08:10:47Z</time>
      </trkpt>
      <trkpt lat="44.14996" lon="4.67374">
        <ele>41.954711914062</ele>
        <time>2019-04-13T08:10:52Z</time>
      </trkpt>
      <trkpt lat="44.15009" lon="4.67307">
        <ele>41.954711914062</ele>
        <time>2019-04-13T08:11:11Z</time>
      </trkpt>
      <trkpt lat="44.15016" lon="4.67267">
        <ele>41.473999023438</ele>
        <time>2019-04-13T08:11:23Z</time>
      </trkpt>
      <trkpt lat="44.15022" lon="4.67226">
        <ele>41.473999023438</ele>
        <time>2019-04-13T08:11:34Z</time>
      </trkpt>
      <trkpt lat="44.15009" lon="4.67195">
        <ele>39.070678710938</ele>
        <time>2019-04-13T08:11:43Z</time>
      </trkpt>
      <trkpt lat="44.1501" lon="4.67189">
        <ele>38.109375</ele>
        <time>2019-04-13T08:11:44Z</time>
      </trkpt>
      <trkpt lat="44.15002" lon="4.67113">
        <ele>37.628662109375</ele>
        <time>2019-04-13T08:11:58Z</time>
      </trkpt>
      <trkpt lat="44.14998" lon="4.67093">
        <ele>39.55126953125</ele>
        <time>2019-04-13T08:12:02Z</time>
      </trkpt>
      <trkpt lat="44.14981" lon="4.66987">
        <ele>38.590087890625</ele>
        <time>2019-04-13T08:12:23Z</time>
      </trkpt>
      <trkpt lat="44.14959" lon="4.66902">
        <ele>39.070678710938</ele>
        <time>2019-04-13T08:12:42Z</time>
      </trkpt>
      <trkpt lat="44.14941" lon="4.6683">
        <ele>38.590087890625</ele>
        <time>2019-04-13T08:12:58Z</time>
      </trkpt>
      <trkpt lat="44.14916" lon="4.66752">
        <ele>37.148071289062</ele>
        <time>2019-04-13T08:13:15Z</time>
      </trkpt>
      <trkpt lat="44.1491" lon="4.66724">
        <ele>36.66748046875</ele>
        <time>2019-04-13T08:13:21Z</time>
      </trkpt>
      <trkpt lat="44.1488" lon="4.66628">
        <ele>37.148071289062</ele>
        <time>2019-04-13T08:13:42Z</time>
      </trkpt>
      <trkpt lat="44.14875" lon="4.66615">
        <ele>38.109375</ele>
        <time>2019-04-13T08:13:45Z</time>
      </trkpt>
      <trkpt lat="44.14866" lon="4.66537">
        <ele>39.070678710938</ele>
        <time>2019-04-13T08:14:01Z</time>
      </trkpt>
      <trkpt lat="44.14866" lon="4.66522">
        <ele>37.148071289062</ele>
        <time>2019-04-13T08:14:04Z</time>
      </trkpt>
      <trkpt lat="44.14866" lon="4.66507">
        <ele>38.590087890625</ele>
        <time>2019-04-13T08:14:07Z</time>
      </trkpt>
      <trkpt lat="44.14867" lon="4.66493">
        <ele>37.628662109375</ele>
        <time>2019-04-13T08:14:10Z</time>
      </trkpt>
      <trkpt lat="44.14869" lon="4.66454">
        <ele>38.109375</ele>
        <time>2019-04-13T08:14:19Z</time>
      </trkpt>
      <trkpt lat="44.14878" lon="4.66402">
        <ele>36.66748046875</ele>
        <time>2019-04-13T08:14:32Z</time>
      </trkpt>
      <trkpt lat="44.14904" lon="4.66358">
        <ele>39.070678710938</ele>
        <time>2019-04-13T08:14:44Z</time>
      </trkpt>
      <trkpt lat="44.14937" lon="4.66311">
        <ele>40.032104492188</ele>
        <time>2019-04-13T08:14:59Z</time>
      </trkpt>
      <trkpt lat="44.14947" lon="4.66312">
        <ele>37.628662109375</ele>
        <time>2019-04-13T08:15:03Z</time>
      </trkpt>
      <trkpt lat="44.14949" lon="4.66314">
        <ele>37.148071289062</ele>
        <time>2019-04-13T08:15:04Z</time>
      </trkpt>
      <trkpt lat="44.14958" lon="4.66323">
        <ele>41.473999023438</ele>
        <time>2019-04-13T08:15:07Z</time>
      </trkpt>
      <trkpt lat="44.14961" lon="4.66326">
        <ele>40.993408203125</ele>
        <time>2019-04-13T08:15:08Z</time>
      </trkpt>
      <trkpt lat="44.14967" lon="4.66332">
        <ele>38.590087890625</ele>
        <time>2019-04-13T08:15:10Z</time>
      </trkpt>
      <trkpt lat="44.15007" lon="4.66375">
        <ele>39.55126953125</ele>
        <time>2019-04-13T08:15:25Z</time>
      </trkpt>
      <trkpt lat="44.15021" lon="4.66426">
        <ele>42.916015625</ele>
        <time>2019-04-13T08:15:39Z</time>
      </trkpt>
      <trkpt lat="44.15033" lon="4.66428">
        <ele>38.590087890625</ele>
        <time>2019-04-13T08:15:44Z</time>
      </trkpt>
      <trkpt lat="44.15036" lon="4.66427">
        <ele>38.590087890625</ele>
        <time>2019-04-13T08:15:45Z</time>
      </trkpt>
      <trkpt lat="44.15077" lon="4.6641">
        <ele>37.628662109375</ele>
        <time>2019-04-13T08:16:02Z</time>
      </trkpt>
      <trkpt lat="44.15086" lon="4.66412">
        <ele>38.109375</ele>
        <time>2019-04-13T08:16:06Z</time>
      </trkpt>
      <trkpt lat="44.15089" lon="4.6642">
        <ele>41.473999023438</ele>
        <time>2019-04-13T08:16:09Z</time>
      </trkpt>
      <trkpt lat="44.15095" lon="4.6643">
        <ele>38.109375</ele>
        <time>2019-04-13T08:16:13Z</time>
      </trkpt>
      <trkpt lat="44.15099" lon="4.66432">
        <ele>37.148071289062</ele>
        <time>2019-04-13T08:16:15Z</time>
      </trkpt>
      <trkpt lat="44.15143" lon="4.66421">
        <ele>40.512817382812</ele>
        <time>2019-04-13T08:16:34Z</time>
      </trkpt>
      <trkpt lat="44.15145" lon="4.6642">
        <ele>40.993408203125</ele>
        <time>2019-04-13T08:16:35Z</time>
      </trkpt>
      <trkpt lat="44.15147" lon="4.66407">
        <ele>42.435424804688</ele>
        <time>2019-04-13T08:16:39Z</time>
      </trkpt>
      <trkpt lat="44.15149" lon="4.6639">
        <ele>41.473999023438</ele>
        <time>2019-04-13T08:16:43Z</time>
      </trkpt>
      <trkpt lat="44.15159" lon="4.66381">
        <ele>39.070678710938</ele>
        <time>2019-04-13T08:16:47Z</time>
      </trkpt>
      <trkpt lat="44.15167" lon="4.6638">
        <ele>37.628662109375</ele>
        <time>2019-04-13T08:16:50Z</time>
      </trkpt>
      <trkpt lat="44.1518" lon="4.66373">
        <ele>40.993408203125</ele>
        <time>2019-04-13T08:16:55Z</time>
      </trkpt>
      <trkpt lat="44.15216" lon="4.66365">
        <ele>39.070678710938</ele>
        <time>2019-04-13T08:17:10Z</time>
      </trkpt>
      <trkpt lat="44.15255" lon="4.66356">
        <ele>39.070678710938</ele>
        <time>2019-04-13T08:17:26Z</time>
      </trkpt>
      <trkpt lat="44.15299" lon="4.66346">
        <ele>39.55126953125</ele>
        <time>2019-04-13T08:17:44Z</time>
      </trkpt>
      <trkpt lat="44.15304" lon="4.66345">
        <ele>40.512817382812</ele>
        <time>2019-04-13T08:17:46Z</time>
      </trkpt>
      <trkpt lat="44.15309" lon="4.66346">
        <ele>39.55126953125</ele>
        <time>2019-04-13T08:17:48Z</time>
      </trkpt>
      <trkpt lat="44.15313" lon="4.6635">
        <ele>40.512817382812</ele>
        <time>2019-04-13T08:17:50Z</time>
      </trkpt>
      <trkpt lat="44.15321" lon="4.66363">
        <ele>41.473999023438</ele>
        <time>2019-04-13T08:17:55Z</time>
      </trkpt>
      <trkpt lat="44.15366" lon="4.66356">
        <ele>41.473999023438</ele>
        <time>2019-04-13T08:18:13Z</time>
      </trkpt>
      <trkpt lat="44.15384" lon="4.66353">
        <ele>41.954711914062</ele>
        <time>2019-04-13T08:18:20Z</time>
      </trkpt>
      <trkpt lat="44.15391" lon="4.66357">
        <ele>42.435424804688</ele>
        <time>2019-04-13T08:18:23Z</time>
      </trkpt>
      <trkpt lat="44.15391" lon="4.6638">
        <ele>41.954711914062</ele>
        <time>2019-04-13T08:18:30Z</time>
      </trkpt>
      <trkpt lat="44.15387" lon="4.66406">
        <ele>44.358032226562</ele>
        <time>2019-04-13T08:18:38Z</time>
      </trkpt>
      <trkpt lat="44.15385" lon="4.6645">
        <ele>45.319213867188</ele>
        <time>2019-04-13T08:18:51Z</time>
      </trkpt>
      <trkpt lat="44.15384" lon="4.66481">
        <ele>44.838623046875</ele>
        <time>2019-04-13T08:19:00Z</time>
      </trkpt>
      <trkpt lat="44.15389" lon="4.66489">
        <ele>40.032104492188</ele>
        <time>2019-04-13T08:19:03Z</time>
      </trkpt>
      <trkpt lat="44.15392" lon="4.66489">
        <ele>40.993408203125</ele>
        <time>2019-04-13T08:19:04Z</time>
      </trkpt>
      <trkpt lat="44.15446" lon="4.66492">
        <ele>43.396606445312</ele>
        <time>2019-04-13T08:19:23Z</time>
      </trkpt>
      <trkpt lat="44.15478" lon="4.66495">
        <ele>43.396606445312</ele>
        <time>2019-04-13T08:19:35Z</time>
      </trkpt>
      <trkpt lat="44.15482" lon="4.66504">
        <ele>43.877319335938</ele>
        <time>2019-04-13T08:19:39Z</time>
      </trkpt>
      <trkpt lat="44.15482" lon="4.66538">
        <ele>45.319213867188</ele>
        <time>2019-04-13T08:19:50Z</time>
      </trkpt>
      <trkpt lat="44.15506" lon="4.66544">
        <ele>43.877319335938</ele>
        <time>2019-04-13T08:20:01Z</time>
      </trkpt>
      <trkpt lat="44.15538" lon="4.66546">
        <ele>42.916015625</ele>
        <time>2019-04-13T08:20:15Z</time>
      </trkpt>
      <trkpt lat="44.15562" lon="4.66544">
        <ele>46.280639648438</ele>
        <time>2019-04-13T08:20:27Z</time>
      </trkpt>
      <trkpt lat="44.15588" lon="4.66554">
        <ele>44.838623046875</ele>
        <time>2019-04-13T08:20:41Z</time>
      </trkpt>
      <trkpt lat="44.15607" lon="4.66561">
        <ele>46.280639648438</ele>
        <time>2019-04-13T08:20:50Z</time>
      </trkpt>
      <trkpt lat="44.15633" lon="4.66571">
        <ele>47.241821289062</ele>
        <time>2019-04-13T08:21:02Z</time>
      </trkpt>
      <trkpt lat="44.15633" lon="4.66578">
        <ele>48.203369140625</ele>
        <time>2019-04-13T08:21:06Z</time>
      </trkpt>
      <trkpt lat="44.15612" lon="4.66606">
        <ele>47.241821289062</ele>
        <time>2019-04-13T08:21:19Z</time>
      </trkpt>
      <trkpt lat="44.15617" lon="4.66618">
        <ele>48.683959960938</ele>
        <time>2019-04-13T08:21:24Z</time>
      </trkpt>
      <trkpt lat="44.15623" lon="4.66619">
        <ele>46.76123046875</ele>
        <time>2019-04-13T08:21:27Z</time>
      </trkpt>
      <trkpt lat="44.15638" lon="4.66624">
        <ele>49.645263671875</ele>
        <time>2019-04-13T08:21:34Z</time>
      </trkpt>
      <trkpt lat="44.1566" lon="4.66631">
        <ele>49.16455078125</ele>
        <time>2019-04-13T08:21:45Z</time>
      </trkpt>
      <trkpt lat="44.15687" lon="4.66639">
        <ele>49.645263671875</ele>
        <time>2019-04-13T08:21:57Z</time>
      </trkpt>
      <trkpt lat="44.15718" lon="4.66652">
        <ele>51.087158203125</ele>
        <time>2019-04-13T08:22:12Z</time>
      </trkpt>
      <trkpt lat="44.1572" lon="4.66652">
        <ele>51.56787109375</ele>
        <time>2019-04-13T08:22:13Z</time>
      </trkpt>
      <trkpt lat="44.15731" lon="4.66655">
        <ele>52.048583984375</ele>
        <time>2019-04-13T08:22:18Z</time>
      </trkpt>
      <trkpt lat="44.1576" lon="4.66667">
        <ele>55.893798828125</ele>
        <time>2019-04-13T08:22:32Z</time>
      </trkpt>
      <trkpt lat="44.15793" lon="4.66678">
        <ele>54.451782226562</ele>
        <time>2019-04-13T08:22:47Z</time>
      </trkpt>
      <trkpt lat="44.15829" lon="4.66688">
        <ele>54.932373046875</ele>
        <time>2019-04-13T08:23:04Z</time>
      </trkpt>
      <trkpt lat="44.15852" lon="4.66693">
        <ele>55.4130859375</ele>
        <time>2019-04-13T08:23:15Z</time>
      </trkpt>
      <trkpt lat="44.15865" lon="4.66692">
        <ele>55.893798828125</ele>
        <time>2019-04-13T08:23:20Z</time>
      </trkpt>
      <trkpt lat="44.1587" lon="4.66684">
        <ele>59.258422851562</ele>
        <time>2019-04-13T08:23:25Z</time>
      </trkpt>
      <trkpt lat="44.15871" lon="4.66682">
        <ele>56.37451171875</ele>
        <time>2019-04-13T08:23:26Z</time>
      </trkpt>
      <trkpt lat="44.15878" lon="4.6667">
        <ele>56.855102539062</ele>
        <time>2019-04-13T08:23:32Z</time>
      </trkpt>
      <trkpt lat="44.15903" lon="4.66649">
        <ele>55.893798828125</ele>
        <time>2019-04-13T08:23:47Z</time>
      </trkpt>
      <trkpt lat="44.15927" lon="4.66649">
        <ele>56.855102539062</ele>
        <time>2019-04-13T08:24:01Z</time>
      </trkpt>
      <trkpt lat="44.15952" lon="4.66654">
        <ele>58.777709960938</ele>
        <time>2019-04-13T08:24:14Z</time>
      </trkpt>
      <trkpt lat="44.15982" lon="4.66673">
        <ele>59.258422851562</ele>
        <time>2019-04-13T08:24:30Z</time>
      </trkpt>
      <trkpt lat="44.15989" lon="4.66675">
        <ele>63.103637695312</ele>
        <time>2019-04-13T08:24:34Z</time>
      </trkpt>
      <trkpt lat="44.1599" lon="4.66675">
        <ele>62.622924804688</ele>
        <time>2019-04-13T08:24:35Z</time>
      </trkpt>
      <trkpt lat="44.16015" lon="4.66673">
        <ele>63.584350585938</ele>
        <time>2019-04-13T08:24:50Z</time>
      </trkpt>
      <trkpt lat="44.16018" lon="4.6667">
        <ele>63.584350585938</ele>
        <time>2019-04-13T08:24:52Z</time>
      </trkpt>
      <trkpt lat="44.16019" lon="4.66664">
        <ele>65.0263671875</ele>
        <time>2019-04-13T08:24:55Z</time>
      </trkpt>
      <trkpt lat="44.16018" lon="4.6666">
        <ele>66.948974609375</ele>
        <time>2019-04-13T08:24:57Z</time>
      </trkpt>
      <trkpt lat="44.16018" lon="4.66639">
        <ele>67.4296875</ele>
        <time>2019-04-13T08:25:06Z</time>
      </trkpt>
      <trkpt lat="44.16018" lon="4.66602">
        <ele>68.390869140625</ele>
        <time>2019-04-13T08:25:21Z</time>
      </trkpt>
      <trkpt lat="44.16016" lon="4.66593">
        <ele>67.910278320312</ele>
        <time>2019-04-13T08:25:24Z</time>
      </trkpt>
      <trkpt lat="44.16022" lon="4.66558">
        <ele>69.832885742188</ele>
        <time>2019-04-13T08:25:36Z</time>
      </trkpt>
      <trkpt lat="44.16035" lon="4.66527">
        <ele>71.755493164062</ele>
        <time>2019-04-13T08:25:50Z</time>
      </trkpt>
      <trkpt lat="44.16044" lon="4.665">
        <ele>72.716918945312</ele>
        <time>2019-04-13T08:26:00Z</time>
      </trkpt>
      <trkpt lat="44.16049" lon="4.66479">
        <ele>72.716918945312</ele>
        <time>2019-04-13T08:26:06Z</time>
      </trkpt>
      <trkpt lat="44.16056" lon="4.66468">
        <ele>74.639526367188</ele>
        <time>2019-04-13T08:26:30Z</time>
      </trkpt>
      <trkpt lat="44.16056" lon="4.66465">
        <ele>74.158813476562</ele>
        <time>2019-04-13T08:28:15Z</time>
      </trkpt>
      <trkpt lat="44.16067" lon="4.66443">
        <ele>74.639526367188</ele>
        <time>2019-04-13T08:28:37Z</time>
      </trkpt>
      <trkpt lat="44.16067" lon="4.66442">
        <ele>74.639526367188</ele>
        <time>2019-04-13T08:28:38Z</time>
      </trkpt>
      <trkpt lat="44.16058" lon="4.66442">
        <ele>73.197631835938</ele>
        <time>2019-04-13T08:28:42Z</time>
      </trkpt>
      <trkpt lat="44.1606" lon="4.6643">
        <ele>75.120239257812</ele>
        <time>2019-04-13T08:28:49Z</time>
      </trkpt>
      <trkpt lat="44.16069" lon="4.66427">
        <ele>76.081420898438</ele>
        <time>2019-04-13T08:28:54Z</time>
      </trkpt>
      <trkpt lat="44.1609" lon="4.66406">
        <ele>75.600830078125</ele>
        <time>2019-04-13T08:29:06Z</time>
      </trkpt>
      <trkpt lat="44.16102" lon="4.66399">
        <ele>76.081420898438</ele>
        <time>2019-04-13T08:29:10Z</time>
      </trkpt>
      <trkpt lat="44.16111" lon="4.66402">
        <ele>78.004028320312</ele>
        <time>2019-04-13T08:29:18Z</time>
      </trkpt>
      <trkpt lat="44.1611" lon="4.66406">
        <ele>79.446044921875</ele>
        <time>2019-04-13T08:29:21Z</time>
      </trkpt>
      <trkpt lat="44.16098" lon="4.66434">
        <ele>79.446044921875</ele>
        <time>2019-04-13T08:29:35Z</time>
      </trkpt>
      <trkpt lat="44.16098" lon="4.66461">
        <ele>82.810791015625</ele>
        <time>2019-04-13T08:29:45Z</time>
      </trkpt>
      <trkpt lat="44.16097" lon="4.66463">
        <ele>83.291381835938</ele>
        <time>2019-04-13T08:29:46Z</time>
      </trkpt>
      <trkpt lat="44.16093" lon="4.66473">
        <ele>84.252685546875</ele>
        <time>2019-04-13T08:29:51Z</time>
      </trkpt>
      <trkpt lat="44.16087" lon="4.66493">
        <ele>86.17529296875</ele>
        <time>2019-04-13T08:30:01Z</time>
      </trkpt>
      <trkpt lat="44.16086" lon="4.66501">
        <ele>87.6171875</ele>
        <time>2019-04-13T08:30:04Z</time>
      </trkpt>
      <trkpt lat="44.16071" lon="4.66537">
        <ele>89.059326171875</ele>
        <time>2019-04-13T08:30:21Z</time>
      </trkpt>
      <trkpt lat="44.16063" lon="4.66586">
        <ele>90.020629882812</ele>
        <time>2019-04-13T08:30:40Z</time>
      </trkpt>
      <trkpt lat="44.16063" lon="4.666">
        <ele>92.423950195312</ele>
        <time>2019-04-13T08:30:45Z</time>
      </trkpt>
      <trkpt lat="44.1607" lon="4.66608">
        <ele>91.462524414062</ele>
        <time>2019-04-13T08:30:49Z</time>
      </trkpt>
      <trkpt lat="44.16075" lon="4.6661">
        <ele>92.904541015625</ele>
        <time>2019-04-13T08:30:52Z</time>
      </trkpt>
      <trkpt lat="44.16083" lon="4.66612">
        <ele>96.269287109375</ele>
        <time>2019-04-13T08:30:57Z</time>
      </trkpt>
      <trkpt lat="44.16091" lon="4.66607">
        <ele>96.749877929688</ele>
        <time>2019-04-13T08:31:02Z</time>
      </trkpt>
      <trkpt lat="44.16094" lon="4.66607">
        <ele>97.711181640625</ele>
        <time>2019-04-13T08:31:04Z</time>
      </trkpt>
      <trkpt lat="44.16104" lon="4.66612">
        <ele>96.749877929688</ele>
        <time>2019-04-13T08:31:10Z</time>
      </trkpt>
      <trkpt lat="44.16123" lon="4.66608">
        <ele>100.11450195312</ele>
        <time>2019-04-13T08:31:21Z</time>
      </trkpt>
      <trkpt lat="44.16129" lon="4.66601">
        <ele>101.07568359375</ele>
        <time>2019-04-13T08:31:27Z</time>
      </trkpt>
      <trkpt lat="44.16129" lon="4.66598">
        <ele>101.07568359375</ele>
        <time>2019-04-13T08:31:29Z</time>
      </trkpt>
      <trkpt lat="44.16107" lon="4.66581">
        <ele>101.07568359375</ele>
        <time>2019-04-13T08:31:46Z</time>
      </trkpt>
      <trkpt lat="44.16106" lon="4.66574">
        <ele>102.037109375</ele>
        <time>2019-04-13T08:31:49Z</time>
      </trkpt>
      <trkpt lat="44.16117" lon="4.66572">
        <ele>102.51770019531</ele>
        <time>2019-04-13T08:31:57Z</time>
      </trkpt>
      <trkpt lat="44.16135" lon="4.66582">
        <ele>101.55639648438</ele>
        <time>2019-04-13T08:32:06Z</time>
      </trkpt>
      <trkpt lat="44.1614" lon="4.66571">
        <ele>103.95971679688</ele>
        <time>2019-04-13T08:32:12Z</time>
      </trkpt>
      <trkpt lat="44.16137" lon="4.66543">
        <ele>103.95971679688</ele>
        <time>2019-04-13T08:32:24Z</time>
      </trkpt>
      <trkpt lat="44.16142" lon="4.66528">
        <ele>103.47900390625</ele>
        <time>2019-04-13T08:32:29Z</time>
      </trkpt>
      <trkpt lat="44.16153" lon="4.6653">
        <ele>102.51770019531</ele>
        <time>2019-04-13T08:32:38Z</time>
      </trkpt>
      <trkpt lat="44.1616" lon="4.66524">
        <ele>102.51770019531</ele>
        <time>2019-04-13T08:32:43Z</time>
      </trkpt>
      <trkpt lat="44.16162" lon="4.66524">
        <ele>102.037109375</ele>
        <time>2019-04-13T08:32:55Z</time>
      </trkpt>
      <trkpt lat="44.16158" lon="4.66544">
        <ele>103.95971679688</ele>
        <time>2019-04-13T08:33:04Z</time>
      </trkpt>
      <trkpt lat="44.16179" lon="4.66577">
        <ele>102.037109375</ele>
        <time>2019-04-13T08:33:17Z</time>
      </trkpt>
      <trkpt lat="44.1619" lon="4.66585">
        <ele>100.59509277344</ele>
        <time>2019-04-13T08:33:20Z</time>
      </trkpt>
      <trkpt lat="44.16221" lon="4.66611">
        <ele>97.23046875</ele>
        <time>2019-04-13T08:33:27Z</time>
      </trkpt>
      <trkpt lat="44.16223" lon="4.66614">
        <ele>97.711181640625</ele>
        <time>2019-04-13T08:33:28Z</time>
      </trkpt>
      <trkpt lat="44.16229" lon="4.66608">
        <ele>97.711181640625</ele>
        <time>2019-04-13T08:33:32Z</time>
      </trkpt>
      <trkpt lat="44.16221" lon="4.6659">
        <ele>98.19189453125</ele>
        <time>2019-04-13T08:33:38Z</time>
      </trkpt>
      <trkpt lat="44.1622" lon="4.66576">
        <ele>99.6337890625</ele>
        <time>2019-04-13T08:33:42Z</time>
      </trkpt>
      <trkpt lat="44.16225" lon="4.66541">
        <ele>101.07568359375</ele>
        <time>2019-04-13T08:33:57Z</time>
      </trkpt>
      <trkpt lat="44.16226" lon="4.66538">
        <ele>101.07568359375</ele>
        <time>2019-04-13T08:33:58Z</time>
      </trkpt>
      <trkpt lat="44.16237" lon="4.66533">
        <ele>100.59509277344</ele>
        <time>2019-04-13T08:34:05Z</time>
      </trkpt>
      <trkpt lat="44.16241" lon="4.66537">
        <ele>103.47900390625</ele>
        <time>2019-04-13T08:34:08Z</time>
      </trkpt>
      <trkpt lat="44.16244" lon="4.66547">
        <ele>103.47900390625</ele>
        <time>2019-04-13T08:34:17Z</time>
      </trkpt>
      <trkpt lat="44.16251" lon="4.66524">
        <ele>102.99829101562</ele>
        <time>2019-04-13T08:34:28Z</time>
      </trkpt>
      <trkpt lat="44.16264" lon="4.66524">
        <ele>101.07568359375</ele>
        <time>2019-04-13T08:34:34Z</time>
      </trkpt>
      <trkpt lat="44.16325" lon="4.66548">
        <ele>102.037109375</ele>
        <time>2019-04-13T08:34:56Z</time>
      </trkpt>
      <trkpt lat="44.16335" lon="4.66547">
        <ele>102.037109375</ele>
        <time>2019-04-13T08:35:01Z</time>
      </trkpt>
      <trkpt lat="44.16347" lon="4.66513">
        <ele>101.07568359375</ele>
        <time>2019-04-13T08:35:13Z</time>
      </trkpt>
      <trkpt lat="44.16358" lon="4.66498">
        <ele>101.07568359375</ele>
        <time>2019-04-13T08:35:19Z</time>
      </trkpt>
      <trkpt lat="44.16359" lon="4.66498">
        <ele>101.55639648438</ele>
        <time>2019-04-13T08:35:20Z</time>
      </trkpt>
      <trkpt lat="44.1636" lon="4.66504">
        <ele>102.037109375</ele>
        <time>2019-04-13T08:35:28Z</time>
      </trkpt>
      <trkpt lat="44.16355" lon="4.66517">
        <ele>102.037109375</ele>
        <time>2019-04-13T08:35:35Z</time>
      </trkpt>
      <trkpt lat="44.1635" lon="4.66535">
        <ele>103.47900390625</ele>
        <time>2019-04-13T08:35:43Z</time>
      </trkpt>
      <trkpt lat="44.16353" lon="4.66552">
        <ele>107.32434082031</ele>
        <time>2019-04-13T08:35:50Z</time>
      </trkpt>
      <trkpt lat="44.16353" lon="4.66554">
        <ele>106.36303710938</ele>
        <time>2019-04-13T08:35:51Z</time>
      </trkpt>
      <trkpt lat="44.16354" lon="4.66561">
        <ele>107.32434082031</ele>
        <time>2019-04-13T08:36:20Z</time>
      </trkpt>
      <trkpt lat="44.16358" lon="4.6656">
        <ele>108.28564453125</ele>
        <time>2019-04-13T08:36:23Z</time>
      </trkpt>
      <trkpt lat="44.16361" lon="4.66559">
        <ele>108.76623535156</ele>
        <time>2019-04-13T08:36:25Z</time>
      </trkpt>
      <trkpt lat="44.16364" lon="4.66553">
        <ele>109.24694824219</ele>
        <time>2019-04-13T08:36:28Z</time>
      </trkpt>
      <trkpt lat="44.16379" lon="4.66525">
        <ele>107.80505371094</ele>
        <time>2019-04-13T08:36:41Z</time>
      </trkpt>
      <trkpt lat="44.1639" lon="4.66528">
        <ele>110.68884277344</ele>
        <time>2019-04-13T08:36:47Z</time>
      </trkpt>
      <trkpt lat="44.16393" lon="4.66531">
        <ele>111.16955566406</ele>
        <time>2019-04-13T08:36:49Z</time>
      </trkpt>
      <trkpt lat="44.16393" lon="4.66544">
        <ele>112.61157226562</ele>
        <time>2019-04-13T08:36:55Z</time>
      </trkpt>
      <trkpt lat="44.16394" lon="4.6655">
        <ele>112.61157226562</ele>
        <time>2019-04-13T08:37:01Z</time>
      </trkpt>
      <trkpt lat="44.16397" lon="4.66546">
        <ele>112.61157226562</ele>
        <time>2019-04-13T08:37:03Z</time>
      </trkpt>
      <trkpt lat="44.16402" lon="4.66546">
        <ele>114.5341796875</ele>
        <time>2019-04-13T08:37:06Z</time>
      </trkpt>
      <trkpt lat="44.16416" lon="4.66543">
        <ele>112.61157226562</ele>
        <time>2019-04-13T08:37:13Z</time>
      </trkpt>
      <trkpt lat="44.16428" lon="4.66543">
        <ele>112.61157226562</ele>
        <time>2019-04-13T08:37:20Z</time>
      </trkpt>
      <trkpt lat="44.16436" lon="4.66546">
        <ele>113.57299804688</ele>
        <time>2019-04-13T08:37:25Z</time>
      </trkpt>
      <trkpt lat="44.16438" lon="4.66547">
        <ele>113.57299804688</ele>
        <time>2019-04-13T08:37:26Z</time>
      </trkpt>
      <trkpt lat="44.16441" lon="4.66564">
        <ele>114.05358886719</ele>
        <time>2019-04-13T08:37:34Z</time>
      </trkpt>
      <trkpt lat="44.16439" lon="4.66573">
        <ele>116.45678710938</ele>
        <time>2019-04-13T08:37:38Z</time>
      </trkpt>
      <trkpt lat="44.16437" lon="4.66578">
        <ele>116.9375</ele>
        <time>2019-04-13T08:37:41Z</time>
      </trkpt>
      <trkpt lat="44.16434" lon="4.66592">
        <ele>118.37939453125</ele>
        <time>2019-04-13T08:37:48Z</time>
      </trkpt>
      <trkpt lat="44.16434" lon="4.66595">
        <ele>118.86010742188</ele>
        <time>2019-04-13T08:37:49Z</time>
      </trkpt>
      <trkpt lat="44.16428" lon="4.66611">
        <ele>120.30212402344</ele>
        <time>2019-04-13T08:37:59Z</time>
      </trkpt>
      <trkpt lat="44.16419" lon="4.66617">
        <ele>120.30212402344</ele>
        <time>2019-04-13T08:38:05Z</time>
      </trkpt>
      <trkpt lat="44.16415" lon="4.66639">
        <ele>122.22473144531</ele>
        <time>2019-04-13T08:38:16Z</time>
      </trkpt>
      <trkpt lat="44.16412" lon="4.66671">
        <ele>123.18615722656</ele>
        <time>2019-04-13T08:38:31Z</time>
      </trkpt>
      <trkpt lat="44.16413" lon="4.66675">
        <ele>125.10876464844</ele>
        <time>2019-04-13T08:40:19Z</time>
      </trkpt>
      <trkpt lat="44.16416" lon="4.66697">
        <ele>124.62805175781</ele>
        <time>2019-04-13T08:40:56Z</time>
      </trkpt>
      <trkpt lat="44.16417" lon="4.66737">
        <ele>124.14733886719</ele>
        <time>2019-04-13T08:41:09Z</time>
      </trkpt>
      <trkpt lat="44.16419" lon="4.66785">
        <ele>125.58935546875</ele>
        <time>2019-04-13T08:41:22Z</time>
      </trkpt>
      <trkpt lat="44.16419" lon="4.66802">
        <ele>125.58935546875</ele>
        <time>2019-04-13T08:41:26Z</time>
      </trkpt>
      <trkpt lat="44.16421" lon="4.66827">
        <ele>123.18615722656</ele>
        <time>2019-04-13T08:41:30Z</time>
      </trkpt>
      <trkpt lat="44.16427" lon="4.6685">
        <ele>119.82141113281</ele>
        <time>2019-04-13T08:41:34Z</time>
      </trkpt>
      <trkpt lat="44.16431" lon="4.66883">
        <ele>119.82141113281</ele>
        <time>2019-04-13T08:41:42Z</time>
      </trkpt>
      <trkpt lat="44.16432" lon="4.66903">
        <ele>119.3408203125</ele>
        <time>2019-04-13T08:41:46Z</time>
      </trkpt>
      <trkpt lat="44.16424" lon="4.66921">
        <ele>115.97619628906</ele>
        <time>2019-04-13T08:41:52Z</time>
      </trkpt>
      <trkpt lat="44.16417" lon="4.66932">
        <ele>113.09228515625</ele>
        <time>2019-04-13T08:41:56Z</time>
      </trkpt>
      <trkpt lat="44.16401" lon="4.66949">
        <ele>108.28564453125</ele>
        <time>2019-04-13T08:42:02Z</time>
      </trkpt>
      <trkpt lat="44.16392" lon="4.66966">
        <ele>106.36303710938</ele>
        <time>2019-04-13T08:42:07Z</time>
      </trkpt>
      <trkpt lat="44.16378" lon="4.66976">
        <ele>105.88244628906</ele>
        <time>2019-04-13T08:42:16Z</time>
      </trkpt>
      <trkpt lat="44.16362" lon="4.66988">
        <ele>102.51770019531</ele>
        <time>2019-04-13T08:42:26Z</time>
      </trkpt>
      <trkpt lat="44.16346" lon="4.67001">
        <ele>101.55639648438</ele>
        <time>2019-04-13T08:42:32Z</time>
      </trkpt>
      <trkpt lat="44.16336" lon="4.67014">
        <ele>99.153076171875</ele>
        <time>2019-04-13T08:42:35Z</time>
      </trkpt>
      <trkpt lat="44.16331" lon="4.67044">
        <ele>99.153076171875</ele>
        <time>2019-04-13T08:42:41Z</time>
      </trkpt>
      <trkpt lat="44.16336" lon="4.67057">
        <ele>100.59509277344</ele>
        <time>2019-04-13T08:42:45Z</time>
      </trkpt>
      <trkpt lat="44.16325" lon="4.67065">
        <ele>98.19189453125</ele>
        <time>2019-04-13T08:42:52Z</time>
      </trkpt>
      <trkpt lat="44.16318" lon="4.67061">
        <ele>97.23046875</ele>
        <time>2019-04-13T08:42:54Z</time>
      </trkpt>
      <trkpt lat="44.16306" lon="4.67078">
        <ele>93.865844726562</ele>
        <time>2019-04-13T08:42:59Z</time>
      </trkpt>
      <trkpt lat="44.1629" lon="4.67081">
        <ele>95.788452148438</ele>
        <time>2019-04-13T08:43:05Z</time>
      </trkpt>
      <trkpt lat="44.16274" lon="4.67077">
        <ele>97.23046875</ele>
        <time>2019-04-13T08:43:11Z</time>
      </trkpt>
      <trkpt lat="44.16272" lon="4.6708">
        <ele>98.19189453125</ele>
        <time>2019-04-13T08:43:13Z</time>
      </trkpt>
      <trkpt lat="44.16276" lon="4.67092">
        <ele>98.672485351562</ele>
        <time>2019-04-13T08:43:19Z</time>
      </trkpt>
      <trkpt lat="44.16288" lon="4.67116">
        <ele>100.11450195312</ele>
        <time>2019-04-13T08:43:32Z</time>
      </trkpt>
      <trkpt lat="44.16297" lon="4.67148">
        <ele>100.11450195312</ele>
        <time>2019-04-13T08:43:46Z</time>
      </trkpt>
      <trkpt lat="44.16295" lon="4.67168">
        <ele>99.6337890625</ele>
        <time>2019-04-13T08:43:54Z</time>
      </trkpt>
      <trkpt lat="44.16295" lon="4.67187">
        <ele>103.47900390625</ele>
        <time>2019-04-13T08:44:01Z</time>
      </trkpt>
      <trkpt lat="44.16294" lon="4.67189">
        <ele>103.47900390625</ele>
        <time>2019-04-13T08:44:02Z</time>
      </trkpt>
      <trkpt lat="44.16286" lon="4.6722">
        <ele>104.92102050781</ele>
        <time>2019-04-13T08:44:17Z</time>
      </trkpt>
      <trkpt lat="44.16277" lon="4.67252">
        <ele>105.88244628906</ele>
        <time>2019-04-13T08:44:33Z</time>
      </trkpt>
      <trkpt lat="44.16272" lon="4.67284">
        <ele>109.24694824219</ele>
        <time>2019-04-13T08:44:49Z</time>
      </trkpt>
      <trkpt lat="44.16267" lon="4.673">
        <ele>112.13098144531</ele>
        <time>2019-04-13T08:44:58Z</time>
      </trkpt>
      <trkpt lat="44.16253" lon="4.67324">
        <ele>113.57299804688</ele>
        <time>2019-04-13T08:45:15Z</time>
      </trkpt>
      <trkpt lat="44.16247" lon="4.67347">
        <ele>115.97619628906</ele>
        <time>2019-04-13T08:45:26Z</time>
      </trkpt>
      <trkpt lat="44.16246" lon="4.67369">
        <ele>115.49560546875</ele>
        <time>2019-04-13T08:45:35Z</time>
      </trkpt>
      <trkpt lat="44.1625" lon="4.67411">
        <ele>115.97619628906</ele>
        <time>2019-04-13T08:45:49Z</time>
      </trkpt>
      <trkpt lat="44.16233" lon="4.67441">
        <ele>115.01489257812</ele>
        <time>2019-04-13T08:46:02Z</time>
      </trkpt>
      <trkpt lat="44.16232" lon="4.67446">
        <ele>114.05358886719</ele>
        <time>2019-04-13T08:46:03Z</time>
      </trkpt>
      <trkpt lat="44.16222" lon="4.6751">
        <ele>115.01489257812</ele>
        <time>2019-04-13T08:46:15Z</time>
      </trkpt>
      <trkpt lat="44.16222" lon="4.67529">
        <ele>115.49560546875</ele>
        <time>2019-04-13T08:46:22Z</time>
      </trkpt>
      <trkpt lat="44.16216" lon="4.67555">
        <ele>118.86010742188</ele>
        <time>2019-04-13T08:46:35Z</time>
      </trkpt>
      <trkpt lat="44.16216" lon="4.67557">
        <ele>118.86010742188</ele>
        <time>2019-04-13T08:46:36Z</time>
      </trkpt>
      <trkpt lat="44.16211" lon="4.67569">
        <ele>117.89880371094</ele>
        <time>2019-04-13T08:46:41Z</time>
      </trkpt>
      <trkpt lat="44.16205" lon="4.67596">
        <ele>120.78283691406</ele>
        <time>2019-04-13T08:46:55Z</time>
      </trkpt>
      <trkpt lat="44.16195" lon="4.67608">
        <ele>121.26354980469</ele>
        <time>2019-04-13T08:47:02Z</time>
      </trkpt>
      <trkpt lat="44.16199" lon="4.67626">
        <ele>121.744140625</ele>
        <time>2019-04-13T08:47:10Z</time>
      </trkpt>
      <trkpt lat="44.16196" lon="4.6763">
        <ele>122.22473144531</ele>
        <time>2019-04-13T08:47:13Z</time>
      </trkpt>
      <trkpt lat="44.16192" lon="4.67636">
        <ele>122.22473144531</ele>
        <time>2019-04-13T08:47:17Z</time>
      </trkpt>
      <trkpt lat="44.16182" lon="4.67653">
        <ele>125.58935546875</ele>
        <time>2019-04-13T08:47:29Z</time>
      </trkpt>
      <trkpt lat="44.16162" lon="4.67678">
        <ele>125.10876464844</ele>
        <time>2019-04-13T08:47:46Z</time>
      </trkpt>
      <trkpt lat="44.16149" lon="4.67712">
        <ele>127.99255371094</ele>
        <time>2019-04-13T08:48:02Z</time>
      </trkpt>
      <trkpt lat="44.16147" lon="4.67718">
        <ele>127.99255371094</ele>
        <time>2019-04-13T08:48:05Z</time>
      </trkpt>
      <trkpt lat="44.16138" lon="4.67727">
        <ele>128.47338867188</ele>
        <time>2019-04-13T08:48:12Z</time>
      </trkpt>
      <trkpt lat="44.16136" lon="4.67749">
        <ele>129.43469238281</ele>
        <time>2019-04-13T08:48:23Z</time>
      </trkpt>
      <trkpt lat="44.16125" lon="4.67782">
        <ele>129.43469238281</ele>
        <time>2019-04-13T08:48:38Z</time>
      </trkpt>
      <trkpt lat="44.16118" lon="4.67798">
        <ele>129.43469238281</ele>
        <time>2019-04-13T08:48:46Z</time>
      </trkpt>
      <trkpt lat="44.16134" lon="4.67818">
        <ele>132.79931640625</ele>
        <time>2019-04-13T08:48:58Z</time>
      </trkpt>
      <trkpt lat="44.16135" lon="4.67823">
        <ele>132.79931640625</ele>
        <time>2019-04-13T08:49:00Z</time>
      </trkpt>
      <trkpt lat="44.16144" lon="4.67835">
        <ele>135.68310546875</ele>
        <time>2019-04-13T08:49:10Z</time>
      </trkpt>
      <trkpt lat="44.16152" lon="4.67866">
        <ele>137.12524414062</ele>
        <time>2019-04-13T08:49:27Z</time>
      </trkpt>
      <trkpt lat="44.16148" lon="4.67878">
        <ele>138.08654785156</ele>
        <time>2019-04-13T08:49:33Z</time>
      </trkpt>
      <trkpt lat="44.16152" lon="4.67914">
        <ele>139.52844238281</ele>
        <time>2019-04-13T08:49:48Z</time>
      </trkpt>
      <trkpt lat="44.16159" lon="4.6792">
        <ele>140.48986816406</ele>
        <time>2019-04-13T08:49:53Z</time>
      </trkpt>
      <trkpt lat="44.16165" lon="4.67929">
        <ele>143.37365722656</ele>
        <time>2019-04-13T08:50:06Z</time>
      </trkpt>
      <trkpt lat="44.16168" lon="4.67936">
        <ele>143.85437011719</ele>
        <time>2019-04-13T08:50:13Z</time>
      </trkpt>
      <trkpt lat="44.16173" lon="4.67952">
        <ele>145.29638671875</ele>
        <time>2019-04-13T08:50:23Z</time>
      </trkpt>
      <trkpt lat="44.16172" lon="4.67959">
        <ele>145.77709960938</ele>
        <time>2019-04-13T08:50:28Z</time>
      </trkpt>
      <trkpt lat="44.16172" lon="4.67971">
        <ele>145.29638671875</ele>
        <time>2019-04-13T08:50:36Z</time>
      </trkpt>
      <trkpt lat="44.16176" lon="4.67979">
        <ele>145.77709960938</ele>
        <time>2019-04-13T08:50:42Z</time>
      </trkpt>
      <trkpt lat="44.16191" lon="4.67984">
        <ele>147.69970703125</ele>
        <time>2019-04-13T08:50:53Z</time>
      </trkpt>
      <trkpt lat="44.16196" lon="4.67987">
        <ele>150.58361816406</ele>
        <time>2019-04-13T08:50:58Z</time>
      </trkpt>
      <trkpt lat="44.16202" lon="4.6799">
        <ele>151.06420898438</ele>
        <time>2019-04-13T08:51:04Z</time>
      </trkpt>
      <trkpt lat="44.16206" lon="4.6799">
        <ele>151.544921875</ele>
        <time>2019-04-13T08:51:07Z</time>
      </trkpt>
      <trkpt lat="44.16207" lon="4.67985">
        <ele>152.98693847656</ele>
        <time>2019-04-13T08:51:10Z</time>
      </trkpt>
      <trkpt lat="44.1621" lon="4.67969">
        <ele>152.98693847656</ele>
        <time>2019-04-13T08:51:21Z</time>
      </trkpt>
      <trkpt lat="44.1621" lon="4.67957">
        <ele>152.98693847656</ele>
        <time>2019-04-13T08:51:28Z</time>
      </trkpt>
      <trkpt lat="44.16209" lon="4.67921">
        <ele>153.46765136719</ele>
        <time>2019-04-13T08:51:46Z</time>
      </trkpt>
      <trkpt lat="44.16214" lon="4.67887">
        <ele>156.3515625</ele>
        <time>2019-04-13T08:52:00Z</time>
      </trkpt>
      <trkpt lat="44.16214" lon="4.67859">
        <ele>157.31286621094</ele>
        <time>2019-04-13T08:52:12Z</time>
      </trkpt>
      <trkpt lat="44.16216" lon="4.67826">
        <ele>156.83215332031</ele>
        <time>2019-04-13T08:52:23Z</time>
      </trkpt>
      <trkpt lat="44.16221" lon="4.67807">
        <ele>158.27416992188</ele>
        <time>2019-04-13T08:52:31Z</time>
      </trkpt>
      <trkpt lat="44.16232" lon="4.67775">
        <ele>156.83215332031</ele>
        <time>2019-04-13T08:52:45Z</time>
      </trkpt>
      <trkpt lat="44.16252" lon="4.67744">
        <ele>153.46765136719</ele>
        <time>2019-04-13T08:52:55Z</time>
      </trkpt>
      <trkpt lat="44.16261" lon="4.67734">
        <ele>152.02575683594</ele>
        <time>2019-04-13T08:52:58Z</time>
      </trkpt>
      <trkpt lat="44.16266" lon="4.67719">
        <ele>149.62231445312</ele>
        <time>2019-04-13T08:53:02Z</time>
      </trkpt>
      <trkpt lat="44.16297" lon="4.67686">
        <ele>147.69970703125</ele>
        <time>2019-04-13T08:53:13Z</time>
      </trkpt>
      <trkpt lat="44.16315" lon="4.67658">
        <ele>140.48986816406</ele>
        <time>2019-04-13T08:53:17Z</time>
      </trkpt>
      <trkpt lat="44.16321" lon="4.67642">
        <ele>140.00915527344</ele>
        <time>2019-04-13T08:53:19Z</time>
      </trkpt>
      <trkpt lat="44.16327" lon="4.67633">
        <ele>141.45104980469</ele>
        <time>2019-04-13T08:53:21Z</time>
      </trkpt>
      <trkpt lat="44.16341" lon="4.67603">
        <ele>138.56726074219</ele>
        <time>2019-04-13T08:53:27Z</time>
      </trkpt>
      <trkpt lat="44.16343" lon="4.67598">
        <ele>137.12524414062</ele>
        <time>2019-04-13T08:53:34Z</time>
      </trkpt>
      <trkpt lat="44.16346" lon="4.67584">
        <ele>135.68310546875</ele>
        <time>2019-04-13T08:53:45Z</time>
      </trkpt>
      <trkpt lat="44.16344" lon="4.6756">
        <ele>135.68310546875</ele>
        <time>2019-04-13T08:53:52Z</time>
      </trkpt>
      <trkpt lat="44.16342" lon="4.67551">
        <ele>133.76049804688</ele>
        <time>2019-04-13T08:53:54Z</time>
      </trkpt>
      <trkpt lat="44.1634" lon="4.67533">
        <ele>132.79931640625</ele>
        <time>2019-04-13T08:53:58Z</time>
      </trkpt>
      <trkpt lat="44.16334" lon="4.67526">
        <ele>130.39599609375</ele>
        <time>2019-04-13T08:54:02Z</time>
      </trkpt>
      <trkpt lat="44.16328" lon="4.67514">
        <ele>127.51196289062</ele>
        <time>2019-04-13T08:54:05Z</time>
      </trkpt>
      <trkpt lat="44.16324" lon="4.67498">
        <ele>123.66674804688</ele>
        <time>2019-04-13T08:54:08Z</time>
      </trkpt>
      <trkpt lat="44.16322" lon="4.67484">
        <ele>119.82141113281</ele>
        <time>2019-04-13T08:54:10Z</time>
      </trkpt>
      <trkpt lat="44.16321" lon="4.67465">
        <ele>121.744140625</ele>
        <time>2019-04-13T08:54:13Z</time>
      </trkpt>
      <trkpt lat="44.16306" lon="4.67446">
        <ele>118.37939453125</ele>
        <time>2019-04-13T08:54:20Z</time>
      </trkpt>
      <trkpt lat="44.16299" lon="4.67441">
        <ele>116.45678710938</ele>
        <time>2019-04-13T08:54:22Z</time>
      </trkpt>
      <trkpt lat="44.16295" lon="4.67417">
        <ele>117.89880371094</ele>
        <time>2019-04-13T08:54:28Z</time>
      </trkpt>
      <trkpt lat="44.163" lon="4.67375">
        <ele>115.49560546875</ele>
        <time>2019-04-13T08:54:37Z</time>
      </trkpt>
      <trkpt lat="44.16302" lon="4.67371">
        <ele>115.01489257812</ele>
        <time>2019-04-13T08:54:38Z</time>
      </trkpt>
      <trkpt lat="44.16313" lon="4.67355">
        <ele>117.41821289062</ele>
        <time>2019-04-13T08:54:48Z</time>
      </trkpt>
      <trkpt lat="44.16318" lon="4.67352">
        <ele>119.82141113281</ele>
        <time>2019-04-13T08:54:57Z</time>
      </trkpt>
      <trkpt lat="44.1632" lon="4.67345">
        <ele>120.30212402344</ele>
        <time>2019-04-13T08:55:01Z</time>
      </trkpt>
      <trkpt lat="44.16322" lon="4.67331">
        <ele>117.41821289062</ele>
        <time>2019-04-13T08:55:05Z</time>
      </trkpt>
      <trkpt lat="44.16332" lon="4.67324">
        <ele>115.49560546875</ele>
        <time>2019-04-13T08:55:09Z</time>
      </trkpt>
      <trkpt lat="44.16336" lon="4.67315">
        <ele>114.05358886719</ele>
        <time>2019-04-13T08:55:12Z</time>
      </trkpt>
      <trkpt lat="44.16338" lon="4.67313">
        <ele>113.09228515625</ele>
        <time>2019-04-13T08:55:13Z</time>
      </trkpt>
      <trkpt lat="44.16344" lon="4.67309">
        <ele>111.65026855469</ele>
        <time>2019-04-13T08:55:15Z</time>
      </trkpt>
      <trkpt lat="44.16363" lon="4.67305">
        <ele>109.24694824219</ele>
        <time>2019-04-13T08:55:23Z</time>
      </trkpt>
      <trkpt lat="44.16364" lon="4.67307">
        <ele>110.20825195312</ele>
        <time>2019-04-13T08:55:24Z</time>
      </trkpt>
      <trkpt lat="44.1637" lon="4.67313">
        <ele>110.68884277344</ele>
        <time>2019-04-13T08:55:32Z</time>
      </trkpt>
      <trkpt lat="44.16378" lon="4.6732">
        <ele>109.72766113281</ele>
        <time>2019-04-13T08:56:08Z</time>
      </trkpt>
      <trkpt lat="44.16405" lon="4.67329">
        <ele>110.20825195312</ele>
        <time>2019-04-13T08:56:21Z</time>
      </trkpt>
      <trkpt lat="44.16428" lon="4.67331">
        <ele>108.28564453125</ele>
        <time>2019-04-13T08:56:31Z</time>
      </trkpt>
      <trkpt lat="44.16447" lon="4.67338">
        <ele>105.40173339844</ele>
        <time>2019-04-13T08:56:38Z</time>
      </trkpt>
      <trkpt lat="44.1647" lon="4.67351">
        <ele>106.36303710938</ele>
        <time>2019-04-13T08:56:47Z</time>
      </trkpt>
      <trkpt lat="44.16481" lon="4.67357">
        <ele>109.72766113281</ele>
        <time>2019-04-13T08:56:51Z</time>
      </trkpt>
      <trkpt lat="44.16499" lon="4.67371">
        <ele>108.28564453125</ele>
        <time>2019-04-13T08:57:00Z</time>
      </trkpt>
      <trkpt lat="44.1652" lon="4.67381">
        <ele>108.76623535156</ele>
        <time>2019-04-13T08:57:09Z</time>
      </trkpt>
      <trkpt lat="44.16568" lon="4.67406">
        <ele>107.80505371094</ele>
        <time>2019-04-13T08:57:25Z</time>
      </trkpt>
      <trkpt lat="44.16596" lon="4.67435">
        <ele>109.24694824219</ele>
        <time>2019-04-13T08:57:38Z</time>
      </trkpt>
      <trkpt lat="44.1663" lon="4.67462">
        <ele>108.76623535156</ele>
        <time>2019-04-13T08:57:55Z</time>
      </trkpt>
      <trkpt lat="44.16656" lon="4.67465">
        <ele>111.16955566406</ele>
        <time>2019-04-13T08:58:08Z</time>
      </trkpt>
      <trkpt lat="44.1666" lon="4.67465">
        <ele>112.13098144531</ele>
        <time>2019-04-13T08:58:10Z</time>
      </trkpt>
      <trkpt lat="44.16693" lon="4.67461">
        <ele>112.61157226562</ele>
        <time>2019-04-13T08:58:26Z</time>
      </trkpt>
      <trkpt lat="44.1672" lon="4.67443">
        <ele>113.09228515625</ele>
        <time>2019-04-13T08:58:42Z</time>
      </trkpt>
      <trkpt lat="44.16734" lon="4.67433">
        <ele>115.01489257812</ele>
        <time>2019-04-13T08:58:51Z</time>
      </trkpt>
      <trkpt lat="44.16752" lon="4.67426">
        <ele>117.41821289062</ele>
        <time>2019-04-13T08:59:02Z</time>
      </trkpt>
      <trkpt lat="44.16784" lon="4.67421">
        <ele>118.86010742188</ele>
        <time>2019-04-13T08:59:23Z</time>
      </trkpt>
      <trkpt lat="44.16786" lon="4.6742">
        <ele>118.86010742188</ele>
        <time>2019-04-13T08:59:24Z</time>
      </trkpt>
      <trkpt lat="44.16799" lon="4.67419">
        <ele>120.30212402344</ele>
        <time>2019-04-13T08:59:33Z</time>
      </trkpt>
      <trkpt lat="44.16827" lon="4.6741">
        <ele>122.70544433594</ele>
        <time>2019-04-13T08:59:51Z</time>
      </trkpt>
      <trkpt lat="44.16843" lon="4.67388">
        <ele>126.06994628906</ele>
        <time>2019-04-13T09:00:04Z</time>
      </trkpt>
      <trkpt lat="44.16843" lon="4.67386">
        <ele>126.06994628906</ele>
        <time>2019-04-13T09:00:05Z</time>
      </trkpt>
      <trkpt lat="44.16847" lon="4.67349">
        <ele>127.99255371094</ele>
        <time>2019-04-13T09:00:21Z</time>
      </trkpt>
      <trkpt lat="44.16844" lon="4.67328">
        <ele>131.35729980469</ele>
        <time>2019-04-13T09:00:31Z</time>
      </trkpt>
      <trkpt lat="44.16842" lon="4.67322">
        <ele>132.31860351562</ele>
        <time>2019-04-13T09:00:34Z</time>
      </trkpt>
      <trkpt lat="44.16837" lon="4.67305">
        <ele>130.87670898438</ele>
        <time>2019-04-13T09:00:42Z</time>
      </trkpt>
      <trkpt lat="44.16836" lon="4.67297">
        <ele>131.837890625</ele>
        <time>2019-04-13T09:00:46Z</time>
      </trkpt>
      <trkpt lat="44.16831" lon="4.67262">
        <ele>134.72192382812</ele>
        <time>2019-04-13T09:01:02Z</time>
      </trkpt>
      <trkpt lat="44.16828" lon="4.67246">
        <ele>136.16394042969</ele>
        <time>2019-04-13T09:01:11Z</time>
      </trkpt>
      <trkpt lat="44.16827" lon="4.67242">
        <ele>137.60583496094</ele>
        <time>2019-04-13T09:01:13Z</time>
      </trkpt>
      <trkpt lat="44.16828" lon="4.67221">
        <ele>140.48986816406</ele>
        <time>2019-04-13T09:01:24Z</time>
      </trkpt>
      <trkpt lat="44.16827" lon="4.67205">
        <ele>144.33520507812</ele>
        <time>2019-04-13T09:01:33Z</time>
      </trkpt>
      <trkpt lat="44.16826" lon="4.67203">
        <ele>143.85437011719</ele>
        <time>2019-04-13T09:01:34Z</time>
      </trkpt>
      <trkpt lat="44.16819" lon="4.67176">
        <ele>144.33520507812</ele>
        <time>2019-04-13T09:01:49Z</time>
      </trkpt>
      <trkpt lat="44.16818" lon="4.67168">
        <ele>144.81579589844</ele>
        <time>2019-04-13T09:01:53Z</time>
      </trkpt>
      <trkpt lat="44.16817" lon="4.67153">
        <ele>145.77709960938</ele>
        <time>2019-04-13T09:02:01Z</time>
      </trkpt>
      <trkpt lat="44.1682" lon="4.67117">
        <ele>149.1416015625</ele>
        <time>2019-04-13T09:02:20Z</time>
      </trkpt>
      <trkpt lat="44.16821" lon="4.67114">
        <ele>149.62231445312</ele>
        <time>2019-04-13T09:02:22Z</time>
      </trkpt>
      <trkpt lat="44.16817" lon="4.671">
        <ele>151.544921875</ele>
        <time>2019-04-13T09:02:28Z</time>
      </trkpt>
      <trkpt lat="44.16814" lon="4.67088">
        <ele>152.98693847656</ele>
        <time>2019-04-13T09:02:34Z</time>
      </trkpt>
      <trkpt lat="44.16813" lon="4.67074">
        <ele>153.94836425781</ele>
        <time>2019-04-13T09:02:41Z</time>
      </trkpt>
      <trkpt lat="44.16812" lon="4.6706">
        <ele>153.94836425781</ele>
        <time>2019-04-13T09:02:48Z</time>
      </trkpt>
      <trkpt lat="44.16816" lon="4.67044">
        <ele>152.98693847656</ele>
        <time>2019-04-13T09:02:54Z</time>
      </trkpt>
      <trkpt lat="44.16819" lon="4.67034">
        <ele>151.06420898438</ele>
        <time>2019-04-13T09:02:59Z</time>
      </trkpt>
      <trkpt lat="44.16822" lon="4.67027">
        <ele>151.06420898438</ele>
        <time>2019-04-13T09:03:15Z</time>
      </trkpt>
      <trkpt lat="44.16828" lon="4.67007">
        <ele>147.21899414062</ele>
        <time>2019-04-13T09:03:21Z</time>
      </trkpt>
      <trkpt lat="44.16832" lon="4.66975">
        <ele>144.33520507812</ele>
        <time>2019-04-13T09:03:30Z</time>
      </trkpt>
      <trkpt lat="44.16838" lon="4.66936">
        <ele>140.97045898438</ele>
        <time>2019-04-13T09:03:36Z</time>
      </trkpt>
      <trkpt lat="44.16839" lon="4.66921">
        <ele>139.52844238281</ele>
        <time>2019-04-13T09:03:38Z</time>
      </trkpt>
      <trkpt lat="44.16842" lon="4.66904">
        <ele>139.0478515625</ele>
        <time>2019-04-13T09:03:41Z</time>
      </trkpt>
      <trkpt lat="44.16861" lon="4.66902">
        <ele>137.60583496094</ele>
        <time>2019-04-13T09:03:47Z</time>
      </trkpt>
      <trkpt lat="44.16874" lon="4.66906">
        <ele>138.56726074219</ele>
        <time>2019-04-13T09:03:53Z</time>
      </trkpt>
      <trkpt lat="44.1688" lon="4.66901">
        <ele>134.72192382812</ele>
        <time>2019-04-13T09:03:56Z</time>
      </trkpt>
      <trkpt lat="44.16882" lon="4.66902">
        <ele>134.72192382812</ele>
        <time>2019-04-13T09:03:57Z</time>
      </trkpt>
      <trkpt lat="44.16891" lon="4.66901">
        <ele>132.79931640625</ele>
        <time>2019-04-13T09:04:00Z</time>
      </trkpt>
      <trkpt lat="44.169" lon="4.66898">
        <ele>133.76049804688</ele>
        <time>2019-04-13T09:04:09Z</time>
      </trkpt>
      <trkpt lat="44.16903" lon="4.66901">
        <ele>135.20251464844</ele>
        <time>2019-04-13T09:04:14Z</time>
      </trkpt>
      <trkpt lat="44.16911" lon="4.66906">
        <ele>137.60583496094</ele>
        <time>2019-04-13T09:04:28Z</time>
      </trkpt>
      <trkpt lat="44.16914" lon="4.66905">
        <ele>138.08654785156</ele>
        <time>2019-04-13T09:04:42Z</time>
      </trkpt>
      <trkpt lat="44.1693" lon="4.66904">
        <ele>138.08654785156</ele>
        <time>2019-04-13T09:04:52Z</time>
      </trkpt>
      <trkpt lat="44.16934" lon="4.66905">
        <ele>138.56726074219</ele>
        <time>2019-04-13T09:04:54Z</time>
      </trkpt>
      <trkpt lat="44.16939" lon="4.66904">
        <ele>139.0478515625</ele>
        <time>2019-04-13T09:04:56Z</time>
      </trkpt>
      <trkpt lat="44.16953" lon="4.66913">
        <ele>139.0478515625</ele>
        <time>2019-04-13T09:05:05Z</time>
      </trkpt>
      <trkpt lat="44.16958" lon="4.66916">
        <ele>139.0478515625</ele>
        <time>2019-04-13T09:05:08Z</time>
      </trkpt>
      <trkpt lat="44.16966" lon="4.66919">
        <ele>141.45104980469</ele>
        <time>2019-04-13T09:05:18Z</time>
      </trkpt>
      <trkpt lat="44.16972" lon="4.66918">
        <ele>140.48986816406</ele>
        <time>2019-04-13T09:05:34Z</time>
      </trkpt>
      <trkpt lat="44.1697" lon="4.66915">
        <ele>140.00915527344</ele>
        <time>2019-04-13T09:05:57Z</time>
      </trkpt>
      <trkpt lat="44.16966" lon="4.66907">
        <ele>140.00915527344</ele>
        <time>2019-04-13T09:07:26Z</time>
      </trkpt>
      <trkpt lat="44.16947" lon="4.66889">
        <ele>136.16394042969</ele>
        <time>2019-04-13T09:07:32Z</time>
      </trkpt>
      <trkpt lat="44.16937" lon="4.66879">
        <ele>136.16394042969</ele>
        <time>2019-04-13T09:07:35Z</time>
      </trkpt>
      <trkpt lat="44.16926" lon="4.66871">
        <ele>131.837890625</ele>
        <time>2019-04-13T09:07:39Z</time>
      </trkpt>
      <trkpt lat="44.16925" lon="4.6686">
        <ele>130.87670898438</ele>
        <time>2019-04-13T09:07:41Z</time>
      </trkpt>
      <trkpt lat="44.16928" lon="4.6684">
        <ele>131.35729980469</ele>
        <time>2019-04-13T09:07:48Z</time>
      </trkpt>
      <trkpt lat="44.16937" lon="4.66812">
        <ele>127.99255371094</ele>
        <time>2019-04-13T09:08:01Z</time>
      </trkpt>
      <trkpt lat="44.1697" lon="4.6678">
        <ele>130.39599609375</ele>
        <time>2019-04-13T09:08:15Z</time>
      </trkpt>
      <trkpt lat="44.16976" lon="4.66742">
        <ele>131.837890625</ele>
        <time>2019-04-13T09:08:29Z</time>
      </trkpt>
      <trkpt lat="44.1695" lon="4.66724">
        <ele>130.39599609375</ele>
        <time>2019-04-13T09:08:42Z</time>
      </trkpt>
      <trkpt lat="44.16932" lon="4.66696">
        <ele>130.39599609375</ele>
        <time>2019-04-13T09:08:55Z</time>
      </trkpt>
      <trkpt lat="44.16929" lon="4.66679">
        <ele>132.31860351562</ele>
        <time>2019-04-13T09:09:01Z</time>
      </trkpt>
      <trkpt lat="44.16926" lon="4.66643">
        <ele>133.76049804688</ele>
        <time>2019-04-13T09:09:15Z</time>
      </trkpt>
      <trkpt lat="44.1692" lon="4.66612">
        <ele>136.64465332031</ele>
        <time>2019-04-13T09:09:29Z</time>
      </trkpt>
      <trkpt lat="44.16917" lon="4.66581">
        <ele>138.08654785156</ele>
        <time>2019-04-13T09:09:43Z</time>
      </trkpt>
      <trkpt lat="44.16917" lon="4.66557">
        <ele>135.20251464844</ele>
        <time>2019-04-13T09:09:53Z</time>
      </trkpt>
      <trkpt lat="44.1692" lon="4.66541">
        <ele>136.64465332031</ele>
        <time>2019-04-13T09:09:59Z</time>
      </trkpt>
      <trkpt lat="44.16932" lon="4.66496">
        <ele>134.2412109375</ele>
        <time>2019-04-13T09:10:11Z</time>
      </trkpt>
      <trkpt lat="44.16943" lon="4.66462">
        <ele>136.16394042969</ele>
        <time>2019-04-13T09:10:18Z</time>
      </trkpt>
      <trkpt lat="44.16942" lon="4.66444">
        <ele>135.20251464844</ele>
        <time>2019-04-13T09:10:22Z</time>
      </trkpt>
      <trkpt lat="44.16941" lon="4.66431">
        <ele>134.2412109375</ele>
        <time>2019-04-13T09:10:25Z</time>
      </trkpt>
      <trkpt lat="44.16934" lon="4.66424">
        <ele>132.79931640625</ele>
        <time>2019-04-13T09:10:29Z</time>
      </trkpt>
      <trkpt lat="44.16918" lon="4.66416">
        <ele>131.837890625</ele>
        <time>2019-04-13T09:10:34Z</time>
      </trkpt>
      <trkpt lat="44.16905" lon="4.66411">
        <ele>130.87670898438</ele>
        <time>2019-04-13T09:10:38Z</time>
      </trkpt>
      <trkpt lat="44.16893" lon="4.66409">
        <ele>129.43469238281</ele>
        <time>2019-04-13T09:10:42Z</time>
      </trkpt>
      <trkpt lat="44.16876" lon="4.66407">
        <ele>129.91528320312</ele>
        <time>2019-04-13T09:10:47Z</time>
      </trkpt>
      <trkpt lat="44.16862" lon="4.6639">
        <ele>126.06994628906</ele>
        <time>2019-04-13T09:10:53Z</time>
      </trkpt>
      <trkpt lat="44.16844" lon="4.66367">
        <ele>122.70544433594</ele>
        <time>2019-04-13T09:11:01Z</time>
      </trkpt>
      <trkpt lat="44.16838" lon="4.66362">
        <ele>122.22473144531</ele>
        <time>2019-04-13T09:11:03Z</time>
      </trkpt>
      <trkpt lat="44.16823" lon="4.66351">
        <ele>121.26354980469</ele>
        <time>2019-04-13T09:11:08Z</time>
      </trkpt>
      <trkpt lat="44.16807" lon="4.66327">
        <ele>118.37939453125</ele>
        <time>2019-04-13T09:11:15Z</time>
      </trkpt>
      <trkpt lat="44.16802" lon="4.6632">
        <ele>116.45678710938</ele>
        <time>2019-04-13T09:11:17Z</time>
      </trkpt>
      <trkpt lat="44.16794" lon="4.66302">
        <ele>114.5341796875</ele>
        <time>2019-04-13T09:11:21Z</time>
      </trkpt>
      <trkpt lat="44.16792" lon="4.66298">
        <ele>115.01489257812</ele>
        <time>2019-04-13T09:11:22Z</time>
      </trkpt>
      <trkpt lat="44.16788" lon="4.66297">
        <ele>115.01489257812</ele>
        <time>2019-04-13T09:11:24Z</time>
      </trkpt>
      <trkpt lat="44.16786" lon="4.66294">
        <ele>114.5341796875</ele>
        <time>2019-04-13T09:11:26Z</time>
      </trkpt>
      <trkpt lat="44.16779" lon="4.6628">
        <ele>114.05358886719</ele>
        <time>2019-04-13T09:11:31Z</time>
      </trkpt>
      <trkpt lat="44.16767" lon="4.66269">
        <ele>112.61157226562</ele>
        <time>2019-04-13T09:11:35Z</time>
      </trkpt>
      <trkpt lat="44.16751" lon="4.66272">
        <ele>109.24694824219</ele>
        <time>2019-04-13T09:11:40Z</time>
      </trkpt>
      <trkpt lat="44.16738" lon="4.6627">
        <ele>109.24694824219</ele>
        <time>2019-04-13T09:11:49Z</time>
      </trkpt>
      <trkpt lat="44.16736" lon="4.6627">
        <ele>108.76623535156</ele>
        <time>2019-04-13T09:12:09Z</time>
      </trkpt>
      <trkpt lat="44.16735" lon="4.6627">
        <ele>109.72766113281</ele>
        <time>2019-04-13T09:12:38Z</time>
      </trkpt>
      <trkpt lat="44.16734" lon="4.66257">
        <ele>111.16955566406</ele>
        <time>2019-04-13T09:12:44Z</time>
      </trkpt>
      <trkpt lat="44.16732" lon="4.66253">
        <ele>111.65026855469</ele>
        <time>2019-04-13T09:12:46Z</time>
      </trkpt>
      <trkpt lat="44.1673" lon="4.6624">
        <ele>113.09228515625</ele>
        <time>2019-04-13T09:12:51Z</time>
      </trkpt>
      <trkpt lat="44.16727" lon="4.66231">
        <ele>114.5341796875</ele>
        <time>2019-04-13T09:12:55Z</time>
      </trkpt>
      <trkpt lat="44.16726" lon="4.66218">
        <ele>114.5341796875</ele>
        <time>2019-04-13T09:13:01Z</time>
      </trkpt>
      <trkpt lat="44.16727" lon="4.66203">
        <ele>114.5341796875</ele>
        <time>2019-04-13T09:13:07Z</time>
      </trkpt>
      <trkpt lat="44.16729" lon="4.66195">
        <ele>116.45678710938</ele>
        <time>2019-04-13T09:13:10Z</time>
      </trkpt>
      <trkpt lat="44.1673" lon="4.66193">
        <ele>116.9375</ele>
        <time>2019-04-13T09:13:14Z</time>
      </trkpt>
      <trkpt lat="44.1673" lon="4.66162">
        <ele>117.89880371094</ele>
        <time>2019-04-13T09:13:25Z</time>
      </trkpt>
      <trkpt lat="44.16731" lon="4.6615">
        <ele>117.89880371094</ele>
        <time>2019-04-13T09:13:30Z</time>
      </trkpt>
      <trkpt lat="44.16729" lon="4.66144">
        <ele>118.37939453125</ele>
        <time>2019-04-13T09:13:33Z</time>
      </trkpt>
      <trkpt lat="44.16725" lon="4.66137">
        <ele>118.86010742188</ele>
        <time>2019-04-13T09:13:37Z</time>
      </trkpt>
      <trkpt lat="44.16726" lon="4.66127">
        <ele>119.3408203125</ele>
        <time>2019-04-13T09:13:42Z</time>
      </trkpt>
      <trkpt lat="44.16719" lon="4.66101">
        <ele>120.78283691406</ele>
        <time>2019-04-13T09:13:55Z</time>
      </trkpt>
      <trkpt lat="44.16722" lon="4.66087">
        <ele>124.14733886719</ele>
        <time>2019-04-13T09:14:02Z</time>
      </trkpt>
      <trkpt lat="44.16726" lon="4.66081">
        <ele>126.55065917969</ele>
        <time>2019-04-13T09:14:09Z</time>
      </trkpt>
      <trkpt lat="44.16729" lon="4.66072">
        <ele>126.55065917969</ele>
        <time>2019-04-13T09:14:19Z</time>
      </trkpt>
      <trkpt lat="44.16733" lon="4.66052">
        <ele>127.03137207031</ele>
        <time>2019-04-13T09:14:29Z</time>
      </trkpt>
      <trkpt lat="44.16733" lon="4.66047">
        <ele>126.06994628906</ele>
        <time>2019-04-13T09:14:31Z</time>
      </trkpt>
      <trkpt lat="44.16733" lon="4.66045">
        <ele>126.06994628906</ele>
        <time>2019-04-13T09:14:32Z</time>
      </trkpt>
      <trkpt lat="44.16727" lon="4.66034">
        <ele>126.06994628906</ele>
        <time>2019-04-13T09:14:38Z</time>
      </trkpt>
      <trkpt lat="44.16733" lon="4.66026">
        <ele>125.58935546875</ele>
        <time>2019-04-13T09:14:43Z</time>
      </trkpt>
      <trkpt lat="44.16741" lon="4.6603">
        <ele>125.10876464844</ele>
        <time>2019-04-13T09:14:48Z</time>
      </trkpt>
      <trkpt lat="44.16746" lon="4.66032">
        <ele>125.10876464844</ele>
        <time>2019-04-13T09:14:52Z</time>
      </trkpt>
      <trkpt lat="44.16751" lon="4.66035">
        <ele>125.10876464844</ele>
        <time>2019-04-13T09:14:57Z</time>
      </trkpt>
      <trkpt lat="44.16768" lon="4.66042">
        <ele>125.58935546875</ele>
        <time>2019-04-13T09:15:10Z</time>
      </trkpt>
      <trkpt lat="44.16787" lon="4.66052">
        <ele>127.51196289062</ele>
        <time>2019-04-13T09:15:24Z</time>
      </trkpt>
      <trkpt lat="44.16796" lon="4.66059">
        <ele>128.9541015625</ele>
        <time>2019-04-13T09:15:31Z</time>
      </trkpt>
      <trkpt lat="44.16819" lon="4.66072">
        <ele>128.9541015625</ele>
        <time>2019-04-13T09:15:46Z</time>
      </trkpt>
      <trkpt lat="44.16828" lon="4.66079">
        <ele>129.43469238281</ele>
        <time>2019-04-13T09:15:52Z</time>
      </trkpt>
      <trkpt lat="44.16833" lon="4.66083">
        <ele>129.91528320312</ele>
        <time>2019-04-13T09:15:56Z</time>
      </trkpt>
      <trkpt lat="44.16842" lon="4.66088">
        <ele>132.31860351562</ele>
        <time>2019-04-13T09:16:02Z</time>
      </trkpt>
      <trkpt lat="44.16868" lon="4.66102">
        <ele>132.79931640625</ele>
        <time>2019-04-13T09:16:19Z</time>
      </trkpt>
      <trkpt lat="44.16895" lon="4.66119">
        <ele>130.39599609375</ele>
        <time>2019-04-13T09:16:35Z</time>
      </trkpt>
      <trkpt lat="44.16912" lon="4.66124">
        <ele>129.91528320312</ele>
        <time>2019-04-13T09:16:41Z</time>
      </trkpt>
      <trkpt lat="44.16922" lon="4.66119">
        <ele>126.55065917969</ele>
        <time>2019-04-13T09:16:44Z</time>
      </trkpt>
      <trkpt lat="44.16936" lon="4.66105">
        <ele>125.58935546875</ele>
        <time>2019-04-13T09:16:47Z</time>
      </trkpt>
      <trkpt lat="44.16951" lon="4.66088">
        <ele>127.51196289062</ele>
        <time>2019-04-13T09:16:55Z</time>
      </trkpt>
      <trkpt lat="44.16973" lon="4.66055">
        <ele>126.55065917969</ele>
        <time>2019-04-13T09:17:09Z</time>
      </trkpt>
      <trkpt lat="44.16975" lon="4.66051">
        <ele>126.55065917969</ele>
        <time>2019-04-13T09:17:10Z</time>
      </trkpt>
      <trkpt lat="44.16983" lon="4.66033">
        <ele>125.10876464844</ele>
        <time>2019-04-13T09:17:14Z</time>
      </trkpt>
      <trkpt lat="44.1701" lon="4.65999">
        <ele>126.55065917969</ele>
        <time>2019-04-13T09:17:25Z</time>
      </trkpt>
      <trkpt lat="44.17012" lon="4.65997">
        <ele>127.03137207031</ele>
        <time>2019-04-13T09:17:26Z</time>
      </trkpt>
      <trkpt lat="44.17014" lon="4.65996">
        <ele>127.03137207031</ele>
        <time>2019-04-13T09:17:27Z</time>
      </trkpt>
      <trkpt lat="44.17023" lon="4.65988">
        <ele>128.47338867188</ele>
        <time>2019-04-13T09:17:32Z</time>
      </trkpt>
      <trkpt lat="44.17025" lon="4.65985">
        <ele>129.91528320312</ele>
        <time>2019-04-13T09:17:34Z</time>
      </trkpt>
      <trkpt lat="44.1704" lon="4.65972">
        <ele>132.79931640625</ele>
        <time>2019-04-13T09:17:46Z</time>
      </trkpt>
      <trkpt lat="44.17045" lon="4.65964">
        <ele>133.27990722656</ele>
        <time>2019-04-13T09:17:52Z</time>
      </trkpt>
      <trkpt lat="44.17049" lon="4.65955">
        <ele>135.68310546875</ele>
        <time>2019-04-13T09:17:57Z</time>
      </trkpt>
      <trkpt lat="44.17054" lon="4.65945">
        <ele>133.76049804688</ele>
        <time>2019-04-13T09:18:01Z</time>
      </trkpt>
      <trkpt lat="44.1707" lon="4.65922">
        <ele>130.87670898438</ele>
        <time>2019-04-13T09:18:08Z</time>
      </trkpt>
      <trkpt lat="44.17082" lon="4.65908">
        <ele>127.51196289062</ele>
        <time>2019-04-13T09:18:11Z</time>
      </trkpt>
      <trkpt lat="44.17097" lon="4.65874">
        <ele>125.10876464844</ele>
        <time>2019-04-13T09:18:15Z</time>
      </trkpt>
      <trkpt lat="44.17104" lon="4.65864">
        <ele>123.66674804688</ele>
        <time>2019-04-13T09:18:16Z</time>
      </trkpt>
      <trkpt lat="44.17109" lon="4.65846">
        <ele>124.14733886719</ele>
        <time>2019-04-13T09:18:18Z</time>
      </trkpt>
      <trkpt lat="44.17117" lon="4.65817">
        <ele>127.51196289062</ele>
        <time>2019-04-13T09:18:23Z</time>
      </trkpt>
      <trkpt lat="44.17119" lon="4.65809">
        <ele>130.87670898438</ele>
        <time>2019-04-13T09:18:26Z</time>
      </trkpt>
      <trkpt lat="44.1712" lon="4.65807">
        <ele>130.87670898438</ele>
        <time>2019-04-13T09:18:27Z</time>
      </trkpt>
      <trkpt lat="44.17125" lon="4.65787">
        <ele>132.79931640625</ele>
        <time>2019-04-13T09:18:37Z</time>
      </trkpt>
      <trkpt lat="44.1713" lon="4.65776">
        <ele>133.27990722656</ele>
        <time>2019-04-13T09:18:43Z</time>
      </trkpt>
      <trkpt lat="44.17145" lon="4.65748">
        <ele>133.76049804688</ele>
        <time>2019-04-13T09:18:57Z</time>
      </trkpt>
      <trkpt lat="44.17161" lon="4.65714">
        <ele>133.76049804688</ele>
        <time>2019-04-13T09:19:11Z</time>
      </trkpt>
      <trkpt lat="44.17164" lon="4.65706">
        <ele>134.2412109375</ele>
        <time>2019-04-13T09:19:15Z</time>
      </trkpt>
      <trkpt lat="44.17159" lon="4.657">
        <ele>134.72192382812</ele>
        <time>2019-04-13T09:19:19Z</time>
      </trkpt>
      <trkpt lat="44.17144" lon="4.65694">
        <ele>135.20251464844</ele>
        <time>2019-04-13T09:19:26Z</time>
      </trkpt>
      <trkpt lat="44.1714" lon="4.65696">
        <ele>132.31860351562</ele>
        <time>2019-04-13T09:19:28Z</time>
      </trkpt>
      <trkpt lat="44.17135" lon="4.65701">
        <ele>132.79931640625</ele>
        <time>2019-04-13T09:19:36Z</time>
      </trkpt>
      <trkpt lat="44.17129" lon="4.65705">
        <ele>131.837890625</ele>
        <time>2019-04-13T09:19:40Z</time>
      </trkpt>
      <trkpt lat="44.17111" lon="4.65697">
        <ele>127.99255371094</ele>
        <time>2019-04-13T09:19:46Z</time>
      </trkpt>
      <trkpt lat="44.1713" lon="4.65654">
        <ele>124.62805175781</ele>
        <time>2019-04-13T09:19:57Z</time>
      </trkpt>
      <trkpt lat="44.17148" lon="4.65636">
        <ele>123.18615722656</ele>
        <time>2019-04-13T09:20:01Z</time>
      </trkpt>
      <trkpt lat="44.17164" lon="4.65615">
        <ele>120.78283691406</ele>
        <time>2019-04-13T09:20:05Z</time>
      </trkpt>
      <trkpt lat="44.17165" lon="4.65579">
        <ele>115.97619628906</ele>
        <time>2019-04-13T09:20:11Z</time>
      </trkpt>
      <trkpt lat="44.17165" lon="4.65576">
        <ele>115.97619628906</ele>
        <time>2019-04-13T09:20:12Z</time>
      </trkpt>
      <trkpt lat="44.17163" lon="4.65565">
        <ele>112.13098144531</ele>
        <time>2019-04-13T09:20:15Z</time>
      </trkpt>
      <trkpt lat="44.17153" lon="4.65534">
        <ele>109.24694824219</ele>
        <time>2019-04-13T09:20:19Z</time>
      </trkpt>
      <trkpt lat="44.17152" lon="4.65521">
        <ele>109.24694824219</ele>
        <time>2019-04-13T09:20:21Z</time>
      </trkpt>
      <trkpt lat="44.17153" lon="4.655">
        <ele>110.20825195312</ele>
        <time>2019-04-13T09:20:32Z</time>
      </trkpt>
      <trkpt lat="44.17154" lon="4.65491">
        <ele>109.24694824219</ele>
        <time>2019-04-13T09:20:51Z</time>
      </trkpt>
      <trkpt lat="44.17153" lon="4.65467">
        <ele>108.76623535156</ele>
        <time>2019-04-13T09:20:57Z</time>
      </trkpt>
      <trkpt lat="44.17149" lon="4.6546">
        <ele>109.24694824219</ele>
        <time>2019-04-13T09:20:59Z</time>
      </trkpt>
      <trkpt lat="44.17147" lon="4.65453">
        <ele>107.32434082031</ele>
        <time>2019-04-13T09:21:01Z</time>
      </trkpt>
      <trkpt lat="44.17143" lon="4.65443">
        <ele>106.84362792969</ele>
        <time>2019-04-13T09:21:04Z</time>
      </trkpt>
      <trkpt lat="44.1714" lon="4.65431">
        <ele>106.36303710938</ele>
        <time>2019-04-13T09:21:08Z</time>
      </trkpt>
      <trkpt lat="44.17131" lon="4.6543">
        <ele>107.32434082031</ele>
        <time>2019-04-13T09:21:12Z</time>
      </trkpt>
      <trkpt lat="44.1712" lon="4.65434">
        <ele>106.36303710938</ele>
        <time>2019-04-13T09:21:17Z</time>
      </trkpt>
      <trkpt lat="44.17082" lon="4.65443">
        <ele>105.88244628906</ele>
        <time>2019-04-13T09:21:28Z</time>
      </trkpt>
      <trkpt lat="44.17074" lon="4.65443">
        <ele>103.47900390625</ele>
        <time>2019-04-13T09:21:31Z</time>
      </trkpt>
      <trkpt lat="44.17068" lon="4.65449">
        <ele>100.59509277344</ele>
        <time>2019-04-13T09:21:35Z</time>
      </trkpt>
      <trkpt lat="44.17052" lon="4.65445">
        <ele>97.23046875</ele>
        <time>2019-04-13T09:21:40Z</time>
      </trkpt>
      <trkpt lat="44.17025" lon="4.65448">
        <ele>94.8271484375</ele>
        <time>2019-04-13T09:21:47Z</time>
      </trkpt>
      <trkpt lat="44.16996" lon="4.65454">
        <ele>93.865844726562</ele>
        <time>2019-04-13T09:21:57Z</time>
      </trkpt>
      <trkpt lat="44.16978" lon="4.65456">
        <ele>93.865844726562</ele>
        <time>2019-04-13T09:22:04Z</time>
      </trkpt>
      <trkpt lat="44.16954" lon="4.65462">
        <ele>93.865844726562</ele>
        <time>2019-04-13T09:22:13Z</time>
      </trkpt>
      <trkpt lat="44.16943" lon="4.65464">
        <ele>96.269287109375</ele>
        <time>2019-04-13T09:22:17Z</time>
      </trkpt>
      <trkpt lat="44.1691" lon="4.65464">
        <ele>94.8271484375</ele>
        <time>2019-04-13T09:22:28Z</time>
      </trkpt>
      <trkpt lat="44.16896" lon="4.65478">
        <ele>97.23046875</ele>
        <time>2019-04-13T09:22:36Z</time>
      </trkpt>
      <trkpt lat="44.16888" lon="4.65478">
        <ele>98.19189453125</ele>
        <time>2019-04-13T09:22:40Z</time>
      </trkpt>
      <trkpt lat="44.16884" lon="4.65479">
        <ele>98.19189453125</ele>
        <time>2019-04-13T09:22:42Z</time>
      </trkpt>
      <trkpt lat="44.1688" lon="4.65478">
        <ele>98.672485351562</ele>
        <time>2019-04-13T09:22:44Z</time>
      </trkpt>
      <trkpt lat="44.16869" lon="4.6548">
        <ele>98.19189453125</ele>
        <time>2019-04-13T09:22:49Z</time>
      </trkpt>
      <trkpt lat="44.1686" lon="4.65492">
        <ele>99.153076171875</ele>
        <time>2019-04-13T09:22:56Z</time>
      </trkpt>
      <trkpt lat="44.16853" lon="4.65502">
        <ele>99.6337890625</ele>
        <time>2019-04-13T09:23:03Z</time>
      </trkpt>
      <trkpt lat="44.16852" lon="4.65512">
        <ele>101.07568359375</ele>
        <time>2019-04-13T09:23:07Z</time>
      </trkpt>
      <trkpt lat="44.1685" lon="4.65525">
        <ele>102.037109375</ele>
        <time>2019-04-13T09:23:18Z</time>
      </trkpt>
      <trkpt lat="44.1684" lon="4.65534">
        <ele>101.55639648438</ele>
        <time>2019-04-13T09:24:02Z</time>
      </trkpt>
      <trkpt lat="44.16839" lon="4.65543">
        <ele>102.99829101562</ele>
        <time>2019-04-13T09:24:06Z</time>
      </trkpt>
      <trkpt lat="44.16835" lon="4.65572">
        <ele>104.4404296875</ele>
        <time>2019-04-13T09:24:18Z</time>
      </trkpt>
      <trkpt lat="44.16835" lon="4.65575">
        <ele>105.40173339844</ele>
        <time>2019-04-13T09:24:20Z</time>
      </trkpt>
      <trkpt lat="44.16823" lon="4.65597">
        <ele>107.80505371094</ele>
        <time>2019-04-13T09:24:31Z</time>
      </trkpt>
      <trkpt lat="44.16816" lon="4.65605">
        <ele>108.28564453125</ele>
        <time>2019-04-13T09:24:35Z</time>
      </trkpt>
      <trkpt lat="44.16813" lon="4.65627">
        <ele>108.28564453125</ele>
        <time>2019-04-13T09:24:43Z</time>
      </trkpt>
      <trkpt lat="44.1681" lon="4.65636">
        <ele>108.28564453125</ele>
        <time>2019-04-13T09:24:47Z</time>
      </trkpt>
      <trkpt lat="44.16809" lon="4.6564">
        <ele>108.28564453125</ele>
        <time>2019-04-13T09:24:49Z</time>
      </trkpt>
      <trkpt lat="44.1681" lon="4.65647">
        <ele>108.28564453125</ele>
        <time>2019-04-13T09:24:52Z</time>
      </trkpt>
      <trkpt lat="44.16804" lon="4.65664">
        <ele>108.28564453125</ele>
        <time>2019-04-13T09:24:58Z</time>
      </trkpt>
      <trkpt lat="44.16815" lon="4.65676">
        <ele>106.36303710938</ele>
        <time>2019-04-13T09:25:04Z</time>
      </trkpt>
      <trkpt lat="44.1682" lon="4.65688">
        <ele>103.95971679688</ele>
        <time>2019-04-13T09:25:08Z</time>
      </trkpt>
      <trkpt lat="44.16822" lon="4.65696">
        <ele>100.59509277344</ele>
        <time>2019-04-13T09:25:12Z</time>
      </trkpt>
      <trkpt lat="44.16824" lon="4.65698">
        <ele>99.153076171875</ele>
        <time>2019-04-13T09:25:13Z</time>
      </trkpt>
      <trkpt lat="44.16833" lon="4.65709">
        <ele>97.711181640625</ele>
        <time>2019-04-13T09:25:18Z</time>
      </trkpt>
      <trkpt lat="44.16833" lon="4.65714">
        <ele>97.23046875</ele>
        <time>2019-04-13T09:25:24Z</time>
      </trkpt>
      <trkpt lat="44.16827" lon="4.65717">
        <ele>96.269287109375</ele>
        <time>2019-04-13T09:25:42Z</time>
      </trkpt>
      <trkpt lat="44.1681" lon="4.65711">
        <ele>96.749877929688</ele>
        <time>2019-04-13T09:25:55Z</time>
      </trkpt>
      <trkpt lat="44.16787" lon="4.65707">
        <ele>98.19189453125</ele>
        <time>2019-04-13T09:26:08Z</time>
      </trkpt>
      <trkpt lat="44.16785" lon="4.65707">
        <ele>96.749877929688</ele>
        <time>2019-04-13T09:26:09Z</time>
      </trkpt>
      <trkpt lat="44.16775" lon="4.65702">
        <ele>95.788452148438</ele>
        <time>2019-04-13T09:26:12Z</time>
      </trkpt>
      <trkpt lat="44.1676" lon="4.65689">
        <ele>94.8271484375</ele>
        <time>2019-04-13T09:26:16Z</time>
      </trkpt>
      <trkpt lat="44.16761" lon="4.65652">
        <ele>92.904541015625</ele>
        <time>2019-04-13T09:26:24Z</time>
      </trkpt>
      <trkpt lat="44.16763" lon="4.65643">
        <ele>91.462524414062</ele>
        <time>2019-04-13T09:26:26Z</time>
      </trkpt>
      <trkpt lat="44.16765" lon="4.65626">
        <ele>90.98193359375</ele>
        <time>2019-04-13T09:26:28Z</time>
      </trkpt>
      <trkpt lat="44.16761" lon="4.65612">
        <ele>90.501342773438</ele>
        <time>2019-04-13T09:26:30Z</time>
      </trkpt>
      <trkpt lat="44.16757" lon="4.65602">
        <ele>89.539916992188</ele>
        <time>2019-04-13T09:26:32Z</time>
      </trkpt>
      <trkpt lat="44.16753" lon="4.6559">
        <ele>88.098022460938</ele>
        <time>2019-04-13T09:26:35Z</time>
      </trkpt>
      <trkpt lat="44.16746" lon="4.65573">
        <ele>87.136596679688</ele>
        <time>2019-04-13T09:26:40Z</time>
      </trkpt>
      <trkpt lat="44.16739" lon="4.6556">
        <ele>82.810791015625</ele>
        <time>2019-04-13T09:26:46Z</time>
      </trkpt>
      <trkpt lat="44.16736" lon="4.65555">
        <ele>81.368774414062</ele>
        <time>2019-04-13T09:26:57Z</time>
      </trkpt>
      <trkpt lat="44.16732" lon="4.65548">
        <ele>80.88818359375</ele>
        <time>2019-04-13T09:27:01Z</time>
      </trkpt>
      <trkpt lat="44.16731" lon="4.65534">
        <ele>76.081420898438</ele>
        <time>2019-04-13T09:27:05Z</time>
      </trkpt>
      <trkpt lat="44.16737" lon="4.65503">
        <ele>75.600830078125</ele>
        <time>2019-04-13T09:27:14Z</time>
      </trkpt>
      <trkpt lat="44.16742" lon="4.65476">
        <ele>73.197631835938</ele>
        <time>2019-04-13T09:27:18Z</time>
      </trkpt>
      <trkpt lat="44.1675" lon="4.65447">
        <ele>70.794189453125</ele>
        <time>2019-04-13T09:27:22Z</time>
      </trkpt>
      <trkpt lat="44.1678" lon="4.65424">
        <ele>70.794189453125</ele>
        <time>2019-04-13T09:27:28Z</time>
      </trkpt>
      <trkpt lat="44.16791" lon="4.65415">
        <ele>70.794189453125</ele>
        <time>2019-04-13T09:27:31Z</time>
      </trkpt>
      <trkpt lat="44.16828" lon="4.65396">
        <ele>70.794189453125</ele>
        <time>2019-04-13T09:27:42Z</time>
      </trkpt>
      <trkpt lat="44.16851" lon="4.65368">
        <ele>72.236206054688</ele>
        <time>2019-04-13T09:27:52Z</time>
      </trkpt>
      <trkpt lat="44.16869" lon="4.65361">
        <ele>73.197631835938</ele>
        <time>2019-04-13T09:27:59Z</time>
      </trkpt>
      <trkpt lat="44.16874" lon="4.65338">
        <ele>72.236206054688</ele>
        <time>2019-04-13T09:28:09Z</time>
      </trkpt>
      <trkpt lat="44.16877" lon="4.65337">
        <ele>73.197631835938</ele>
        <time>2019-04-13T09:28:15Z</time>
      </trkpt>
      <trkpt lat="44.16876" lon="4.65322">
        <ele>72.716918945312</ele>
        <time>2019-04-13T09:28:23Z</time>
      </trkpt>
      <trkpt lat="44.1682" lon="4.6528">
        <ele>70.794189453125</ele>
        <time>2019-04-13T09:28:42Z</time>
      </trkpt>
      <trkpt lat="44.16792" lon="4.65249">
        <ele>69.832885742188</ele>
        <time>2019-04-13T09:28:56Z</time>
      </trkpt>
      <trkpt lat="44.16786" lon="4.65229">
        <ele>68.87158203125</ele>
        <time>2019-04-13T09:29:01Z</time>
      </trkpt>
      <trkpt lat="44.16794" lon="4.6522">
        <ele>70.3134765625</ele>
        <time>2019-04-13T09:29:05Z</time>
      </trkpt>
      <trkpt lat="44.16816" lon="4.65206">
        <ele>70.3134765625</ele>
        <time>2019-04-13T09:29:16Z</time>
      </trkpt>
      <trkpt lat="44.16832" lon="4.65195">
        <ele>72.236206054688</ele>
        <time>2019-04-13T09:29:24Z</time>
      </trkpt>
      <trkpt lat="44.16843" lon="4.65209">
        <ele>75.120239257812</ele>
        <time>2019-04-13T09:29:31Z</time>
      </trkpt>
      <trkpt lat="44.16858" lon="4.65225">
        <ele>76.562133789062</ele>
        <time>2019-04-13T09:29:40Z</time>
      </trkpt>
      <trkpt lat="44.16866" lon="4.65247">
        <ele>78.004028320312</ele>
        <time>2019-04-13T09:29:49Z</time>
      </trkpt>
      <trkpt lat="44.1689" lon="4.65272">
        <ele>79.446044921875</ele>
        <time>2019-04-13T09:30:03Z</time>
      </trkpt>
      <trkpt lat="44.16914" lon="4.65288">
        <ele>80.88818359375</ele>
        <time>2019-04-13T09:30:15Z</time>
      </trkpt>
      <trkpt lat="44.16918" lon="4.65293">
        <ele>81.849365234375</ele>
        <time>2019-04-13T09:30:28Z</time>
      </trkpt>
      <trkpt lat="44.16926" lon="4.65292">
        <ele>83.77197265625</ele>
        <time>2019-04-13T09:30:43Z</time>
      </trkpt>
      <trkpt lat="44.1693" lon="4.65291">
        <ele>85.213989257812</ele>
        <time>2019-04-13T09:30:48Z</time>
      </trkpt>
      <trkpt lat="44.16936" lon="4.6529">
        <ele>87.136596679688</ele>
        <time>2019-04-13T09:30:56Z</time>
      </trkpt>
      <trkpt lat="44.16941" lon="4.6529">
        <ele>87.6171875</ele>
        <time>2019-04-13T09:31:12Z</time>
      </trkpt>
      <trkpt lat="44.16943" lon="4.65292">
        <ele>87.6171875</ele>
        <time>2019-04-13T09:31:21Z</time>
      </trkpt>
      <trkpt lat="44.16949" lon="4.65298">
        <ele>87.6171875</ele>
        <time>2019-04-13T09:31:26Z</time>
      </trkpt>
      <trkpt lat="44.16956" lon="4.65302">
        <ele>90.020629882812</ele>
        <time>2019-04-13T09:31:31Z</time>
      </trkpt>
      <trkpt lat="44.16972" lon="4.65309">
        <ele>90.501342773438</ele>
        <time>2019-04-13T09:31:42Z</time>
      </trkpt>
      <trkpt lat="44.16994" lon="4.65307">
        <ele>90.501342773438</ele>
        <time>2019-04-13T09:31:55Z</time>
      </trkpt>
      <trkpt lat="44.16996" lon="4.65306">
        <ele>91.943237304688</ele>
        <time>2019-04-13T09:31:57Z</time>
      </trkpt>
      <trkpt lat="44.17002" lon="4.65302">
        <ele>91.943237304688</ele>
        <time>2019-04-13T09:32:02Z</time>
      </trkpt>
      <trkpt lat="44.17012" lon="4.65299">
        <ele>93.385131835938</ele>
        <time>2019-04-13T09:32:07Z</time>
      </trkpt>
      <trkpt lat="44.17034" lon="4.65293">
        <ele>94.346557617188</ele>
        <time>2019-04-13T09:32:20Z</time>
      </trkpt>
      <trkpt lat="44.17053" lon="4.6529">
        <ele>96.269287109375</ele>
        <time>2019-04-13T09:32:33Z</time>
      </trkpt>
      <trkpt lat="44.17057" lon="4.65288">
        <ele>96.269287109375</ele>
        <time>2019-04-13T09:32:35Z</time>
      </trkpt>
      <trkpt lat="44.17076" lon="4.65291">
        <ele>98.19189453125</ele>
        <time>2019-04-13T09:32:47Z</time>
      </trkpt>
      <trkpt lat="44.17091" lon="4.65301">
        <ele>99.153076171875</ele>
        <time>2019-04-13T09:32:58Z</time>
      </trkpt>
      <trkpt lat="44.17095" lon="4.65303">
        <ele>99.6337890625</ele>
        <time>2019-04-13T09:33:00Z</time>
      </trkpt>
      <trkpt lat="44.171" lon="4.65306">
        <ele>101.55639648438</ele>
        <time>2019-04-13T09:33:04Z</time>
      </trkpt>
      <trkpt lat="44.17106" lon="4.65331">
        <ele>102.99829101562</ele>
        <time>2019-04-13T09:33:19Z</time>
      </trkpt>
      <trkpt lat="44.1711" lon="4.65337">
        <ele>103.47900390625</ele>
        <time>2019-04-13T09:33:23Z</time>
      </trkpt>
      <trkpt lat="44.17116" lon="4.65347">
        <ele>104.4404296875</ele>
        <time>2019-04-13T09:33:30Z</time>
      </trkpt>
      <trkpt lat="44.17133" lon="4.65368">
        <ele>104.4404296875</ele>
        <time>2019-04-13T09:33:45Z</time>
      </trkpt>
      <trkpt lat="44.17144" lon="4.65397">
        <ele>103.95971679688</ele>
        <time>2019-04-13T09:33:56Z</time>
      </trkpt>
      <trkpt lat="44.17152" lon="4.65405">
        <ele>102.99829101562</ele>
        <time>2019-04-13T09:34:00Z</time>
      </trkpt>
      <trkpt lat="44.17168" lon="4.65416">
        <ele>103.47900390625</ele>
        <time>2019-04-13T09:34:10Z</time>
      </trkpt>
      <trkpt lat="44.17195" lon="4.65416">
        <ele>102.99829101562</ele>
        <time>2019-04-13T09:34:23Z</time>
      </trkpt>
      <trkpt lat="44.17214" lon="4.65417">
        <ele>99.6337890625</ele>
        <time>2019-04-13T09:34:30Z</time>
      </trkpt>
      <trkpt lat="44.17222" lon="4.65412">
        <ele>99.153076171875</ele>
        <time>2019-04-13T09:34:32Z</time>
      </trkpt>
      <trkpt lat="44.17248" lon="4.65405">
        <ele>98.672485351562</ele>
        <time>2019-04-13T09:34:42Z</time>
      </trkpt>
      <trkpt lat="44.17275" lon="4.65392">
        <ele>100.11450195312</ele>
        <time>2019-04-13T09:34:56Z</time>
      </trkpt>
      <trkpt lat="44.17289" lon="4.65355">
        <ele>100.11450195312</ele>
        <time>2019-04-13T09:35:10Z</time>
      </trkpt>
      <trkpt lat="44.17291" lon="4.65345">
        <ele>101.07568359375</ele>
        <time>2019-04-13T09:35:14Z</time>
      </trkpt>
      <trkpt lat="44.17294" lon="4.65336">
        <ele>100.59509277344</ele>
        <time>2019-04-13T09:35:18Z</time>
      </trkpt>
      <trkpt lat="44.17295" lon="4.65326">
        <ele>102.99829101562</ele>
        <time>2019-04-13T09:35:22Z</time>
      </trkpt>
      <trkpt lat="44.17295" lon="4.65287">
        <ele>103.95971679688</ele>
        <time>2019-04-13T09:35:37Z</time>
      </trkpt>
      <trkpt lat="44.17297" lon="4.65246">
        <ele>103.47900390625</ele>
        <time>2019-04-13T09:35:50Z</time>
      </trkpt>
      <trkpt lat="44.17296" lon="4.65212">
        <ele>105.88244628906</ele>
        <time>2019-04-13T09:36:01Z</time>
      </trkpt>
      <trkpt lat="44.17286" lon="4.6517">
        <ele>105.88244628906</ele>
        <time>2019-04-13T09:36:15Z</time>
      </trkpt>
      <trkpt lat="44.1727" lon="4.65135">
        <ele>104.92102050781</ele>
        <time>2019-04-13T09:36:28Z</time>
      </trkpt>
      <trkpt lat="44.17236" lon="4.6511">
        <ele>106.36303710938</ele>
        <time>2019-04-13T09:36:46Z</time>
      </trkpt>
      <trkpt lat="44.17211" lon="4.65093">
        <ele>107.32434082031</ele>
        <time>2019-04-13T09:36:58Z</time>
      </trkpt>
      <trkpt lat="44.17182" lon="4.65078">
        <ele>104.4404296875</ele>
        <time>2019-04-13T09:37:07Z</time>
      </trkpt>
      <trkpt lat="44.17161" lon="4.65079">
        <ele>102.037109375</ele>
        <time>2019-04-13T09:37:12Z</time>
      </trkpt>
      <trkpt lat="44.17115" lon="4.65061">
        <ele>99.6337890625</ele>
        <time>2019-04-13T09:37:22Z</time>
      </trkpt>
      <trkpt lat="44.17101" lon="4.65059">
        <ele>97.711181640625</ele>
        <time>2019-04-13T09:37:26Z</time>
      </trkpt>
      <trkpt lat="44.17067" lon="4.65031">
        <ele>96.269287109375</ele>
        <time>2019-04-13T09:37:36Z</time>
      </trkpt>
      <trkpt lat="44.1705" lon="4.65009">
        <ele>95.307739257812</ele>
        <time>2019-04-13T09:37:42Z</time>
      </trkpt>
      <trkpt lat="44.17048" lon="4.64972">
        <ele>92.423950195312</ele>
        <time>2019-04-13T09:37:49Z</time>
      </trkpt>
      <trkpt lat="44.17045" lon="4.64959">
        <ele>91.462524414062</ele>
        <time>2019-04-13T09:37:51Z</time>
      </trkpt>
      <trkpt lat="44.17038" lon="4.64945">
        <ele>90.501342773438</ele>
        <time>2019-04-13T09:37:54Z</time>
      </trkpt>
      <trkpt lat="44.17021" lon="4.64923">
        <ele>85.694580078125</ele>
        <time>2019-04-13T09:37:59Z</time>
      </trkpt>
      <trkpt lat="44.17009" lon="4.64903">
        <ele>82.810791015625</ele>
        <time>2019-04-13T09:38:05Z</time>
      </trkpt>
      <trkpt lat="44.1701" lon="4.64901">
        <ele>81.849365234375</ele>
        <time>2019-04-13T09:38:06Z</time>
      </trkpt>
      <trkpt lat="44.17024" lon="4.64879">
        <ele>81.368774414062</ele>
        <time>2019-04-13T09:38:20Z</time>
      </trkpt>
      <trkpt lat="44.17032" lon="4.6487">
        <ele>81.849365234375</ele>
        <time>2019-04-13T09:38:23Z</time>
      </trkpt>
      <trkpt lat="44.17056" lon="4.64834">
        <ele>80.88818359375</ele>
        <time>2019-04-13T09:38:33Z</time>
      </trkpt>
      <trkpt lat="44.17065" lon="4.64822">
        <ele>80.88818359375</ele>
        <time>2019-04-13T09:38:36Z</time>
      </trkpt>
      <trkpt lat="44.17087" lon="4.64797">
        <ele>79.446044921875</ele>
        <time>2019-04-13T09:38:45Z</time>
      </trkpt>
      <trkpt lat="44.17111" lon="4.64765">
        <ele>77.5234375</ele>
        <time>2019-04-13T09:38:56Z</time>
      </trkpt>
      <trkpt lat="44.1714" lon="4.64753">
        <ele>77.5234375</ele>
        <time>2019-04-13T09:39:05Z</time>
      </trkpt>
      <trkpt lat="44.17166" lon="4.64734">
        <ele>76.081420898438</ele>
        <time>2019-04-13T09:39:13Z</time>
      </trkpt>
      <trkpt lat="44.17184" lon="4.6471">
        <ele>72.716918945312</ele>
        <time>2019-04-13T09:39:19Z</time>
      </trkpt>
      <trkpt lat="44.17195" lon="4.64699">
        <ele>69.352294921875</ele>
        <time>2019-04-13T09:39:22Z</time>
      </trkpt>
      <trkpt lat="44.17222" lon="4.64675">
        <ele>65.987670898438</ele>
        <time>2019-04-13T09:39:27Z</time>
      </trkpt>
      <trkpt lat="44.17227" lon="4.64668">
        <ele>65.507080078125</ele>
        <time>2019-04-13T09:39:34Z</time>
      </trkpt>
      <trkpt lat="44.17245" lon="4.64672">
        <ele>64.065063476562</ele>
        <time>2019-04-13T09:39:45Z</time>
      </trkpt>
      <trkpt lat="44.17263" lon="4.64674">
        <ele>63.584350585938</ele>
        <time>2019-04-13T09:39:49Z</time>
      </trkpt>
      <trkpt lat="44.17275" lon="4.64679">
        <ele>61.181030273438</ele>
        <time>2019-04-13T09:39:52Z</time>
      </trkpt>
      <trkpt lat="44.17279" lon="4.6468">
        <ele>61.181030273438</ele>
        <time>2019-04-13T09:39:53Z</time>
      </trkpt>
      <trkpt lat="44.17291" lon="4.64681">
        <ele>59.739135742188</ele>
        <time>2019-04-13T09:39:56Z</time>
      </trkpt>
      <trkpt lat="44.17293" lon="4.64653">
        <ele>57.816528320312</ele>
        <time>2019-04-13T09:40:03Z</time>
      </trkpt>
      <trkpt lat="44.17304" lon="4.64655">
        <ele>58.777709960938</ele>
        <time>2019-04-13T09:40:11Z</time>
      </trkpt>
      <trkpt lat="44.17309" lon="4.64662">
        <ele>59.258422851562</ele>
        <time>2019-04-13T09:40:15Z</time>
      </trkpt>
      <trkpt lat="44.17327" lon="4.6469">
        <ele>60.700317382812</ele>
        <time>2019-04-13T09:40:30Z</time>
      </trkpt>
      <trkpt lat="44.17347" lon="4.64723">
        <ele>62.142333984375</ele>
        <time>2019-04-13T09:40:46Z</time>
      </trkpt>
      <trkpt lat="44.17359" lon="4.6477">
        <ele>63.584350585938</ele>
        <time>2019-04-13T09:41:05Z</time>
      </trkpt>
      <trkpt lat="44.17369" lon="4.64816">
        <ele>65.987670898438</ele>
        <time>2019-04-13T09:41:23Z</time>
      </trkpt>
      <trkpt lat="44.17386" lon="4.64854">
        <ele>68.390869140625</ele>
        <time>2019-04-13T09:41:41Z</time>
      </trkpt>
      <trkpt lat="44.17401" lon="4.64893">
        <ele>71.27490234375</ele>
        <time>2019-04-13T09:42:01Z</time>
      </trkpt>
      <trkpt lat="44.17408" lon="4.64908">
        <ele>72.236206054688</ele>
        <time>2019-04-13T09:42:10Z</time>
      </trkpt>
      <trkpt lat="44.17428" lon="4.64934">
        <ele>74.158813476562</ele>
        <time>2019-04-13T09:42:28Z</time>
      </trkpt>
      <trkpt lat="44.1745" lon="4.64956">
        <ele>75.600830078125</ele>
        <time>2019-04-13T09:42:44Z</time>
      </trkpt>
      <trkpt lat="44.17479" lon="4.64971">
        <ele>77.5234375</ele>
        <time>2019-04-13T09:43:01Z</time>
      </trkpt>
      <trkpt lat="44.17518" lon="4.64968">
        <ele>77.042846679688</ele>
        <time>2019-04-13T09:43:22Z</time>
      </trkpt>
      <trkpt lat="44.17556" lon="4.64964">
        <ele>78.004028320312</ele>
        <time>2019-04-13T09:43:40Z</time>
      </trkpt>
      <trkpt lat="44.1756" lon="4.64964">
        <ele>79.446044921875</ele>
        <time>2019-04-13T09:43:42Z</time>
      </trkpt>
      <trkpt lat="44.17571" lon="4.64964">
        <ele>80.407470703125</ele>
        <time>2019-04-13T09:43:47Z</time>
      </trkpt>
      <trkpt lat="44.17613" lon="4.64961">
        <ele>78.484741210938</ele>
        <time>2019-04-13T09:44:06Z</time>
      </trkpt>
      <trkpt lat="44.17632" lon="4.64958">
        <ele>82.330078125</ele>
        <time>2019-04-13T09:44:15Z</time>
      </trkpt>
      <trkpt lat="44.17665" lon="4.64944">
        <ele>83.77197265625</ele>
        <time>2019-04-13T09:44:31Z</time>
      </trkpt>
      <trkpt lat="44.1767" lon="4.6493">
        <ele>82.330078125</ele>
        <time>2019-04-13T09:44:34Z</time>
      </trkpt>
      <trkpt lat="44.1768" lon="4.64899">
        <ele>78.484741210938</ele>
        <time>2019-04-13T09:44:39Z</time>
      </trkpt>
      <trkpt lat="44.17684" lon="4.6488">
        <ele>78.965454101562</ele>
        <time>2019-04-13T09:44:42Z</time>
      </trkpt>
      <trkpt lat="44.17699" lon="4.6486">
        <ele>77.5234375</ele>
        <time>2019-04-13T09:44:47Z</time>
      </trkpt>
      <trkpt lat="44.17734" lon="4.64841">
        <ele>80.88818359375</ele>
        <time>2019-04-13T09:45:01Z</time>
      </trkpt>
      <trkpt lat="44.17748" lon="4.64838">
        <ele>82.810791015625</ele>
        <time>2019-04-13T09:45:11Z</time>
      </trkpt>
      <trkpt lat="44.17746" lon="4.64854">
        <ele>83.291381835938</ele>
        <time>2019-04-13T09:45:20Z</time>
      </trkpt>
      <trkpt lat="44.17745" lon="4.64857">
        <ele>83.77197265625</ele>
        <time>2019-04-13T09:45:22Z</time>
      </trkpt>
      <trkpt lat="44.17744" lon="4.64861">
        <ele>84.7333984375</ele>
        <time>2019-04-13T09:45:24Z</time>
      </trkpt>
      <trkpt lat="44.17745" lon="4.64874">
        <ele>85.694580078125</ele>
        <time>2019-04-13T09:45:31Z</time>
      </trkpt>
      <trkpt lat="44.17742" lon="4.64887">
        <ele>88.098022460938</ele>
        <time>2019-04-13T09:45:38Z</time>
      </trkpt>
      <trkpt lat="44.17738" lon="4.64891">
        <ele>88.578735351562</ele>
        <time>2019-04-13T09:45:52Z</time>
      </trkpt>
      <trkpt lat="44.17738" lon="4.64892">
        <ele>89.059326171875</ele>
        <time>2019-04-13T09:45:53Z</time>
      </trkpt>
      <trkpt lat="44.17738" lon="4.64916">
        <ele>90.98193359375</ele>
        <time>2019-04-13T09:46:12Z</time>
      </trkpt>
      <trkpt lat="44.17743" lon="4.64922">
        <ele>91.943237304688</ele>
        <time>2019-04-13T09:46:21Z</time>
      </trkpt>
      <trkpt lat="44.17746" lon="4.64923">
        <ele>93.385131835938</ele>
        <time>2019-04-13T09:46:25Z</time>
      </trkpt>
      <trkpt lat="44.17753" lon="4.64933">
        <ele>94.8271484375</ele>
        <time>2019-04-13T09:46:43Z</time>
      </trkpt>
      <trkpt lat="44.17759" lon="4.64943">
        <ele>95.788452148438</ele>
        <time>2019-04-13T09:46:56Z</time>
      </trkpt>
      <trkpt lat="44.17768" lon="4.64952">
        <ele>96.749877929688</ele>
        <time>2019-04-13T09:47:09Z</time>
      </trkpt>
      <trkpt lat="44.17772" lon="4.64956">
        <ele>98.672485351562</ele>
        <time>2019-04-13T09:47:13Z</time>
      </trkpt>
      <trkpt lat="44.17777" lon="4.64964">
        <ele>101.07568359375</ele>
        <time>2019-04-13T09:47:24Z</time>
      </trkpt>
      <trkpt lat="44.17785" lon="4.64983">
        <ele>102.99829101562</ele>
        <time>2019-04-13T09:47:40Z</time>
      </trkpt>
      <trkpt lat="44.17792" lon="4.65004">
        <ele>104.4404296875</ele>
        <time>2019-04-13T09:48:55Z</time>
      </trkpt>
      <trkpt lat="44.17794" lon="4.65007">
        <ele>105.88244628906</ele>
        <time>2019-04-13T09:49:45Z</time>
      </trkpt>
      <trkpt lat="44.17801" lon="4.65034">
        <ele>107.32434082031</ele>
        <time>2019-04-13T09:49:59Z</time>
      </trkpt>
      <trkpt lat="44.17807" lon="4.65051">
        <ele>108.28564453125</ele>
        <time>2019-04-13T09:50:08Z</time>
      </trkpt>
      <trkpt lat="44.17812" lon="4.6507">
        <ele>112.61157226562</ele>
        <time>2019-04-13T09:50:18Z</time>
      </trkpt>
      <trkpt lat="44.1782" lon="4.65094">
        <ele>112.61157226562</ele>
        <time>2019-04-13T09:50:30Z</time>
      </trkpt>
      <trkpt lat="44.17826" lon="4.65106">
        <ele>112.61157226562</ele>
        <time>2019-04-13T09:50:37Z</time>
      </trkpt>
      <trkpt lat="44.17843" lon="4.65139">
        <ele>115.97619628906</ele>
        <time>2019-04-13T09:50:54Z</time>
      </trkpt>
      <trkpt lat="44.17857" lon="4.65166">
        <ele>116.9375</ele>
        <time>2019-04-13T09:51:09Z</time>
      </trkpt>
      <trkpt lat="44.17861" lon="4.65172">
        <ele>117.89880371094</ele>
        <time>2019-04-13T09:51:13Z</time>
      </trkpt>
      <trkpt lat="44.17864" lon="4.65181">
        <ele>117.41821289062</ele>
        <time>2019-04-13T09:51:18Z</time>
      </trkpt>
      <trkpt lat="44.17864" lon="4.65189">
        <ele>118.37939453125</ele>
        <time>2019-04-13T09:51:32Z</time>
      </trkpt>
      <trkpt lat="44.17865" lon="4.65191">
        <ele>119.82141113281</ele>
        <time>2019-04-13T09:51:35Z</time>
      </trkpt>
      <trkpt lat="44.17879" lon="4.65213">
        <ele>120.78283691406</ele>
        <time>2019-04-13T09:51:49Z</time>
      </trkpt>
      <trkpt lat="44.17885" lon="4.65248">
        <ele>124.14733886719</ele>
        <time>2019-04-13T09:52:05Z</time>
      </trkpt>
      <trkpt lat="44.17882" lon="4.65257">
        <ele>125.10876464844</ele>
        <time>2019-04-13T09:52:10Z</time>
      </trkpt>
      <trkpt lat="44.17864" lon="4.65271">
        <ele>126.06994628906</ele>
        <time>2019-04-13T09:52:25Z</time>
      </trkpt>
      <trkpt lat="44.17861" lon="4.65269">
        <ele>126.06994628906</ele>
        <time>2019-04-13T09:52:29Z</time>
      </trkpt>
      <trkpt lat="44.1785" lon="4.65272">
        <ele>126.55065917969</ele>
        <time>2019-04-13T09:52:35Z</time>
      </trkpt>
      <trkpt lat="44.17821" lon="4.65278">
        <ele>126.06994628906</ele>
        <time>2019-04-13T09:52:49Z</time>
      </trkpt>
      <trkpt lat="44.17796" lon="4.65285">
        <ele>128.47338867188</ele>
        <time>2019-04-13T09:53:03Z</time>
      </trkpt>
      <trkpt lat="44.17767" lon="4.6529">
        <ele>128.9541015625</ele>
        <time>2019-04-13T09:53:19Z</time>
      </trkpt>
      <trkpt lat="44.17741" lon="4.65296">
        <ele>131.35729980469</ele>
        <time>2019-04-13T09:53:33Z</time>
      </trkpt>
      <trkpt lat="44.17737" lon="4.65298">
        <ele>132.79931640625</ele>
        <time>2019-04-13T09:53:36Z</time>
      </trkpt>
      <trkpt lat="44.17718" lon="4.65307">
        <ele>130.39599609375</ele>
        <time>2019-04-13T09:53:48Z</time>
      </trkpt>
      <trkpt lat="44.17696" lon="4.65314">
        <ele>130.39599609375</ele>
        <time>2019-04-13T09:53:57Z</time>
      </trkpt>
      <trkpt lat="44.17688" lon="4.65314">
        <ele>129.91528320312</ele>
        <time>2019-04-13T09:54:01Z</time>
      </trkpt>
      <trkpt lat="44.17677" lon="4.65313">
        <ele>130.87670898438</ele>
        <time>2019-04-13T09:54:14Z</time>
      </trkpt>
      <trkpt lat="44.17637" lon="4.65308">
        <ele>128.9541015625</ele>
        <time>2019-04-13T09:54:28Z</time>
      </trkpt>
      <trkpt lat="44.17595" lon="4.65274">
        <ele>128.9541015625</ele>
        <time>2019-04-13T09:54:42Z</time>
      </trkpt>
      <trkpt lat="44.17558" lon="4.65252">
        <ele>126.55065917969</ele>
        <time>2019-04-13T09:54:53Z</time>
      </trkpt>
      <trkpt lat="44.17522" lon="4.65201">
        <ele>127.03137207031</ele>
        <time>2019-04-13T09:55:07Z</time>
      </trkpt>
      <trkpt lat="44.17508" lon="4.65187">
        <ele>123.18615722656</ele>
        <time>2019-04-13T09:55:14Z</time>
      </trkpt>
      <trkpt lat="44.17506" lon="4.65184">
        <ele>121.26354980469</ele>
        <time>2019-04-13T09:55:15Z</time>
      </trkpt>
      <trkpt lat="44.17488" lon="4.65183">
        <ele>117.89880371094</ele>
        <time>2019-04-13T09:55:21Z</time>
      </trkpt>
      <trkpt lat="44.17477" lon="4.65186">
        <ele>117.41821289062</ele>
        <time>2019-04-13T09:55:24Z</time>
      </trkpt>
      <trkpt lat="44.17469" lon="4.65195">
        <ele>113.57299804688</ele>
        <time>2019-04-13T09:55:27Z</time>
      </trkpt>
      <trkpt lat="44.17464" lon="4.65205">
        <ele>112.13098144531</ele>
        <time>2019-04-13T09:55:29Z</time>
      </trkpt>
      <trkpt lat="44.17463" lon="4.65236">
        <ele>111.16955566406</ele>
        <time>2019-04-13T09:55:37Z</time>
      </trkpt>
      <trkpt lat="44.17457" lon="4.65248">
        <ele>109.24694824219</ele>
        <time>2019-04-13T09:55:42Z</time>
      </trkpt>
      <trkpt lat="44.17449" lon="4.65258">
        <ele>109.72766113281</ele>
        <time>2019-04-13T09:55:45Z</time>
      </trkpt>
      <trkpt lat="44.17441" lon="4.65265">
        <ele>113.57299804688</ele>
        <time>2019-04-13T09:55:50Z</time>
      </trkpt>
      <trkpt lat="44.17429" lon="4.65263">
        <ele>113.09228515625</ele>
        <time>2019-04-13T09:55:56Z</time>
      </trkpt>
      <trkpt lat="44.17417" lon="4.65274">
        <ele>112.61157226562</ele>
        <time>2019-04-13T09:56:03Z</time>
      </trkpt>
      <trkpt lat="44.17412" lon="4.65292">
        <ele>115.49560546875</ele>
        <time>2019-04-13T09:56:11Z</time>
      </trkpt>
      <trkpt lat="44.17417" lon="4.65311">
        <ele>115.49560546875</ele>
        <time>2019-04-13T09:56:21Z</time>
      </trkpt>
      <trkpt lat="44.17422" lon="4.65321">
        <ele>117.89880371094</ele>
        <time>2019-04-13T09:56:30Z</time>
      </trkpt>
      <trkpt lat="44.1742" lon="4.6533">
        <ele>116.9375</ele>
        <time>2019-04-13T09:56:48Z</time>
      </trkpt>
      <trkpt lat="44.1742" lon="4.65333">
        <ele>116.9375</ele>
        <time>2019-04-13T09:56:49Z</time>
      </trkpt>
      <trkpt lat="44.17421" lon="4.65343">
        <ele>117.41821289062</ele>
        <time>2019-04-13T09:56:59Z</time>
      </trkpt>
      <trkpt lat="44.17426" lon="4.65352">
        <ele>117.41821289062</ele>
        <time>2019-04-13T09:57:14Z</time>
      </trkpt>
      <trkpt lat="44.1743" lon="4.65364">
        <ele>118.37939453125</ele>
        <time>2019-04-13T09:57:22Z</time>
      </trkpt>
      <trkpt lat="44.17405" lon="4.65376">
        <ele>113.57299804688</ele>
        <time>2019-04-13T09:57:34Z</time>
      </trkpt>
      <trkpt lat="44.17381" lon="4.65371">
        <ele>110.20825195312</ele>
        <time>2019-04-13T09:57:41Z</time>
      </trkpt>
      <trkpt lat="44.17357" lon="4.65379">
        <ele>106.84362792969</ele>
        <time>2019-04-13T09:57:49Z</time>
      </trkpt>
      <trkpt lat="44.17331" lon="4.65389">
        <ele>104.92102050781</ele>
        <time>2019-04-13T09:57:58Z</time>
      </trkpt>
      <trkpt lat="44.17322" lon="4.65388">
        <ele>102.037109375</ele>
        <time>2019-04-13T09:58:02Z</time>
      </trkpt>
      <trkpt lat="44.17313" lon="4.65386">
        <ele>99.153076171875</ele>
        <time>2019-04-13T09:58:05Z</time>
      </trkpt>
      <trkpt lat="44.17305" lon="4.65395">
        <ele>99.6337890625</ele>
        <time>2019-04-13T09:58:14Z</time>
      </trkpt>
      <trkpt lat="44.17305" lon="4.65395">
        <ele>99.6337890625</ele>
        <time>2019-04-13T09:58:16Z</time>
      </trkpt>
      <trkpt lat="44.17305" lon="4.65402">
        <ele>99.153076171875</ele>
        <time>2019-04-13T09:58:20Z</time>
      </trkpt>
      <trkpt lat="44.173" lon="4.6544">
        <ele>97.23046875</ele>
        <time>2019-04-13T09:58:31Z</time>
      </trkpt>
      <trkpt lat="44.17297" lon="4.65445">
        <ele>98.19189453125</ele>
        <time>2019-04-13T09:58:43Z</time>
      </trkpt>
      <trkpt lat="44.17294" lon="4.65453">
        <ele>98.672485351562</ele>
        <time>2019-04-13T09:58:56Z</time>
      </trkpt>
      <trkpt lat="44.17293" lon="4.65461">
        <ele>99.153076171875</ele>
        <time>2019-04-13T09:59:01Z</time>
      </trkpt>
      <trkpt lat="44.17297" lon="4.65474">
        <ele>98.19189453125</ele>
        <time>2019-04-13T09:59:09Z</time>
      </trkpt>
      <trkpt lat="44.17305" lon="4.6549">
        <ele>99.153076171875</ele>
        <time>2019-04-13T09:59:18Z</time>
      </trkpt>
      <trkpt lat="44.17308" lon="4.65503">
        <ele>99.6337890625</ele>
        <time>2019-04-13T09:59:24Z</time>
      </trkpt>
      <trkpt lat="44.17325" lon="4.65502">
        <ele>101.55639648438</ele>
        <time>2019-04-13T09:59:36Z</time>
      </trkpt>
      <trkpt lat="44.17336" lon="4.65489">
        <ele>104.4404296875</ele>
        <time>2019-04-13T09:59:46Z</time>
      </trkpt>
      <trkpt lat="44.17337" lon="4.65488">
        <ele>104.4404296875</ele>
        <time>2019-04-13T09:59:47Z</time>
      </trkpt>
      <trkpt lat="44.17348" lon="4.65475">
        <ele>107.80505371094</ele>
        <time>2019-04-13T09:59:58Z</time>
      </trkpt>
      <trkpt lat="44.17363" lon="4.65455">
        <ele>108.28564453125</ele>
        <time>2019-04-13T10:00:15Z</time>
      </trkpt>
      <trkpt lat="44.17376" lon="4.65436">
        <ele>111.65026855469</ele>
        <time>2019-04-13T10:00:29Z</time>
      </trkpt>
      <trkpt lat="44.17394" lon="4.65423">
        <ele>112.61157226562</ele>
        <time>2019-04-13T10:00:43Z</time>
      </trkpt>
      <trkpt lat="44.1741" lon="4.65416">
        <ele>114.05358886719</ele>
        <time>2019-04-13T10:00:54Z</time>
      </trkpt>
      <trkpt lat="44.17416" lon="4.65414">
        <ele>115.97619628906</ele>
        <time>2019-04-13T10:00:59Z</time>
      </trkpt>
      <trkpt lat="44.1743" lon="4.65412">
        <ele>116.45678710938</ele>
        <time>2019-04-13T10:01:11Z</time>
      </trkpt>
      <trkpt lat="44.17448" lon="4.65406">
        <ele>119.82141113281</ele>
        <time>2019-04-13T10:01:23Z</time>
      </trkpt>
      <trkpt lat="44.17464" lon="4.65401">
        <ele>116.9375</ele>
        <time>2019-04-13T10:01:32Z</time>
      </trkpt>
      <trkpt lat="44.17487" lon="4.65397">
        <ele>118.37939453125</ele>
        <time>2019-04-13T10:01:44Z</time>
      </trkpt>
      <trkpt lat="44.17515" lon="4.65391">
        <ele>119.82141113281</ele>
        <time>2019-04-13T10:01:59Z</time>
      </trkpt>
      <trkpt lat="44.17542" lon="4.65384">
        <ele>120.30212402344</ele>
        <time>2019-04-13T10:02:13Z</time>
      </trkpt>
      <trkpt lat="44.17568" lon="4.65383">
        <ele>121.26354980469</ele>
        <time>2019-04-13T10:02:26Z</time>
      </trkpt>
      <trkpt lat="44.17594" lon="4.65374">
        <ele>121.26354980469</ele>
        <time>2019-04-13T10:02:40Z</time>
      </trkpt>
      <trkpt lat="44.17623" lon="4.65365">
        <ele>124.14733886719</ele>
        <time>2019-04-13T10:02:56Z</time>
      </trkpt>
      <trkpt lat="44.17649" lon="4.65358">
        <ele>124.62805175781</ele>
        <time>2019-04-13T10:03:12Z</time>
      </trkpt>
      <trkpt lat="44.17661" lon="4.65357">
        <ele>127.99255371094</ele>
        <time>2019-04-13T10:03:20Z</time>
      </trkpt>
      <trkpt lat="44.17664" lon="4.65356">
        <ele>128.9541015625</ele>
        <time>2019-04-13T10:03:22Z</time>
      </trkpt>
      <trkpt lat="44.17694" lon="4.65353">
        <ele>129.43469238281</ele>
        <time>2019-04-13T10:03:40Z</time>
      </trkpt>
      <trkpt lat="44.17701" lon="4.65352">
        <ele>132.79931640625</ele>
        <time>2019-04-13T10:03:44Z</time>
      </trkpt>
      <trkpt lat="44.17703" lon="4.65351">
        <ele>132.79931640625</ele>
        <time>2019-04-13T10:03:45Z</time>
      </trkpt>
      <trkpt lat="44.17706" lon="4.65351">
        <ele>132.79931640625</ele>
        <time>2019-04-13T10:03:47Z</time>
      </trkpt>
      <trkpt lat="44.17708" lon="4.65364">
        <ele>132.79931640625</ele>
        <time>2019-04-13T10:03:55Z</time>
      </trkpt>
      <trkpt lat="44.17685" lon="4.65407">
        <ele>132.31860351562</ele>
        <time>2019-04-13T10:04:18Z</time>
      </trkpt>
      <trkpt lat="44.17666" lon="4.65446">
        <ele>135.20251464844</ele>
        <time>2019-04-13T10:04:38Z</time>
      </trkpt>
      <trkpt lat="44.17649" lon="4.65475">
        <ele>138.56726074219</ele>
        <time>2019-04-13T10:04:55Z</time>
      </trkpt>
      <trkpt lat="44.17629" lon="4.65506">
        <ele>139.52844238281</ele>
        <time>2019-04-13T10:05:13Z</time>
      </trkpt>
      <trkpt lat="44.17617" lon="4.6555">
        <ele>141.45104980469</ele>
        <time>2019-04-13T10:05:31Z</time>
      </trkpt>
      <trkpt lat="44.17613" lon="4.65567">
        <ele>140.97045898438</ele>
        <time>2019-04-13T10:05:39Z</time>
      </trkpt>
      <trkpt lat="44.17607" lon="4.65602">
        <ele>141.93176269531</ele>
        <time>2019-04-13T10:05:56Z</time>
      </trkpt>
      <trkpt lat="44.176" lon="4.65633">
        <ele>144.81579589844</ele>
        <time>2019-04-13T10:06:09Z</time>
      </trkpt>
      <trkpt lat="44.17598" lon="4.65638">
        <ele>145.77709960938</ele>
        <time>2019-04-13T10:06:11Z</time>
      </trkpt>
      <trkpt lat="44.17584" lon="4.65698">
        <ele>144.81579589844</ele>
        <time>2019-04-13T10:06:29Z</time>
      </trkpt>
      <trkpt lat="44.17575" lon="4.65757">
        <ele>143.37365722656</ele>
        <time>2019-04-13T10:06:43Z</time>
      </trkpt>
      <trkpt lat="44.17581" lon="4.65797">
        <ele>144.33520507812</ele>
        <time>2019-04-13T10:06:56Z</time>
      </trkpt>
      <trkpt lat="44.17582" lon="4.65802">
        <ele>143.85437011719</ele>
        <time>2019-04-13T10:06:58Z</time>
      </trkpt>
      <trkpt lat="44.17604" lon="4.65862">
        <ele>146.73840332031</ele>
        <time>2019-04-13T10:07:18Z</time>
      </trkpt>
      <trkpt lat="44.17626" lon="4.65923">
        <ele>144.33520507812</ele>
        <time>2019-04-13T10:07:33Z</time>
      </trkpt>
      <trkpt lat="44.17655" lon="4.65977">
        <ele>145.77709960938</ele>
        <time>2019-04-13T10:07:50Z</time>
      </trkpt>
      <trkpt lat="44.17666" lon="4.66">
        <ele>145.77709960938</ele>
        <time>2019-04-13T10:08:01Z</time>
      </trkpt>
      <trkpt lat="44.17669" lon="4.66021">
        <ele>148.18041992188</ele>
        <time>2019-04-13T10:08:10Z</time>
      </trkpt>
      <trkpt lat="44.17664" lon="4.66037">
        <ele>147.69970703125</ele>
        <time>2019-04-13T10:08:17Z</time>
      </trkpt>
      <trkpt lat="44.17633" lon="4.66065">
        <ele>147.69970703125</ele>
        <time>2019-04-13T10:08:35Z</time>
      </trkpt>
      <trkpt lat="44.17597" lon="4.66047">
        <ele>148.18041992188</ele>
        <time>2019-04-13T10:08:51Z</time>
      </trkpt>
      <trkpt lat="44.17567" lon="4.6603">
        <ele>150.58361816406</ele>
        <time>2019-04-13T10:09:05Z</time>
      </trkpt>
      <trkpt lat="44.17547" lon="4.66025">
        <ele>150.58361816406</ele>
        <time>2019-04-13T10:09:15Z</time>
      </trkpt>
      <trkpt lat="44.17525" lon="4.66021">
        <ele>152.02575683594</ele>
        <time>2019-04-13T10:09:26Z</time>
      </trkpt>
      <trkpt lat="44.1751" lon="4.66017">
        <ele>152.02575683594</ele>
        <time>2019-04-13T10:09:33Z</time>
      </trkpt>
      <trkpt lat="44.17474" lon="4.66009">
        <ele>152.02575683594</ele>
        <time>2019-04-13T10:09:49Z</time>
      </trkpt>
      <trkpt lat="44.17431" lon="4.65999">
        <ele>153.46765136719</ele>
        <time>2019-04-13T10:10:07Z</time>
      </trkpt>
      <trkpt lat="44.17398" lon="4.65986">
        <ele>152.50634765625</ele>
        <time>2019-04-13T10:10:22Z</time>
      </trkpt>
      <trkpt lat="44.17374" lon="4.65981">
        <ele>155.87097167969</ele>
        <time>2019-04-13T10:10:34Z</time>
      </trkpt>
      <trkpt lat="44.17348" lon="4.65994">
        <ele>157.79357910156</ele>
        <time>2019-04-13T10:10:47Z</time>
      </trkpt>
      <trkpt lat="44.17346" lon="4.65995">
        <ele>157.79357910156</ele>
        <time>2019-04-13T10:10:48Z</time>
      </trkpt>
      <trkpt lat="44.17323" lon="4.66029">
        <ele>159.23547363281</ele>
        <time>2019-04-13T10:11:04Z</time>
      </trkpt>
      <trkpt lat="44.17281" lon="4.66046">
        <ele>159.23547363281</ele>
        <time>2019-04-13T10:11:24Z</time>
      </trkpt>
      <trkpt lat="44.17242" lon="4.66071">
        <ele>161.63891601562</ele>
        <time>2019-04-13T10:11:44Z</time>
      </trkpt>
      <trkpt lat="44.17205" lon="4.66078">
        <ele>160.67749023438</ele>
        <time>2019-04-13T10:11:59Z</time>
      </trkpt>
      <trkpt lat="44.17164" lon="4.66136">
        <ele>157.79357910156</ele>
        <time>2019-04-13T10:12:17Z</time>
      </trkpt>
      <trkpt lat="44.17161" lon="4.66142">
        <ele>157.31286621094</ele>
        <time>2019-04-13T10:12:18Z</time>
      </trkpt>
      <trkpt lat="44.17156" lon="4.66157">
        <ele>155.87097167969</ele>
        <time>2019-04-13T10:12:20Z</time>
      </trkpt>
      <trkpt lat="44.17126" lon="4.66241">
        <ele>153.46765136719</ele>
        <time>2019-04-13T10:12:30Z</time>
      </trkpt>
      <trkpt lat="44.1711" lon="4.66309">
        <ele>153.94836425781</ele>
        <time>2019-04-13T10:12:43Z</time>
      </trkpt>
      <trkpt lat="44.17121" lon="4.66355">
        <ele>154.90954589844</ele>
        <time>2019-04-13T10:12:56Z</time>
      </trkpt>
      <trkpt lat="44.17136" lon="4.66387">
        <ele>154.90954589844</ele>
        <time>2019-04-13T10:13:06Z</time>
      </trkpt>
      <trkpt lat="44.1714" lon="4.66397">
        <ele>157.31286621094</ele>
        <time>2019-04-13T10:13:09Z</time>
      </trkpt>
      <trkpt lat="44.17145" lon="4.66415">
        <ele>156.3515625</ele>
        <time>2019-04-13T10:13:14Z</time>
      </trkpt>
      <trkpt lat="44.1714" lon="4.66467">
        <ele>156.3515625</ele>
        <time>2019-04-13T10:13:28Z</time>
      </trkpt>
      <trkpt lat="44.1713" lon="4.66507">
        <ele>160.19689941406</ele>
        <time>2019-04-13T10:13:43Z</time>
      </trkpt>
      <trkpt lat="44.17122" lon="4.66527">
        <ele>162.11950683594</ele>
        <time>2019-04-13T10:13:53Z</time>
      </trkpt>
      <trkpt lat="44.1712" lon="4.66537">
        <ele>162.11950683594</ele>
        <time>2019-04-13T10:13:58Z</time>
      </trkpt>
      <trkpt lat="44.17117" lon="4.66552">
        <ele>163.5615234375</ele>
        <time>2019-04-13T10:14:05Z</time>
      </trkpt>
      <trkpt lat="44.17117" lon="4.66556">
        <ele>162.60009765625</ele>
        <time>2019-04-13T10:14:07Z</time>
      </trkpt>
      <trkpt lat="44.17125" lon="4.66573">
        <ele>161.63891601562</ele>
        <time>2019-04-13T10:14:15Z</time>
      </trkpt>
      <trkpt lat="44.17153" lon="4.66583">
        <ele>162.60009765625</ele>
        <time>2019-04-13T10:14:29Z</time>
      </trkpt>
      <trkpt lat="44.17179" lon="4.66598">
        <ele>164.04211425781</ele>
        <time>2019-04-13T10:14:42Z</time>
      </trkpt>
      <trkpt lat="44.17198" lon="4.66619">
        <ele>165.48413085938</ele>
        <time>2019-04-13T10:14:54Z</time>
      </trkpt>
      <trkpt lat="44.17234" lon="4.66648">
        <ele>164.52270507812</ele>
        <time>2019-04-13T10:15:10Z</time>
      </trkpt>
      <trkpt lat="44.17246" lon="4.66653">
        <ele>166.92602539062</ele>
        <time>2019-04-13T10:15:14Z</time>
      </trkpt>
      <trkpt lat="44.17283" lon="4.6668">
        <ele>166.92602539062</ele>
        <time>2019-04-13T10:15:28Z</time>
      </trkpt>
      <trkpt lat="44.17299" lon="4.66695">
        <ele>166.92602539062</ele>
        <time>2019-04-13T10:15:37Z</time>
      </trkpt>
      <trkpt lat="44.17304" lon="4.66716">
        <ele>165.96472167969</ele>
        <time>2019-04-13T10:15:42Z</time>
      </trkpt>
      <trkpt lat="44.1732" lon="4.66754">
        <ele>167.40673828125</ele>
        <time>2019-04-13T10:15:54Z</time>
      </trkpt>
      <trkpt lat="44.17334" lon="4.66807">
        <ele>168.84875488281</ele>
        <time>2019-04-13T10:16:11Z</time>
      </trkpt>
      <trkpt lat="44.17334" lon="4.66813">
        <ele>168.84875488281</ele>
        <time>2019-04-13T10:16:22Z</time>
      </trkpt>
      <trkpt lat="44.17332" lon="4.66821">
        <ele>167.88732910156</ele>
        <time>2019-04-13T10:16:42Z</time>
      </trkpt>
      <trkpt lat="44.1731" lon="4.66858">
        <ele>168.84875488281</ele>
        <time>2019-04-13T10:16:58Z</time>
      </trkpt>
      <trkpt lat="44.17274" lon="4.66873">
        <ele>167.88732910156</ele>
        <time>2019-04-13T10:17:11Z</time>
      </trkpt>
      <trkpt lat="44.1722" lon="4.66898">
        <ele>168.84875488281</ele>
        <time>2019-04-13T10:17:31Z</time>
      </trkpt>
      <trkpt lat="44.17169" lon="4.66919">
        <ele>167.88732910156</ele>
        <time>2019-04-13T10:17:47Z</time>
      </trkpt>
      <trkpt lat="44.1714" lon="4.6696">
        <ele>166.92602539062</ele>
        <time>2019-04-13T10:18:00Z</time>
      </trkpt>
      <trkpt lat="44.17106" lon="4.67042">
        <ele>165.96472167969</ele>
        <time>2019-04-13T10:18:20Z</time>
      </trkpt>
      <trkpt lat="44.17066" lon="4.67076">
        <ele>165.96472167969</ele>
        <time>2019-04-13T10:18:34Z</time>
      </trkpt>
      <trkpt lat="44.17051" lon="4.67112">
        <ele>167.88732910156</ele>
        <time>2019-04-13T10:18:46Z</time>
      </trkpt>
      <trkpt lat="44.17046" lon="4.67131">
        <ele>167.40673828125</ele>
        <time>2019-04-13T10:18:51Z</time>
      </trkpt>
      <trkpt lat="44.17048" lon="4.67151">
        <ele>164.04211425781</ele>
        <time>2019-04-13T10:18:54Z</time>
      </trkpt>
      <trkpt lat="44.17054" lon="4.67169">
        <ele>161.158203125</ele>
        <time>2019-04-13T10:18:56Z</time>
      </trkpt>
      <trkpt lat="44.17064" lon="4.6719">
        <ele>157.31286621094</ele>
        <time>2019-04-13T10:18:58Z</time>
      </trkpt>
      <trkpt lat="44.17095" lon="4.67241">
        <ele>156.3515625</ele>
        <time>2019-04-13T10:19:03Z</time>
      </trkpt>
      <trkpt lat="44.17104" lon="4.6726">
        <ele>154.42895507812</ele>
        <time>2019-04-13T10:19:05Z</time>
      </trkpt>
      <trkpt lat="44.17147" lon="4.67297">
        <ele>151.544921875</ele>
        <time>2019-04-13T10:19:13Z</time>
      </trkpt>
      <trkpt lat="44.17165" lon="4.67319">
        <ele>150.10302734375</ele>
        <time>2019-04-13T10:19:17Z</time>
      </trkpt>
      <trkpt lat="44.17186" lon="4.67345">
        <ele>144.33520507812</ele>
        <time>2019-04-13T10:19:21Z</time>
      </trkpt>
      <trkpt lat="44.17208" lon="4.67351">
        <ele>146.2578125</ele>
        <time>2019-04-13T10:19:25Z</time>
      </trkpt>
      <trkpt lat="44.17219" lon="4.67349">
        <ele>142.89306640625</ele>
        <time>2019-04-13T10:19:27Z</time>
      </trkpt>
      <trkpt lat="44.17223" lon="4.67348">
        <ele>145.77709960938</ele>
        <time>2019-04-13T10:19:28Z</time>
      </trkpt>
      <trkpt lat="44.17249" lon="4.67353">
        <ele>147.69970703125</ele>
        <time>2019-04-13T10:19:35Z</time>
      </trkpt>
      <trkpt lat="44.17276" lon="4.67352">
        <ele>150.58361816406</ele>
        <time>2019-04-13T10:19:48Z</time>
      </trkpt>
      <trkpt lat="44.17298" lon="4.67352">
        <ele>153.94836425781</ele>
        <time>2019-04-13T10:20:03Z</time>
      </trkpt>
      <trkpt lat="44.17299" lon="4.67352">
        <ele>153.46765136719</ele>
        <time>2019-04-13T10:20:04Z</time>
      </trkpt>
      <trkpt lat="44.17308" lon="4.67345">
        <ele>152.02575683594</ele>
        <time>2019-04-13T10:20:10Z</time>
      </trkpt>
      <trkpt lat="44.17311" lon="4.67342">
        <ele>152.98693847656</ele>
        <time>2019-04-13T10:20:12Z</time>
      </trkpt>
      <trkpt lat="44.17326" lon="4.67332">
        <ele>154.90954589844</ele>
        <time>2019-04-13T10:20:21Z</time>
      </trkpt>
      <trkpt lat="44.17353" lon="4.67329">
        <ele>156.3515625</ele>
        <time>2019-04-13T10:20:36Z</time>
      </trkpt>
      <trkpt lat="44.17384" lon="4.67338">
        <ele>160.67749023438</ele>
        <time>2019-04-13T10:39:44Z</time>
      </trkpt>
      <trkpt lat="44.17384" lon="4.67346">
        <ele>161.63891601562</ele>
        <time>2019-04-13T10:40:02Z</time>
      </trkpt>
      <trkpt lat="44.17382" lon="4.6737">
        <ele>162.60009765625</ele>
        <time>2019-04-13T10:40:12Z</time>
      </trkpt>
      <trkpt lat="44.17381" lon="4.67374">
        <ele>163.08081054688</ele>
        <time>2019-04-13T10:40:14Z</time>
      </trkpt>
      <trkpt lat="44.17386" lon="4.67386">
        <ele>166.4453125</ele>
        <time>2019-04-13T10:40:24Z</time>
      </trkpt>
      <trkpt lat="44.17386" lon="4.67389">
        <ele>164.04211425781</ele>
        <time>2019-04-13T10:40:26Z</time>
      </trkpt>
      <trkpt lat="44.17385" lon="4.67403">
        <ele>165.00341796875</ele>
        <time>2019-04-13T10:40:32Z</time>
      </trkpt>
      <trkpt lat="44.17386" lon="4.67411">
        <ele>164.04211425781</ele>
        <time>2019-04-13T10:40:35Z</time>
      </trkpt>
      <trkpt lat="44.17392" lon="4.67443">
        <ele>162.60009765625</ele>
        <time>2019-04-13T10:40:44Z</time>
      </trkpt>
      <trkpt lat="44.17394" lon="4.67449">
        <ele>162.11950683594</ele>
        <time>2019-04-13T10:40:47Z</time>
      </trkpt>
      <trkpt lat="44.174" lon="4.67457">
        <ele>164.52270507812</ele>
        <time>2019-04-13T10:40:53Z</time>
      </trkpt>
      <trkpt lat="44.17413" lon="4.67467">
        <ele>166.4453125</ele>
        <time>2019-04-13T10:41:06Z</time>
      </trkpt>
      <trkpt lat="44.17417" lon="4.67462">
        <ele>167.40673828125</ele>
        <time>2019-04-13T10:41:12Z</time>
      </trkpt>
      <trkpt lat="44.17418" lon="4.67452">
        <ele>167.88732910156</ele>
        <time>2019-04-13T10:41:17Z</time>
      </trkpt>
      <trkpt lat="44.17418" lon="4.67448">
        <ele>167.88732910156</ele>
        <time>2019-04-13T10:41:19Z</time>
      </trkpt>
      <trkpt lat="44.17416" lon="4.6744">
        <ele>168.36804199219</ele>
        <time>2019-04-13T10:41:24Z</time>
      </trkpt>
      <trkpt lat="44.17408" lon="4.67418">
        <ele>171.25207519531</ele>
        <time>2019-04-13T10:41:38Z</time>
      </trkpt>
      <trkpt lat="44.17407" lon="4.67405">
        <ele>174.13586425781</ele>
        <time>2019-04-13T10:41:47Z</time>
      </trkpt>
      <trkpt lat="44.17408" lon="4.67402">
        <ele>172.69396972656</ele>
        <time>2019-04-13T10:41:49Z</time>
      </trkpt>
      <trkpt lat="44.17419" lon="4.67379">
        <ele>174.13586425781</ele>
        <time>2019-04-13T10:42:02Z</time>
      </trkpt>
      <trkpt lat="44.1743" lon="4.6737">
        <ele>175.09729003906</ele>
        <time>2019-04-13T10:42:10Z</time>
      </trkpt>
      <trkpt lat="44.17432" lon="4.67367">
        <ele>174.61657714844</ele>
        <time>2019-04-13T10:42:12Z</time>
      </trkpt>
      <trkpt lat="44.17439" lon="4.67326">
        <ele>175.09729003906</ele>
        <time>2019-04-13T10:42:27Z</time>
      </trkpt>
      <trkpt lat="44.17455" lon="4.67311">
        <ele>178.94262695312</ele>
        <time>2019-04-13T10:42:38Z</time>
      </trkpt>
      <trkpt lat="44.17456" lon="4.6731">
        <ele>178.94262695312</ele>
        <time>2019-04-13T10:42:39Z</time>
      </trkpt>
      <trkpt lat="44.17472" lon="4.67304">
        <ele>179.90380859375</ele>
        <time>2019-04-13T10:42:52Z</time>
      </trkpt>
      <trkpt lat="44.1749" lon="4.6729">
        <ele>181.82641601562</ele>
        <time>2019-04-13T10:43:08Z</time>
      </trkpt>
      <trkpt lat="44.17509" lon="4.67282">
        <ele>183.26843261719</ele>
        <time>2019-04-13T10:43:22Z</time>
      </trkpt>
      <trkpt lat="44.17533" lon="4.67272">
        <ele>185.19116210938</ele>
        <time>2019-04-13T10:43:38Z</time>
      </trkpt>
      <trkpt lat="44.17552" lon="4.67259">
        <ele>188.55578613281</ele>
        <time>2019-04-13T10:43:53Z</time>
      </trkpt>
      <trkpt lat="44.17567" lon="4.67262">
        <ele>192.40112304688</ele>
        <time>2019-04-13T10:44:05Z</time>
      </trkpt>
      <trkpt lat="44.17573" lon="4.67261">
        <ele>193.3623046875</ele>
        <time>2019-04-13T10:44:09Z</time>
      </trkpt>
      <trkpt lat="44.17585" lon="4.67255">
        <ele>192.88171386719</ele>
        <time>2019-04-13T10:44:18Z</time>
      </trkpt>
      <trkpt lat="44.17592" lon="4.67253">
        <ele>192.88171386719</ele>
        <time>2019-04-13T10:44:23Z</time>
      </trkpt>
      <trkpt lat="44.17604" lon="4.67249">
        <ele>194.80432128906</ele>
        <time>2019-04-13T10:44:32Z</time>
      </trkpt>
      <trkpt lat="44.1761" lon="4.67242">
        <ele>196.72692871094</ele>
        <time>2019-04-13T10:44:38Z</time>
      </trkpt>
      <trkpt lat="44.17613" lon="4.67227">
        <ele>197.68823242188</ele>
        <time>2019-04-13T10:44:45Z</time>
      </trkpt>
      <trkpt lat="44.17608" lon="4.67211">
        <ele>197.20751953125</ele>
        <time>2019-04-13T10:44:54Z</time>
      </trkpt>
      <trkpt lat="44.176" lon="4.67196">
        <ele>197.68823242188</ele>
        <time>2019-04-13T10:45:07Z</time>
      </trkpt>
      <trkpt lat="44.17604" lon="4.67194">
        <ele>199.61083984375</ele>
        <time>2019-04-13T10:45:19Z</time>
      </trkpt>
      <trkpt lat="44.17599" lon="4.67183">
        <ele>200.09167480469</ele>
        <time>2019-04-13T10:45:29Z</time>
      </trkpt>
      <trkpt lat="44.17593" lon="4.67171">
        <ele>201.53356933594</ele>
        <time>2019-04-13T10:45:42Z</time>
      </trkpt>
      <trkpt lat="44.17583" lon="4.67135">
        <ele>202.49487304688</ele>
        <time>2019-04-13T10:46:01Z</time>
      </trkpt>
      <trkpt lat="44.17582" lon="4.67128">
        <ele>202.97546386719</ele>
        <time>2019-04-13T10:46:04Z</time>
      </trkpt>
      <trkpt lat="44.17589" lon="4.67129">
        <ele>203.93688964844</ele>
        <time>2019-04-13T10:46:11Z</time>
      </trkpt>
      <trkpt lat="44.17607" lon="4.67162">
        <ele>206.34008789062</ele>
        <time>2019-04-13T10:46:30Z</time>
      </trkpt>
      <trkpt lat="44.17624" lon="4.67201">
        <ele>203.45617675781</ele>
        <time>2019-04-13T10:46:43Z</time>
      </trkpt>
      <trkpt lat="44.17632" lon="4.67231">
        <ele>202.97546386719</ele>
        <time>2019-04-13T10:46:48Z</time>
      </trkpt>
      <trkpt lat="44.17633" lon="4.67257">
        <ele>202.01428222656</ele>
        <time>2019-04-13T10:46:53Z</time>
      </trkpt>
      <trkpt lat="44.17626" lon="4.67296">
        <ele>203.93688964844</ele>
        <time>2019-04-13T10:47:05Z</time>
      </trkpt>
      <trkpt lat="44.17622" lon="4.67326">
        <ele>207.78210449219</ele>
        <time>2019-04-13T10:47:19Z</time>
      </trkpt>
      <trkpt lat="44.17621" lon="4.6733">
        <ele>208.26281738281</ele>
        <time>2019-04-13T10:47:21Z</time>
      </trkpt>
      <trkpt lat="44.17618" lon="4.67348">
        <ele>207.78210449219</ele>
        <time>2019-04-13T10:47:31Z</time>
      </trkpt>
      <trkpt lat="44.17617" lon="4.67356">
        <ele>209.70483398438</ele>
        <time>2019-04-13T10:47:35Z</time>
      </trkpt>
      <trkpt lat="44.17617" lon="4.6736">
        <ele>210.666015625</ele>
        <time>2019-04-13T10:47:37Z</time>
      </trkpt>
      <trkpt lat="44.17614" lon="4.67366">
        <ele>209.70483398438</ele>
        <time>2019-04-13T10:47:41Z</time>
      </trkpt>
      <trkpt lat="44.17612" lon="4.6737">
        <ele>208.26281738281</ele>
        <time>2019-04-13T10:48:08Z</time>
      </trkpt>
      <trkpt lat="44.17613" lon="4.67372">
        <ele>209.70483398438</ele>
        <time>2019-04-13T10:48:33Z</time>
      </trkpt>
      <trkpt lat="44.17613" lon="4.67372">
        <ele>206.34008789062</ele>
        <time>2019-04-13T10:48:41Z</time>
      </trkpt>
      <trkpt lat="44.17612" lon="4.67371">
        <ele>209.70483398438</ele>
        <time>2019-04-13T10:49:13Z</time>
      </trkpt>
      <trkpt lat="44.17612" lon="4.67371">
        <ele>209.70483398438</ele>
        <time>2019-04-13T10:49:14Z</time>
      </trkpt>
      <trkpt lat="44.17612" lon="4.6737">
        <ele>208.74340820312</ele>
        <time>2019-04-13T10:49:37Z</time>
      </trkpt>
      <trkpt lat="44.17611" lon="4.6737">
        <ele>210.666015625</ele>
        <time>2019-04-13T10:50:09Z</time>
      </trkpt>
      <trkpt lat="44.17604" lon="4.67382">
        <ele>207.30139160156</ele>
        <time>2019-04-13T10:50:19Z</time>
      </trkpt>
      <trkpt lat="44.17603" lon="4.67384">
        <ele>207.30139160156</ele>
        <time>2019-04-13T10:50:20Z</time>
      </trkpt>
      <trkpt lat="44.17589" lon="4.67403">
        <ele>204.89807128906</ele>
        <time>2019-04-13T10:50:26Z</time>
      </trkpt>
      <trkpt lat="44.17581" lon="4.67423">
        <ele>202.01428222656</ele>
        <time>2019-04-13T10:50:30Z</time>
      </trkpt>
      <trkpt lat="44.17584" lon="4.67437">
        <ele>200.09167480469</ele>
        <time>2019-04-13T10:50:32Z</time>
      </trkpt>
      <trkpt lat="44.17594" lon="4.6751">
        <ele>195.765625</ele>
        <time>2019-04-13T10:50:42Z</time>
      </trkpt>
      <trkpt lat="44.17599" lon="4.67533">
        <ele>194.80432128906</ele>
        <time>2019-04-13T10:50:45Z</time>
      </trkpt>
      <trkpt lat="44.176" lon="4.67565">
        <ele>191.43957519531</ele>
        <time>2019-04-13T10:50:49Z</time>
      </trkpt>
      <trkpt lat="44.17598" lon="4.67572">
        <ele>192.88171386719</ele>
        <time>2019-04-13T10:50:50Z</time>
      </trkpt>
      <trkpt lat="44.17586" lon="4.67598">
        <ele>191.92028808594</ele>
        <time>2019-04-13T10:51:03Z</time>
      </trkpt>
      <trkpt lat="44.1757" lon="4.67613">
        <ele>192.88171386719</ele>
        <time>2019-04-13T10:51:16Z</time>
      </trkpt>
      <trkpt lat="44.17569" lon="4.67613">
        <ele>193.3623046875</ele>
        <time>2019-04-13T10:51:37Z</time>
      </trkpt>
      <trkpt lat="44.17569" lon="4.67613">
        <ele>190.958984375</ele>
        <time>2019-04-13T10:51:42Z</time>
      </trkpt>
      <trkpt lat="44.17569" lon="4.67613">
        <ele>190.958984375</ele>
        <time>2019-04-13T10:52:08Z</time>
      </trkpt>
      <trkpt lat="44.17569" lon="4.67613">
        <ele>191.92028808594</ele>
        <time>2019-04-13T10:52:14Z</time>
      </trkpt>
      <trkpt lat="44.1757" lon="4.67614">
        <ele>191.43957519531</ele>
        <time>2019-04-13T10:52:32Z</time>
      </trkpt>
      <trkpt lat="44.1757" lon="4.67614">
        <ele>191.92028808594</ele>
        <time>2019-04-13T10:52:48Z</time>
      </trkpt>
      <trkpt lat="44.17558" lon="4.67624">
        <ele>191.43957519531</ele>
        <time>2019-04-13T10:53:25Z</time>
      </trkpt>
      <trkpt lat="44.17556" lon="4.67623">
        <ele>191.43957519531</ele>
        <time>2019-04-13T10:53:43Z</time>
      </trkpt>
      <trkpt lat="44.17556" lon="4.67624">
        <ele>192.40112304688</ele>
        <time>2019-04-13T10:54:42Z</time>
      </trkpt>
      <trkpt lat="44.17557" lon="4.67624">
        <ele>191.92028808594</ele>
        <time>2019-04-13T10:56:04Z</time>
      </trkpt>
      <trkpt lat="44.17557" lon="4.67626">
        <ele>192.88171386719</ele>
        <time>2019-04-13T10:58:09Z</time>
      </trkpt>
      <trkpt lat="44.17557" lon="4.67626">
        <ele>191.92028808594</ele>
        <time>2019-04-13T10:59:17Z</time>
      </trkpt>
      <trkpt lat="44.17557" lon="4.67626">
        <ele>190.47839355469</ele>
        <time>2019-04-13T11:01:30Z</time>
      </trkpt>
      <trkpt lat="44.17557" lon="4.67626">
        <ele>191.92028808594</ele>
        <time>2019-04-13T11:01:32Z</time>
      </trkpt>
      <trkpt lat="44.17558" lon="4.67625">
        <ele>191.92028808594</ele>
        <time>2019-04-13T11:03:05Z</time>
      </trkpt>
      <trkpt lat="44.17558" lon="4.67625">
        <ele>193.3623046875</ele>
        <time>2019-04-13T11:03:22Z</time>
      </trkpt>
      <trkpt lat="44.17558" lon="4.67625">
        <ele>190.958984375</ele>
        <time>2019-04-13T11:04:30Z</time>
      </trkpt>
      <trkpt lat="44.17558" lon="4.67625">
        <ele>191.92028808594</ele>
        <time>2019-04-13T11:05:48Z</time>
      </trkpt>
      <trkpt lat="44.17558" lon="4.67626">
        <ele>190.47839355469</ele>
        <time>2019-04-13T11:06:13Z</time>
      </trkpt>
      <trkpt lat="44.17558" lon="4.67626">
        <ele>191.43957519531</ele>
        <time>2019-04-13T11:06:15Z</time>
      </trkpt>
      <trkpt lat="44.17558" lon="4.67626">
        <ele>191.92028808594</ele>
        <time>2019-04-13T11:06:35Z</time>
      </trkpt>
      <trkpt lat="44.17558" lon="4.67625">
        <ele>190.47839355469</ele>
        <time>2019-04-13T11:07:36Z</time>
      </trkpt>
      <trkpt lat="44.17558" lon="4.67625">
        <ele>191.43957519531</ele>
        <time>2019-04-13T11:08:05Z</time>
      </trkpt>
      <trkpt lat="44.17558" lon="4.67625">
        <ele>189.51696777344</ele>
        <time>2019-04-13T11:08:07Z</time>
      </trkpt>
      <trkpt lat="44.17558" lon="4.67624">
        <ele>188.55578613281</ele>
        <time>2019-04-13T11:09:07Z</time>
      </trkpt>
      <trkpt lat="44.17558" lon="4.67624">
        <ele>190.958984375</ele>
        <time>2019-04-13T11:09:09Z</time>
      </trkpt>
      <trkpt lat="44.17559" lon="4.67622">
        <ele>189.51696777344</ele>
        <time>2019-04-13T11:10:34Z</time>
      </trkpt>
      <trkpt lat="44.17554" lon="4.67625">
        <ele>188.55578613281</ele>
        <time>2019-04-13T11:11:58Z</time>
      </trkpt>
      <trkpt lat="44.17518" lon="4.67633">
        <ele>188.55578613281</ele>
        <time>2019-04-13T11:12:15Z</time>
      </trkpt>
      <trkpt lat="44.1749" lon="4.67632">
        <ele>187.59436035156</ele>
        <time>2019-04-13T11:12:23Z</time>
      </trkpt>
      <trkpt lat="44.17466" lon="4.67631">
        <ele>183.26843261719</ele>
        <time>2019-04-13T11:12:29Z</time>
      </trkpt>
      <trkpt lat="44.17455" lon="4.67639">
        <ele>180.865234375</ele>
        <time>2019-04-13T11:12:32Z</time>
      </trkpt>
      <trkpt lat="44.17462" lon="4.6768">
        <ele>175.57788085938</ele>
        <time>2019-04-13T11:12:37Z</time>
      </trkpt>
      <trkpt lat="44.17465" lon="4.6769">
        <ele>173.6552734375</ele>
        <time>2019-04-13T11:12:38Z</time>
      </trkpt>
      <trkpt lat="44.17469" lon="4.67721">
        <ele>171.25207519531</ele>
        <time>2019-04-13T11:12:45Z</time>
      </trkpt>
      <trkpt lat="44.17473" lon="4.67734">
        <ele>167.40673828125</ele>
        <time>2019-04-13T11:12:49Z</time>
      </trkpt>
      <trkpt lat="44.17476" lon="4.67737">
        <ele>168.36804199219</ele>
        <time>2019-04-13T11:12:50Z</time>
      </trkpt>
      <trkpt lat="44.17491" lon="4.67746">
        <ele>167.88732910156</ele>
        <time>2019-04-13T11:12:57Z</time>
      </trkpt>
      <trkpt lat="44.17498" lon="4.67751">
        <ele>166.4453125</ele>
        <time>2019-04-13T11:13:01Z</time>
      </trkpt>
      <trkpt lat="44.17524" lon="4.67777">
        <ele>166.92602539062</ele>
        <time>2019-04-13T11:13:13Z</time>
      </trkpt>
      <trkpt lat="44.17554" lon="4.67798">
        <ele>167.88732910156</ele>
        <time>2019-04-13T11:13:28Z</time>
      </trkpt>
      <trkpt lat="44.17585" lon="4.67809">
        <ele>168.84875488281</ele>
        <time>2019-04-13T11:13:40Z</time>
      </trkpt>
      <trkpt lat="44.17588" lon="4.67813">
        <ele>168.36804199219</ele>
        <time>2019-04-13T11:13:50Z</time>
      </trkpt>
      <trkpt lat="44.1759" lon="4.67816">
        <ele>169.81005859375</ele>
        <time>2019-04-13T11:13:54Z</time>
      </trkpt>
      <trkpt lat="44.17592" lon="4.67819">
        <ele>171.73266601562</ele>
        <time>2019-04-13T11:14:01Z</time>
      </trkpt>
      <trkpt lat="44.17596" lon="4.67825">
        <ele>172.69396972656</ele>
        <time>2019-04-13T11:14:08Z</time>
      </trkpt>
      <trkpt lat="44.17599" lon="4.67833">
        <ele>172.21325683594</ele>
        <time>2019-04-13T11:14:21Z</time>
      </trkpt>
      <trkpt lat="44.17598" lon="4.67835">
        <ele>172.21325683594</ele>
        <time>2019-04-13T11:14:35Z</time>
      </trkpt>
      <trkpt lat="44.17601" lon="4.67841">
        <ele>173.6552734375</ele>
        <time>2019-04-13T11:15:01Z</time>
      </trkpt>
      <trkpt lat="44.17604" lon="4.67845">
        <ele>173.6552734375</ele>
        <time>2019-04-13T11:15:04Z</time>
      </trkpt>
      <trkpt lat="44.17606" lon="4.67852">
        <ele>173.6552734375</ele>
        <time>2019-04-13T11:15:08Z</time>
      </trkpt>
      <trkpt lat="44.17611" lon="4.67872">
        <ele>171.25207519531</ele>
        <time>2019-04-13T11:15:14Z</time>
      </trkpt>
      <trkpt lat="44.17621" lon="4.67887">
        <ele>167.40673828125</ele>
        <time>2019-04-13T11:15:18Z</time>
      </trkpt>
      <trkpt lat="44.17627" lon="4.67897">
        <ele>166.92602539062</ele>
        <time>2019-04-13T11:15:20Z</time>
      </trkpt>
      <trkpt lat="44.17633" lon="4.67908">
        <ele>166.4453125</ele>
        <time>2019-04-13T11:15:22Z</time>
      </trkpt>
      <trkpt lat="44.17645" lon="4.67927">
        <ele>162.11950683594</ele>
        <time>2019-04-13T11:15:25Z</time>
      </trkpt>
      <trkpt lat="44.17651" lon="4.67942">
        <ele>160.67749023438</ele>
        <time>2019-04-13T11:15:27Z</time>
      </trkpt>
      <trkpt lat="44.17657" lon="4.67978">
        <ele>159.23547363281</ele>
        <time>2019-04-13T11:15:32Z</time>
      </trkpt>
      <trkpt lat="44.17658" lon="4.68001">
        <ele>156.83215332031</ele>
        <time>2019-04-13T11:15:36Z</time>
      </trkpt>
      <trkpt lat="44.17658" lon="4.68014">
        <ele>153.46765136719</ele>
        <time>2019-04-13T11:15:38Z</time>
      </trkpt>
      <trkpt lat="44.17662" lon="4.68046">
        <ele>150.58361816406</ele>
        <time>2019-04-13T11:15:42Z</time>
      </trkpt>
      <trkpt lat="44.17669" lon="4.68066">
        <ele>149.1416015625</ele>
        <time>2019-04-13T11:15:47Z</time>
      </trkpt>
      <trkpt lat="44.17682" lon="4.68088">
        <ele>148.18041992188</ele>
        <time>2019-04-13T11:15:57Z</time>
      </trkpt>
      <trkpt lat="44.17683" lon="4.68117">
        <ele>145.29638671875</ele>
        <time>2019-04-13T11:16:07Z</time>
      </trkpt>
      <trkpt lat="44.17681" lon="4.68166">
        <ele>143.85437011719</ele>
        <time>2019-04-13T11:16:15Z</time>
      </trkpt>
      <trkpt lat="44.17679" lon="4.68187">
        <ele>143.37365722656</ele>
        <time>2019-04-13T11:16:18Z</time>
      </trkpt>
      <trkpt lat="44.1768" lon="4.68206">
        <ele>143.37365722656</ele>
        <time>2019-04-13T11:16:21Z</time>
      </trkpt>
      <trkpt lat="44.17676" lon="4.68233">
        <ele>141.93176269531</ele>
        <time>2019-04-13T11:16:26Z</time>
      </trkpt>
      <trkpt lat="44.17673" lon="4.68238">
        <ele>141.93176269531</ele>
        <time>2019-04-13T11:16:28Z</time>
      </trkpt>
      <trkpt lat="44.17671" lon="4.68264">
        <ele>139.52844238281</ele>
        <time>2019-04-13T11:16:35Z</time>
      </trkpt>
      <trkpt lat="44.17657" lon="4.68303">
        <ele>137.12524414062</ele>
        <time>2019-04-13T11:16:45Z</time>
      </trkpt>
      <trkpt lat="44.17648" lon="4.68325">
        <ele>135.20251464844</ele>
        <time>2019-04-13T11:16:51Z</time>
      </trkpt>
      <trkpt lat="44.17635" lon="4.68359">
        <ele>132.31860351562</ele>
        <time>2019-04-13T11:16:59Z</time>
      </trkpt>
      <trkpt lat="44.17627" lon="4.68378">
        <ele>129.43469238281</ele>
        <time>2019-04-13T11:17:03Z</time>
      </trkpt>
      <trkpt lat="44.17623" lon="4.68389">
        <ele>127.99255371094</ele>
        <time>2019-04-13T11:17:07Z</time>
      </trkpt>
      <trkpt lat="44.17624" lon="4.68408">
        <ele>127.03137207031</ele>
        <time>2019-04-13T11:17:15Z</time>
      </trkpt>
      <trkpt lat="44.17629" lon="4.68415">
        <ele>128.9541015625</ele>
        <time>2019-04-13T11:17:32Z</time>
      </trkpt>
      <trkpt lat="44.17634" lon="4.68414">
        <ele>128.9541015625</ele>
        <time>2019-04-13T11:17:40Z</time>
      </trkpt>
      <trkpt lat="44.17645" lon="4.68411">
        <ele>129.91528320312</ele>
        <time>2019-04-13T11:17:48Z</time>
      </trkpt>
      <trkpt lat="44.17646" lon="4.68406">
        <ele>130.39599609375</ele>
        <time>2019-04-13T11:17:50Z</time>
      </trkpt>
      <trkpt lat="44.1765" lon="4.68399">
        <ele>130.87670898438</ele>
        <time>2019-04-13T11:17:54Z</time>
      </trkpt>
      <trkpt lat="44.17657" lon="4.68398">
        <ele>130.87670898438</ele>
        <time>2019-04-13T11:17:58Z</time>
      </trkpt>
      <trkpt lat="44.17661" lon="4.68407">
        <ele>130.87670898438</ele>
        <time>2019-04-13T11:18:03Z</time>
      </trkpt>
      <trkpt lat="44.17665" lon="4.68428">
        <ele>127.99255371094</ele>
        <time>2019-04-13T11:18:16Z</time>
      </trkpt>
      <trkpt lat="44.17665" lon="4.68427">
        <ele>127.51196289062</ele>
        <time>2019-04-13T11:18:25Z</time>
      </trkpt>
      <trkpt lat="44.17662" lon="4.6844">
        <ele>127.51196289062</ele>
        <time>2019-04-13T11:18:31Z</time>
      </trkpt>
      <trkpt lat="44.17662" lon="4.68476">
        <ele>129.43469238281</ele>
        <time>2019-04-13T11:18:45Z</time>
      </trkpt>
      <trkpt lat="44.17665" lon="4.68512">
        <ele>126.55065917969</ele>
        <time>2019-04-13T11:18:57Z</time>
      </trkpt>
      <trkpt lat="44.17676" lon="4.68567">
        <ele>124.62805175781</ele>
        <time>2019-04-13T11:19:10Z</time>
      </trkpt>
      <trkpt lat="44.17675" lon="4.68571">
        <ele>125.10876464844</ele>
        <time>2019-04-13T11:19:11Z</time>
      </trkpt>
      <trkpt lat="44.17676" lon="4.68576">
        <ele>124.62805175781</ele>
        <time>2019-04-13T11:19:13Z</time>
      </trkpt>
      <trkpt lat="44.17681" lon="4.68593">
        <ele>123.18615722656</ele>
        <time>2019-04-13T11:19:18Z</time>
      </trkpt>
      <trkpt lat="44.17687" lon="4.68604">
        <ele>122.22473144531</ele>
        <time>2019-04-13T11:19:20Z</time>
      </trkpt>
      <trkpt lat="44.17691" lon="4.68626">
        <ele>122.70544433594</ele>
        <time>2019-04-13T11:19:24Z</time>
      </trkpt>
      <trkpt lat="44.17675" lon="4.68655">
        <ele>123.66674804688</ele>
        <time>2019-04-13T11:19:34Z</time>
      </trkpt>
      <trkpt lat="44.1767" lon="4.68659">
        <ele>123.18615722656</ele>
        <time>2019-04-13T11:19:45Z</time>
      </trkpt>
      <trkpt lat="44.17661" lon="4.68692">
        <ele>122.22473144531</ele>
        <time>2019-04-13T11:19:55Z</time>
      </trkpt>
      <trkpt lat="44.17659" lon="4.68695">
        <ele>122.22473144531</ele>
        <time>2019-04-13T11:20:14Z</time>
      </trkpt>
      <trkpt lat="44.1766" lon="4.68723">
        <ele>117.41821289062</ele>
        <time>2019-04-13T11:20:20Z</time>
      </trkpt>
      <trkpt lat="44.17661" lon="4.6873">
        <ele>116.45678710938</ele>
        <time>2019-04-13T11:20:21Z</time>
      </trkpt>
      <trkpt lat="44.17661" lon="4.68741">
        <ele>115.49560546875</ele>
        <time>2019-04-13T11:20:23Z</time>
      </trkpt>
      <trkpt lat="44.17666" lon="4.68755">
        <ele>112.61157226562</ele>
        <time>2019-04-13T11:20:26Z</time>
      </trkpt>
      <trkpt lat="44.17665" lon="4.68774">
        <ele>108.76623535156</ele>
        <time>2019-04-13T11:20:31Z</time>
      </trkpt>
      <trkpt lat="44.17663" lon="4.68785">
        <ele>108.28564453125</ele>
        <time>2019-04-13T11:20:33Z</time>
      </trkpt>
      <trkpt lat="44.17658" lon="4.68785">
        <ele>109.72766113281</ele>
        <time>2019-04-13T11:20:35Z</time>
      </trkpt>
      <trkpt lat="44.17654" lon="4.68783">
        <ele>110.20825195312</ele>
        <time>2019-04-13T11:20:37Z</time>
      </trkpt>
      <trkpt lat="44.17647" lon="4.68787">
        <ele>111.65026855469</ele>
        <time>2019-04-13T11:20:41Z</time>
      </trkpt>
      <trkpt lat="44.17638" lon="4.68783">
        <ele>111.65026855469</ele>
        <time>2019-04-13T11:20:45Z</time>
      </trkpt>
      <trkpt lat="44.17635" lon="4.68783">
        <ele>112.13098144531</ele>
        <time>2019-04-13T11:20:47Z</time>
      </trkpt>
      <trkpt lat="44.17615" lon="4.68784">
        <ele>113.09228515625</ele>
        <time>2019-04-13T11:20:57Z</time>
      </trkpt>
      <trkpt lat="44.17595" lon="4.68782">
        <ele>111.16955566406</ele>
        <time>2019-04-13T11:21:06Z</time>
      </trkpt>
      <trkpt lat="44.17593" lon="4.68781">
        <ele>110.20825195312</ele>
        <time>2019-04-13T11:21:07Z</time>
      </trkpt>
      <trkpt lat="44.17589" lon="4.68786">
        <ele>110.20825195312</ele>
        <time>2019-04-13T11:21:15Z</time>
      </trkpt>
      <trkpt lat="44.17585" lon="4.68794">
        <ele>110.68884277344</ele>
        <time>2019-04-13T11:21:20Z</time>
      </trkpt>
      <trkpt lat="44.17581" lon="4.68797">
        <ele>109.72766113281</ele>
        <time>2019-04-13T11:21:22Z</time>
      </trkpt>
      <trkpt lat="44.17573" lon="4.68815">
        <ele>108.28564453125</ele>
        <time>2019-04-13T11:21:29Z</time>
      </trkpt>
      <trkpt lat="44.17571" lon="4.68828">
        <ele>109.24694824219</ele>
        <time>2019-04-13T11:21:34Z</time>
      </trkpt>
      <trkpt lat="44.17561" lon="4.68854">
        <ele>110.68884277344</ele>
        <time>2019-04-13T11:21:47Z</time>
      </trkpt>
      <trkpt lat="44.17559" lon="4.68866">
        <ele>109.24694824219</ele>
        <time>2019-04-13T11:21:51Z</time>
      </trkpt>
      <trkpt lat="44.1756" lon="4.68876">
        <ele>107.32434082031</ele>
        <time>2019-04-13T11:21:54Z</time>
      </trkpt>
      <trkpt lat="44.17557" lon="4.68904">
        <ele>103.95971679688</ele>
        <time>2019-04-13T11:22:01Z</time>
      </trkpt>
      <trkpt lat="44.17561" lon="4.68933">
        <ele>101.07568359375</ele>
        <time>2019-04-13T11:22:09Z</time>
      </trkpt>
      <trkpt lat="44.17563" lon="4.68941">
        <ele>101.07568359375</ele>
        <time>2019-04-13T11:22:11Z</time>
      </trkpt>
      <trkpt lat="44.17552" lon="4.68957">
        <ele>100.11450195312</ele>
        <time>2019-04-13T11:22:19Z</time>
      </trkpt>
      <trkpt lat="44.17544" lon="4.6897">
        <ele>98.672485351562</ele>
        <time>2019-04-13T11:22:25Z</time>
      </trkpt>
      <trkpt lat="44.17547" lon="4.68991">
        <ele>97.23046875</ele>
        <time>2019-04-13T11:22:33Z</time>
      </trkpt>
      <trkpt lat="44.17556" lon="4.69007">
        <ele>98.19189453125</ele>
        <time>2019-04-13T11:22:40Z</time>
      </trkpt>
      <trkpt lat="44.17556" lon="4.69009">
        <ele>98.19189453125</ele>
        <time>2019-04-13T11:22:50Z</time>
      </trkpt>
      <trkpt lat="44.17556" lon="4.69012">
        <ele>97.23046875</ele>
        <time>2019-04-13T11:22:52Z</time>
      </trkpt>
      <trkpt lat="44.17569" lon="4.69025">
        <ele>96.749877929688</ele>
        <time>2019-04-13T11:23:01Z</time>
      </trkpt>
      <trkpt lat="44.17584" lon="4.69044">
        <ele>93.865844726562</ele>
        <time>2019-04-13T11:23:09Z</time>
      </trkpt>
      <trkpt lat="44.17605" lon="4.69065">
        <ele>93.385131835938</ele>
        <time>2019-04-13T11:23:21Z</time>
      </trkpt>
      <trkpt lat="44.17634" lon="4.69088">
        <ele>90.501342773438</ele>
        <time>2019-04-13T11:23:32Z</time>
      </trkpt>
      <trkpt lat="44.17637" lon="4.6909">
        <ele>90.98193359375</ele>
        <time>2019-04-13T11:23:33Z</time>
      </trkpt>
      <trkpt lat="44.17654" lon="4.69107">
        <ele>90.020629882812</ele>
        <time>2019-04-13T11:23:39Z</time>
      </trkpt>
      <trkpt lat="44.17672" lon="4.69131">
        <ele>88.578735351562</ele>
        <time>2019-04-13T11:23:51Z</time>
      </trkpt>
      <trkpt lat="44.17673" lon="4.69137">
        <ele>88.098022460938</ele>
        <time>2019-04-13T11:23:53Z</time>
      </trkpt>
      <trkpt lat="44.17671" lon="4.69166">
        <ele>82.810791015625</ele>
        <time>2019-04-13T11:23:57Z</time>
      </trkpt>
      <trkpt lat="44.17678" lon="4.6918">
        <ele>83.291381835938</ele>
        <time>2019-04-13T11:24:01Z</time>
      </trkpt>
      <trkpt lat="44.17688" lon="4.69213">
        <ele>82.810791015625</ele>
        <time>2019-04-13T11:24:09Z</time>
      </trkpt>
      <trkpt lat="44.17702" lon="4.69244">
        <ele>82.330078125</ele>
        <time>2019-04-13T11:24:15Z</time>
      </trkpt>
      <trkpt lat="44.17712" lon="4.69278">
        <ele>80.88818359375</ele>
        <time>2019-04-13T11:24:21Z</time>
      </trkpt>
      <trkpt lat="44.17728" lon="4.69314">
        <ele>78.965454101562</ele>
        <time>2019-04-13T11:24:29Z</time>
      </trkpt>
      <trkpt lat="44.17728" lon="4.69328">
        <ele>78.004028320312</ele>
        <time>2019-04-13T11:24:31Z</time>
      </trkpt>
      <trkpt lat="44.17726" lon="4.69347">
        <ele>77.5234375</ele>
        <time>2019-04-13T11:24:35Z</time>
      </trkpt>
      <trkpt lat="44.17713" lon="4.69357">
        <ele>79.926635742188</ele>
        <time>2019-04-13T11:24:45Z</time>
      </trkpt>
      <trkpt lat="44.17694" lon="4.69376">
        <ele>78.004028320312</ele>
        <time>2019-04-13T11:24:54Z</time>
      </trkpt>
      <trkpt lat="44.17658" lon="4.69404">
        <ele>77.5234375</ele>
        <time>2019-04-13T11:25:06Z</time>
      </trkpt>
      <trkpt lat="44.17607" lon="4.69439">
        <ele>79.926635742188</ele>
        <time>2019-04-13T11:25:25Z</time>
      </trkpt>
      <trkpt lat="44.17602" lon="4.69441">
        <ele>81.849365234375</ele>
        <time>2019-04-13T11:25:27Z</time>
      </trkpt>
      <trkpt lat="44.17575" lon="4.6945">
        <ele>81.368774414062</ele>
        <time>2019-04-13T11:25:40Z</time>
      </trkpt>
      <trkpt lat="44.17558" lon="4.69461">
        <ele>82.810791015625</ele>
        <time>2019-04-13T11:25:46Z</time>
      </trkpt>
      <trkpt lat="44.17531" lon="4.6948">
        <ele>84.252685546875</ele>
        <time>2019-04-13T11:26:01Z</time>
      </trkpt>
      <trkpt lat="44.17495" lon="4.69499">
        <ele>84.252685546875</ele>
        <time>2019-04-13T11:26:16Z</time>
      </trkpt>
      <trkpt lat="44.17487" lon="4.69506">
        <ele>84.7333984375</ele>
        <time>2019-04-13T11:26:20Z</time>
      </trkpt>
      <trkpt lat="44.1748" lon="4.6952">
        <ele>84.7333984375</ele>
        <time>2019-04-13T11:26:25Z</time>
      </trkpt>
      <trkpt lat="44.1746" lon="4.69518">
        <ele>86.17529296875</ele>
        <time>2019-04-13T11:26:33Z</time>
      </trkpt>
      <trkpt lat="44.17458" lon="4.69517">
        <ele>86.17529296875</ele>
        <time>2019-04-13T11:26:34Z</time>
      </trkpt>
      <trkpt lat="44.17448" lon="4.6952">
        <ele>85.213989257812</ele>
        <time>2019-04-13T11:26:38Z</time>
      </trkpt>
      <trkpt lat="44.17439" lon="4.6953">
        <ele>86.656005859375</ele>
        <time>2019-04-13T11:26:43Z</time>
      </trkpt>
      <trkpt lat="44.17437" lon="4.69546">
        <ele>83.77197265625</ele>
        <time>2019-04-13T11:26:47Z</time>
      </trkpt>
      <trkpt lat="44.17432" lon="4.6955">
        <ele>85.694580078125</ele>
        <time>2019-04-13T11:26:50Z</time>
      </trkpt>
      <trkpt lat="44.17406" lon="4.69566">
        <ele>87.6171875</ele>
        <time>2019-04-13T11:27:04Z</time>
      </trkpt>
      <trkpt lat="44.17404" lon="4.69581">
        <ele>87.136596679688</ele>
        <time>2019-04-13T11:27:09Z</time>
      </trkpt>
      <trkpt lat="44.17408" lon="4.69593">
        <ele>86.656005859375</ele>
        <time>2019-04-13T11:27:13Z</time>
      </trkpt>
      <trkpt lat="44.17396" lon="4.6961">
        <ele>86.17529296875</ele>
        <time>2019-04-13T11:27:21Z</time>
      </trkpt>
      <trkpt lat="44.17359" lon="4.69625">
        <ele>87.136596679688</ele>
        <time>2019-04-13T11:27:35Z</time>
      </trkpt>
      <trkpt lat="44.17354" lon="4.69627">
        <ele>87.6171875</ele>
        <time>2019-04-13T11:27:37Z</time>
      </trkpt>
      <trkpt lat="44.17349" lon="4.69653">
        <ele>86.17529296875</ele>
        <time>2019-04-13T11:27:43Z</time>
      </trkpt>
      <trkpt lat="44.17355" lon="4.69669">
        <ele>82.330078125</ele>
        <time>2019-04-13T11:27:46Z</time>
      </trkpt>
      <trkpt lat="44.17365" lon="4.69687">
        <ele>81.368774414062</ele>
        <time>2019-04-13T11:27:50Z</time>
      </trkpt>
      <trkpt lat="44.17367" lon="4.69735">
        <ele>80.407470703125</ele>
        <time>2019-04-13T11:27:57Z</time>
      </trkpt>
      <trkpt lat="44.17365" lon="4.69746">
        <ele>81.368774414062</ele>
        <time>2019-04-13T11:27:59Z</time>
      </trkpt>
      <trkpt lat="44.17357" lon="4.69746">
        <ele>82.330078125</ele>
        <time>2019-04-13T11:28:03Z</time>
      </trkpt>
      <trkpt lat="44.17347" lon="4.6975">
        <ele>82.330078125</ele>
        <time>2019-04-13T11:28:08Z</time>
      </trkpt>
      <trkpt lat="44.17346" lon="4.6976">
        <ele>82.330078125</ele>
        <time>2019-04-13T11:28:11Z</time>
      </trkpt>
      <trkpt lat="44.17331" lon="4.69756">
        <ele>82.330078125</ele>
        <time>2019-04-13T11:28:17Z</time>
      </trkpt>
      <trkpt lat="44.17325" lon="4.69754">
        <ele>84.252685546875</ele>
        <time>2019-04-13T11:28:19Z</time>
      </trkpt>
      <trkpt lat="44.17318" lon="4.69748">
        <ele>85.213989257812</ele>
        <time>2019-04-13T11:28:23Z</time>
      </trkpt>
      <trkpt lat="44.17312" lon="4.69743">
        <ele>86.656005859375</ele>
        <time>2019-04-13T11:28:27Z</time>
      </trkpt>
      <trkpt lat="44.17304" lon="4.6974">
        <ele>88.578735351562</ele>
        <time>2019-04-13T11:28:32Z</time>
      </trkpt>
      <trkpt lat="44.17296" lon="4.69741">
        <ele>89.059326171875</ele>
        <time>2019-04-13T11:28:38Z</time>
      </trkpt>
      <trkpt lat="44.17287" lon="4.69734">
        <ele>91.462524414062</ele>
        <time>2019-04-13T11:28:45Z</time>
      </trkpt>
      <trkpt lat="44.17284" lon="4.69732">
        <ele>91.943237304688</ele>
        <time>2019-04-13T11:28:47Z</time>
      </trkpt>
      <trkpt lat="44.17277" lon="4.69727">
        <ele>93.385131835938</ele>
        <time>2019-04-13T11:28:53Z</time>
      </trkpt>
      <trkpt lat="44.17258" lon="4.69723">
        <ele>96.269287109375</ele>
        <time>2019-04-13T11:29:08Z</time>
      </trkpt>
      <trkpt lat="44.17246" lon="4.6971">
        <ele>97.711181640625</ele>
        <time>2019-04-13T11:29:19Z</time>
      </trkpt>
      <trkpt lat="44.17231" lon="4.69715">
        <ele>97.23046875</ele>
        <time>2019-04-13T11:29:31Z</time>
      </trkpt>
      <trkpt lat="44.17231" lon="4.6972">
        <ele>97.23046875</ele>
        <time>2019-04-13T11:29:32Z</time>
      </trkpt>
      <trkpt lat="44.17219" lon="4.69727">
        <ele>98.19189453125</ele>
        <time>2019-04-13T11:29:39Z</time>
      </trkpt>
      <trkpt lat="44.17207" lon="4.69733">
        <ele>100.11450195312</ele>
        <time>2019-04-13T11:29:47Z</time>
      </trkpt>
      <trkpt lat="44.17205" lon="4.69739">
        <ele>101.55639648438</ele>
        <time>2019-04-13T11:29:51Z</time>
      </trkpt>
      <trkpt lat="44.17205" lon="4.69741">
        <ele>101.07568359375</ele>
        <time>2019-04-13T11:29:52Z</time>
      </trkpt>
      <trkpt lat="44.17203" lon="4.69755">
        <ele>103.47900390625</ele>
        <time>2019-04-13T11:30:10Z</time>
      </trkpt>
      <trkpt lat="44.17204" lon="4.6978">
        <ele>100.11450195312</ele>
        <time>2019-04-13T11:30:19Z</time>
      </trkpt>
      <trkpt lat="44.17203" lon="4.69786">
        <ele>99.6337890625</ele>
        <time>2019-04-13T11:30:20Z</time>
      </trkpt>
      <trkpt lat="44.17206" lon="4.69822">
        <ele>97.23046875</ele>
        <time>2019-04-13T11:30:25Z</time>
      </trkpt>
      <trkpt lat="44.17208" lon="4.6984">
        <ele>95.307739257812</ele>
        <time>2019-04-13T11:30:27Z</time>
      </trkpt>
      <trkpt lat="44.17208" lon="4.69857">
        <ele>94.8271484375</ele>
        <time>2019-04-13T11:30:29Z</time>
      </trkpt>
      <trkpt lat="44.17205" lon="4.69891">
        <ele>93.385131835938</ele>
        <time>2019-04-13T11:30:36Z</time>
      </trkpt>
      <trkpt lat="44.17196" lon="4.69893">
        <ele>93.385131835938</ele>
        <time>2019-04-13T11:30:41Z</time>
      </trkpt>
      <trkpt lat="44.17171" lon="4.69903">
        <ele>89.539916992188</ele>
        <time>2019-04-13T11:30:48Z</time>
      </trkpt>
      <trkpt lat="44.17168" lon="4.69905">
        <ele>89.059326171875</ele>
        <time>2019-04-13T11:30:49Z</time>
      </trkpt>
      <trkpt lat="44.17167" lon="4.69916">
        <ele>89.539916992188</ele>
        <time>2019-04-13T11:30:56Z</time>
      </trkpt>
      <trkpt lat="44.17169" lon="4.69918">
        <ele>90.501342773438</ele>
        <time>2019-04-13T11:31:00Z</time>
      </trkpt>
      <trkpt lat="44.17178" lon="4.6993">
        <ele>91.462524414062</ele>
        <time>2019-04-13T11:31:12Z</time>
      </trkpt>
      <trkpt lat="44.17181" lon="4.69933">
        <ele>90.501342773438</ele>
        <time>2019-04-13T11:31:14Z</time>
      </trkpt>
      <trkpt lat="44.17198" lon="4.69953">
        <ele>89.059326171875</ele>
        <time>2019-04-13T11:31:21Z</time>
      </trkpt>
      <trkpt lat="44.17213" lon="4.69963">
        <ele>88.578735351562</ele>
        <time>2019-04-13T11:31:25Z</time>
      </trkpt>
      <trkpt lat="44.1724" lon="4.69964">
        <ele>85.694580078125</ele>
        <time>2019-04-13T11:31:31Z</time>
      </trkpt>
      <trkpt lat="44.17251" lon="4.69965">
        <ele>83.77197265625</ele>
        <time>2019-04-13T11:31:33Z</time>
      </trkpt>
      <trkpt lat="44.17268" lon="4.69961">
        <ele>82.330078125</ele>
        <time>2019-04-13T11:31:36Z</time>
      </trkpt>
      <trkpt lat="44.17274" lon="4.69959">
        <ele>81.849365234375</ele>
        <time>2019-04-13T11:31:37Z</time>
      </trkpt>
      <trkpt lat="44.17303" lon="4.6996">
        <ele>78.484741210938</ele>
        <time>2019-04-13T11:31:42Z</time>
      </trkpt>
      <trkpt lat="44.17309" lon="4.69959">
        <ele>79.446044921875</ele>
        <time>2019-04-13T11:31:43Z</time>
      </trkpt>
      <trkpt lat="44.17347" lon="4.69963">
        <ele>76.562133789062</ele>
        <time>2019-04-13T11:31:50Z</time>
      </trkpt>
      <trkpt lat="44.17357" lon="4.6997">
        <ele>74.639526367188</ele>
        <time>2019-04-13T11:31:52Z</time>
      </trkpt>
      <trkpt lat="44.17374" lon="4.6998">
        <ele>73.197631835938</ele>
        <time>2019-04-13T11:31:55Z</time>
      </trkpt>
      <trkpt lat="44.17383" lon="4.70014">
        <ele>73.197631835938</ele>
        <time>2019-04-13T11:32:02Z</time>
      </trkpt>
      <trkpt lat="44.17376" lon="4.70035">
        <ele>71.27490234375</ele>
        <time>2019-04-13T11:32:06Z</time>
      </trkpt>
      <trkpt lat="44.1737" lon="4.70064">
        <ele>69.352294921875</ele>
        <time>2019-04-13T11:32:12Z</time>
      </trkpt>
      <trkpt lat="44.17379" lon="4.70075">
        <ele>70.3134765625</ele>
        <time>2019-04-13T11:32:15Z</time>
      </trkpt>
      <trkpt lat="44.1738" lon="4.70084">
        <ele>70.3134765625</ele>
        <time>2019-04-13T11:32:17Z</time>
      </trkpt>
      <trkpt lat="44.17371" lon="4.70118">
        <ele>72.236206054688</ele>
        <time>2019-04-13T11:32:27Z</time>
      </trkpt>
      <trkpt lat="44.17358" lon="4.70127">
        <ele>75.120239257812</ele>
        <time>2019-04-13T11:32:37Z</time>
      </trkpt>
      <trkpt lat="44.17357" lon="4.70141">
        <ele>77.042846679688</ele>
        <time>2019-04-13T11:32:47Z</time>
      </trkpt>
      <trkpt lat="44.17393" lon="4.7015">
        <ele>74.639526367188</ele>
        <time>2019-04-13T11:33:03Z</time>
      </trkpt>
      <trkpt lat="44.17411" lon="4.70159">
        <ele>73.197631835938</ele>
        <time>2019-04-13T11:33:08Z</time>
      </trkpt>
      <trkpt lat="44.17416" lon="4.70185">
        <ele>74.639526367188</ele>
        <time>2019-04-13T11:33:15Z</time>
      </trkpt>
      <trkpt lat="44.17408" lon="4.70206">
        <ele>76.081420898438</ele>
        <time>2019-04-13T11:33:23Z</time>
      </trkpt>
      <trkpt lat="44.17425" lon="4.70233">
        <ele>74.158813476562</ele>
        <time>2019-04-13T11:33:32Z</time>
      </trkpt>
      <trkpt lat="44.1744" lon="4.70251">
        <ele>70.3134765625</ele>
        <time>2019-04-13T11:33:36Z</time>
      </trkpt>
      <trkpt lat="44.17471" lon="4.70273">
        <ele>67.910278320312</ele>
        <time>2019-04-13T11:33:43Z</time>
      </trkpt>
      <trkpt lat="44.17483" lon="4.70287">
        <ele>67.4296875</ele>
        <time>2019-04-13T11:33:46Z</time>
      </trkpt>
      <trkpt lat="44.17511" lon="4.7031">
        <ele>65.507080078125</ele>
        <time>2019-04-13T11:33:54Z</time>
      </trkpt>
      <trkpt lat="44.17524" lon="4.70322">
        <ele>65.987670898438</ele>
        <time>2019-04-13T11:33:58Z</time>
      </trkpt>
      <trkpt lat="44.17526" lon="4.70331">
        <ele>65.987670898438</ele>
        <time>2019-04-13T11:34:00Z</time>
      </trkpt>
      <trkpt lat="44.17546" lon="4.70356">
        <ele>63.103637695312</ele>
        <time>2019-04-13T11:34:08Z</time>
      </trkpt>
      <trkpt lat="44.17542" lon="4.70361">
        <ele>62.142333984375</ele>
        <time>2019-04-13T11:34:10Z</time>
      </trkpt>
      <trkpt lat="44.17538" lon="4.70375">
        <ele>60.700317382812</ele>
        <time>2019-04-13T11:34:14Z</time>
      </trkpt>
      <trkpt lat="44.1754" lon="4.70377">
        <ele>60.2197265625</ele>
        <time>2019-04-13T11:34:15Z</time>
      </trkpt>
      <trkpt lat="44.17555" lon="4.70382">
        <ele>60.700317382812</ele>
        <time>2019-04-13T11:34:19Z</time>
      </trkpt>
      <trkpt lat="44.17566" lon="4.70382">
        <ele>59.258422851562</ele>
        <time>2019-04-13T11:34:21Z</time>
      </trkpt>
      <trkpt lat="44.17575" lon="4.70383">
        <ele>59.258422851562</ele>
        <time>2019-04-13T11:34:23Z</time>
      </trkpt>
      <trkpt lat="44.1758" lon="4.70401">
        <ele>54.932373046875</ele>
        <time>2019-04-13T11:34:29Z</time>
      </trkpt>
      <trkpt lat="44.17578" lon="4.70409">
        <ele>53.490478515625</ele>
        <time>2019-04-13T11:34:31Z</time>
      </trkpt>
      <trkpt lat="44.17576" lon="4.70425">
        <ele>53.97119140625</ele>
        <time>2019-04-13T11:34:42Z</time>
      </trkpt>
      <trkpt lat="44.17575" lon="4.70428">
        <ele>53.009765625</ele>
        <time>2019-04-13T11:34:51Z</time>
      </trkpt>
      <trkpt lat="44.17581" lon="4.70438">
        <ele>53.490478515625</ele>
        <time>2019-04-13T11:34:55Z</time>
      </trkpt>
      <trkpt lat="44.17587" lon="4.70444">
        <ele>52.529174804688</ele>
        <time>2019-04-13T11:34:57Z</time>
      </trkpt>
      <trkpt lat="44.17592" lon="4.70453">
        <ele>51.56787109375</ele>
        <time>2019-04-13T11:34:59Z</time>
      </trkpt>
      <trkpt lat="44.17624" lon="4.70489">
        <ele>47.722534179688</ele>
        <time>2019-04-13T11:35:09Z</time>
      </trkpt>
      <trkpt lat="44.17628" lon="4.70492">
        <ele>47.241821289062</ele>
        <time>2019-04-13T11:35:10Z</time>
      </trkpt>
      <trkpt lat="44.17632" lon="4.70492">
        <ele>47.241821289062</ele>
        <time>2019-04-13T11:35:11Z</time>
      </trkpt>
      <trkpt lat="44.17648" lon="4.70477">
        <ele>49.645263671875</ele>
        <time>2019-04-13T11:35:20Z</time>
      </trkpt>
      <trkpt lat="44.17657" lon="4.70474">
        <ele>50.606567382812</ele>
        <time>2019-04-13T11:35:24Z</time>
      </trkpt>
      <trkpt lat="44.17663" lon="4.7047">
        <ele>50.606567382812</ele>
        <time>2019-04-13T11:35:27Z</time>
      </trkpt>
      <trkpt lat="44.17668" lon="4.70463">
        <ele>52.048583984375</ele>
        <time>2019-04-13T11:35:30Z</time>
      </trkpt>
      <trkpt lat="44.17674" lon="4.70449">
        <ele>51.56787109375</ele>
        <time>2019-04-13T11:35:35Z</time>
      </trkpt>
      <trkpt lat="44.17682" lon="4.7042">
        <ele>52.529174804688</ele>
        <time>2019-04-13T11:35:46Z</time>
      </trkpt>
      <trkpt lat="44.17683" lon="4.70416">
        <ele>52.529174804688</ele>
        <time>2019-04-13T11:35:48Z</time>
      </trkpt>
      <trkpt lat="44.17678" lon="4.70413">
        <ele>52.048583984375</ele>
        <time>2019-04-13T11:35:52Z</time>
      </trkpt>
      <trkpt lat="44.17675" lon="4.70404">
        <ele>52.529174804688</ele>
        <time>2019-04-13T11:35:56Z</time>
      </trkpt>
      <trkpt lat="44.17676" lon="4.704">
        <ele>52.048583984375</ele>
        <time>2019-04-13T11:35:59Z</time>
      </trkpt>
      <trkpt lat="44.17678" lon="4.7039">
        <ele>53.009765625</ele>
        <time>2019-04-13T11:36:10Z</time>
      </trkpt>
      <trkpt lat="44.17678" lon="4.70387">
        <ele>53.009765625</ele>
        <time>2019-04-13T11:36:12Z</time>
      </trkpt>
      <trkpt lat="44.1768" lon="4.70378">
        <ele>52.529174804688</ele>
        <time>2019-04-13T11:36:17Z</time>
      </trkpt>
      <trkpt lat="44.17678" lon="4.7037">
        <ele>53.009765625</ele>
        <time>2019-04-13T11:36:21Z</time>
      </trkpt>
      <trkpt lat="44.17657" lon="4.7036">
        <ele>52.048583984375</ele>
        <time>2019-04-13T11:36:31Z</time>
      </trkpt>
      <trkpt lat="44.17637" lon="4.70338">
        <ele>53.009765625</ele>
        <time>2019-04-13T11:36:41Z</time>
      </trkpt>
      <trkpt lat="44.17627" lon="4.70314">
        <ele>55.893798828125</ele>
        <time>2019-04-13T11:36:50Z</time>
      </trkpt>
      <trkpt lat="44.17614" lon="4.70303">
        <ele>54.932373046875</ele>
        <time>2019-04-13T11:36:58Z</time>
      </trkpt>
      <trkpt lat="44.17602" lon="4.70284">
        <ele>55.4130859375</ele>
        <time>2019-04-13T11:37:05Z</time>
      </trkpt>
      <trkpt lat="44.17596" lon="4.70263">
        <ele>56.855102539062</ele>
        <time>2019-04-13T11:37:13Z</time>
      </trkpt>
      <trkpt lat="44.17584" lon="4.70253">
        <ele>56.855102539062</ele>
        <time>2019-04-13T11:37:20Z</time>
      </trkpt>
      <trkpt lat="44.17577" lon="4.70229">
        <ele>58.297119140625</ele>
        <time>2019-04-13T11:37:31Z</time>
      </trkpt>
      <trkpt lat="44.17578" lon="4.70221">
        <ele>59.258422851562</ele>
        <time>2019-04-13T11:37:48Z</time>
      </trkpt>
      <trkpt lat="44.17578" lon="4.70221">
        <ele>59.258422851562</ele>
        <time>2019-04-13T11:37:49Z</time>
      </trkpt>
      <trkpt lat="44.17583" lon="4.70217">
        <ele>59.739135742188</ele>
        <time>2019-04-13T11:37:54Z</time>
      </trkpt>
      <trkpt lat="44.17583" lon="4.70208">
        <ele>60.2197265625</ele>
        <time>2019-04-13T11:37:58Z</time>
      </trkpt>
      <trkpt lat="44.1757" lon="4.70177">
        <ele>61.661743164062</ele>
        <time>2019-04-13T11:38:10Z</time>
      </trkpt>
      <trkpt lat="44.1757" lon="4.70173">
        <ele>61.661743164062</ele>
        <time>2019-04-13T11:38:15Z</time>
      </trkpt>
      <trkpt lat="44.17572" lon="4.70173">
        <ele>60.2197265625</ele>
        <time>2019-04-13T11:38:17Z</time>
      </trkpt>
      <trkpt lat="44.17589" lon="4.70169">
        <ele>61.181030273438</ele>
        <time>2019-04-13T11:38:33Z</time>
      </trkpt>
      <trkpt lat="44.17594" lon="4.70168">
        <ele>61.181030273438</ele>
        <time>2019-04-13T11:38:41Z</time>
      </trkpt>
      <trkpt lat="44.17595" lon="4.70161">
        <ele>61.661743164062</ele>
        <time>2019-04-13T11:38:48Z</time>
      </trkpt>
      <trkpt lat="44.17594" lon="4.70174">
        <ele>61.661743164062</ele>
        <time>2019-04-13T11:38:56Z</time>
      </trkpt>
      <trkpt lat="44.17591" lon="4.70197">
        <ele>62.142333984375</ele>
        <time>2019-04-13T11:39:13Z</time>
      </trkpt>
      <trkpt lat="44.17591" lon="4.70204">
        <ele>61.661743164062</ele>
        <time>2019-04-13T11:39:35Z</time>
      </trkpt>
      <trkpt lat="44.17591" lon="4.70211">
        <ele>61.661743164062</ele>
        <time>2019-04-13T11:39:40Z</time>
      </trkpt>
      <trkpt lat="44.17593" lon="4.70217">
        <ele>63.103637695312</ele>
        <time>2019-04-13T11:39:45Z</time>
      </trkpt>
      <trkpt lat="44.17602" lon="4.7022">
        <ele>60.700317382812</ele>
        <time>2019-04-13T11:39:58Z</time>
      </trkpt>
      <trkpt lat="44.17605" lon="4.70221">
        <ele>60.700317382812</ele>
        <time>2019-04-13T11:40:07Z</time>
      </trkpt>
      <trkpt lat="44.17628" lon="4.70222">
        <ele>61.661743164062</ele>
        <time>2019-04-13T11:40:20Z</time>
      </trkpt>
      <trkpt lat="44.17669" lon="4.70238">
        <ele>60.700317382812</ele>
        <time>2019-04-13T11:40:38Z</time>
      </trkpt>
      <trkpt lat="44.17709" lon="4.70256">
        <ele>60.2197265625</ele>
        <time>2019-04-13T11:40:55Z</time>
      </trkpt>
      <trkpt lat="44.17715" lon="4.70256">
        <ele>62.622924804688</ele>
        <time>2019-04-13T11:40:59Z</time>
      </trkpt>
      <trkpt lat="44.17717" lon="4.70255">
        <ele>63.584350585938</ele>
        <time>2019-04-13T11:41:01Z</time>
      </trkpt>
      <trkpt lat="44.17719" lon="4.70249">
        <ele>65.0263671875</ele>
        <time>2019-04-13T11:41:05Z</time>
      </trkpt>
      <trkpt lat="44.17718" lon="4.70243">
        <ele>65.0263671875</ele>
        <time>2019-04-13T11:41:08Z</time>
      </trkpt>
      <trkpt lat="44.17718" lon="4.70234">
        <ele>65.0263671875</ele>
        <time>2019-04-13T11:41:12Z</time>
      </trkpt>
      <trkpt lat="44.17718" lon="4.70228">
        <ele>65.0263671875</ele>
        <time>2019-04-13T11:41:28Z</time>
      </trkpt>
      <trkpt lat="44.17718" lon="4.70228">
        <ele>62.142333984375</ele>
        <time>2019-04-13T11:41:34Z</time>
      </trkpt>
      <trkpt lat="44.17719" lon="4.70227">
        <ele>64.065063476562</ele>
        <time>2019-04-13T11:42:20Z</time>
      </trkpt>
      <trkpt lat="44.17718" lon="4.70208">
        <ele>65.987670898438</ele>
        <time>2019-04-13T11:42:55Z</time>
      </trkpt>
      <trkpt lat="44.17717" lon="4.70163">
        <ele>65.507080078125</ele>
        <time>2019-04-13T11:43:11Z</time>
      </trkpt>
      <trkpt lat="44.17717" lon="4.70115">
        <ele>68.87158203125</ele>
        <time>2019-04-13T11:43:26Z</time>
      </trkpt>
      <trkpt lat="44.17716" lon="4.70112">
        <ele>68.390869140625</ele>
        <time>2019-04-13T11:43:27Z</time>
      </trkpt>
      <trkpt lat="44.17716" lon="4.7005">
        <ele>68.390869140625</ele>
        <time>2019-04-13T11:43:45Z</time>
      </trkpt>
      <trkpt lat="44.17709" lon="4.69983">
        <ele>67.910278320312</ele>
        <time>2019-04-13T11:44:05Z</time>
      </trkpt>
      <trkpt lat="44.17704" lon="4.69916">
        <ele>68.390869140625</ele>
        <time>2019-04-13T11:44:27Z</time>
      </trkpt>
      <trkpt lat="44.17706" lon="4.69907">
        <ele>70.3134765625</ele>
        <time>2019-04-13T11:44:30Z</time>
      </trkpt>
      <trkpt lat="44.1771" lon="4.69871">
        <ele>69.352294921875</ele>
        <time>2019-04-13T11:44:41Z</time>
      </trkpt>
      <trkpt lat="44.17725" lon="4.69833">
        <ele>66.948974609375</ele>
        <time>2019-04-13T11:44:52Z</time>
      </trkpt>
      <trkpt lat="44.17743" lon="4.69818">
        <ele>67.4296875</ele>
        <time>2019-04-13T11:44:57Z</time>
      </trkpt>
      <trkpt lat="44.17767" lon="4.69808">
        <ele>68.390869140625</ele>
        <time>2019-04-13T11:45:09Z</time>
      </trkpt>
      <trkpt lat="44.17801" lon="4.69798">
        <ele>66.948974609375</ele>
        <time>2019-04-13T11:45:22Z</time>
      </trkpt>
      <trkpt lat="44.17807" lon="4.69798">
        <ele>67.4296875</ele>
        <time>2019-04-13T11:45:24Z</time>
      </trkpt>
      <trkpt lat="44.17824" lon="4.6979">
        <ele>63.584350585938</ele>
        <time>2019-04-13T11:45:30Z</time>
      </trkpt>
      <trkpt lat="44.17826" lon="4.6979">
        <ele>64.545654296875</ele>
        <time>2019-04-13T11:45:31Z</time>
      </trkpt>
      <trkpt lat="44.17847" lon="4.6978">
        <ele>61.181030273438</ele>
        <time>2019-04-13T11:45:39Z</time>
      </trkpt>
      <trkpt lat="44.17861" lon="4.69764">
        <ele>63.584350585938</ele>
        <time>2019-04-13T11:45:47Z</time>
      </trkpt>
      <trkpt lat="44.17867" lon="4.69756">
        <ele>64.545654296875</ele>
        <time>2019-04-13T11:45:51Z</time>
      </trkpt>
      <trkpt lat="44.17871" lon="4.69751">
        <ele>64.065063476562</ele>
        <time>2019-04-13T11:45:54Z</time>
      </trkpt>
      <trkpt lat="44.17874" lon="4.69735">
        <ele>65.0263671875</ele>
        <time>2019-04-13T11:46:02Z</time>
      </trkpt>
      <trkpt lat="44.17861" lon="4.69709">
        <ele>65.507080078125</ele>
        <time>2019-04-13T11:46:19Z</time>
      </trkpt>
      <trkpt lat="44.1785" lon="4.69678">
        <ele>68.87158203125</ele>
        <time>2019-04-13T11:46:33Z</time>
      </trkpt>
      <trkpt lat="44.17849" lon="4.69635">
        <ele>70.794189453125</ele>
        <time>2019-04-13T11:46:51Z</time>
      </trkpt>
      <trkpt lat="44.17858" lon="4.69588">
        <ele>72.236206054688</ele>
        <time>2019-04-13T11:47:11Z</time>
      </trkpt>
      <trkpt lat="44.1788" lon="4.69535">
        <ele>74.639526367188</ele>
        <time>2019-04-13T11:47:35Z</time>
      </trkpt>
      <trkpt lat="44.1791" lon="4.695">
        <ele>72.716918945312</ele>
        <time>2019-04-13T11:47:53Z</time>
      </trkpt>
      <trkpt lat="44.17937" lon="4.69459">
        <ele>74.158813476562</ele>
        <time>2019-04-13T11:48:10Z</time>
      </trkpt>
      <trkpt lat="44.17952" lon="4.694">
        <ele>75.600830078125</ele>
        <time>2019-04-13T11:48:28Z</time>
      </trkpt>
      <trkpt lat="44.17939" lon="4.69367">
        <ele>77.042846679688</ele>
        <time>2019-04-13T11:48:41Z</time>
      </trkpt>
      <trkpt lat="44.17927" lon="4.69326">
        <ele>77.5234375</ele>
        <time>2019-04-13T11:48:56Z</time>
      </trkpt>
      <trkpt lat="44.1792" lon="4.69276">
        <ele>78.484741210938</ele>
        <time>2019-04-13T11:49:12Z</time>
      </trkpt>
      <trkpt lat="44.17898" lon="4.69246">
        <ele>80.88818359375</ele>
        <time>2019-04-13T11:49:27Z</time>
      </trkpt>
      <trkpt lat="44.1789" lon="4.69238">
        <ele>81.849365234375</ele>
        <time>2019-04-13T11:49:33Z</time>
      </trkpt>
      <trkpt lat="44.17876" lon="4.69203">
        <ele>83.291381835938</ele>
        <time>2019-04-13T11:49:50Z</time>
      </trkpt>
      <trkpt lat="44.17854" lon="4.6918">
        <ele>85.213989257812</ele>
        <time>2019-04-13T11:50:07Z</time>
      </trkpt>
      <trkpt lat="44.17839" lon="4.6918">
        <ele>86.17529296875</ele>
        <time>2019-04-13T11:50:16Z</time>
      </trkpt>
      <trkpt lat="44.1783" lon="4.69174">
        <ele>86.656005859375</ele>
        <time>2019-04-13T11:50:22Z</time>
      </trkpt>
      <trkpt lat="44.17799" lon="4.69171">
        <ele>88.578735351562</ele>
        <time>2019-04-13T11:50:40Z</time>
      </trkpt>
      <trkpt lat="44.17763" lon="4.69168">
        <ele>89.059326171875</ele>
        <time>2019-04-13T11:50:57Z</time>
      </trkpt>
      <trkpt lat="44.17751" lon="4.69165">
        <ele>89.539916992188</ele>
        <time>2019-04-13T11:51:03Z</time>
      </trkpt>
      <trkpt lat="44.17747" lon="4.69152">
        <ele>90.501342773438</ele>
        <time>2019-04-13T11:51:08Z</time>
      </trkpt>
      <trkpt lat="44.17733" lon="4.69124">
        <ele>91.462524414062</ele>
        <time>2019-04-13T11:51:20Z</time>
      </trkpt>
      <trkpt lat="44.17729" lon="4.69121">
        <ele>91.943237304688</ele>
        <time>2019-04-13T11:51:22Z</time>
      </trkpt>
      <trkpt lat="44.17711" lon="4.691">
        <ele>91.943237304688</ele>
        <time>2019-04-13T11:51:35Z</time>
      </trkpt>
      <trkpt lat="44.17686" lon="4.69084">
        <ele>93.865844726562</ele>
        <time>2019-04-13T11:51:49Z</time>
      </trkpt>
      <trkpt lat="44.17679" lon="4.69076">
        <ele>94.8271484375</ele>
        <time>2019-04-13T11:51:54Z</time>
      </trkpt>
      <trkpt lat="44.17679" lon="4.69067">
        <ele>95.788452148438</ele>
        <time>2019-04-13T11:51:58Z</time>
      </trkpt>
      <trkpt lat="44.17677" lon="4.69035">
        <ele>98.19189453125</ele>
        <time>2019-04-13T11:52:12Z</time>
      </trkpt>
      <trkpt lat="44.17677" lon="4.69033">
        <ele>98.19189453125</ele>
        <time>2019-04-13T11:52:13Z</time>
      </trkpt>
      <trkpt lat="44.17668" lon="4.69005">
        <ele>99.6337890625</ele>
        <time>2019-04-13T11:52:25Z</time>
      </trkpt>
      <trkpt lat="44.1766" lon="4.68987">
        <ele>99.153076171875</ele>
        <time>2019-04-13T11:52:34Z</time>
      </trkpt>
      <trkpt lat="44.17667" lon="4.68979">
        <ele>99.6337890625</ele>
        <time>2019-04-13T11:52:39Z</time>
      </trkpt>
      <trkpt lat="44.17695" lon="4.6896">
        <ele>99.153076171875</ele>
        <time>2019-04-13T11:52:55Z</time>
      </trkpt>
      <trkpt lat="44.1771" lon="4.6893">
        <ele>100.11450195312</ele>
        <time>2019-04-13T11:53:08Z</time>
      </trkpt>
      <trkpt lat="44.17708" lon="4.68926">
        <ele>101.07568359375</ele>
        <time>2019-04-13T11:53:10Z</time>
      </trkpt>
      <trkpt lat="44.17707" lon="4.68892">
        <ele>102.99829101562</ele>
        <time>2019-04-13T11:53:27Z</time>
      </trkpt>
      <trkpt lat="44.17711" lon="4.68861">
        <ele>106.36303710938</ele>
        <time>2019-04-13T11:53:43Z</time>
      </trkpt>
      <trkpt lat="44.17719" lon="4.68828">
        <ele>106.36303710938</ele>
        <time>2019-04-13T11:53:58Z</time>
      </trkpt>
      <trkpt lat="44.1771" lon="4.68811">
        <ele>107.80505371094</ele>
        <time>2019-04-13T11:54:04Z</time>
      </trkpt>
      <trkpt lat="44.17699" lon="4.68793">
        <ele>108.28564453125</ele>
        <time>2019-04-13T11:54:12Z</time>
      </trkpt>
      <trkpt lat="44.17699" lon="4.6877">
        <ele>110.68884277344</ele>
        <time>2019-04-13T11:54:21Z</time>
      </trkpt>
      <trkpt lat="44.17704" lon="4.68741">
        <ele>112.61157226562</ele>
        <time>2019-04-13T11:54:36Z</time>
      </trkpt>
      <trkpt lat="44.17711" lon="4.68722">
        <ele>113.57299804688</ele>
        <time>2019-04-13T11:54:46Z</time>
      </trkpt>
      <trkpt lat="44.17723" lon="4.68717">
        <ele>112.61157226562</ele>
        <time>2019-04-13T11:54:52Z</time>
      </trkpt>
      <trkpt lat="44.17731" lon="4.68723">
        <ele>110.68884277344</ele>
        <time>2019-04-13T11:54:54Z</time>
      </trkpt>
      <trkpt lat="44.17747" lon="4.68751">
        <ele>107.80505371094</ele>
        <time>2019-04-13T11:55:00Z</time>
      </trkpt>
      <trkpt lat="44.17751" lon="4.68752">
        <ele>107.32434082031</ele>
        <time>2019-04-13T11:55:01Z</time>
      </trkpt>
      <trkpt lat="44.17775" lon="4.68741">
        <ele>107.80505371094</ele>
        <time>2019-04-13T11:55:08Z</time>
      </trkpt>
      <trkpt lat="44.17786" lon="4.68733">
        <ele>106.84362792969</ele>
        <time>2019-04-13T11:55:12Z</time>
      </trkpt>
      <trkpt lat="44.17811" lon="4.68718">
        <ele>105.40173339844</ele>
        <time>2019-04-13T11:55:21Z</time>
      </trkpt>
      <trkpt lat="44.17819" lon="4.68713">
        <ele>105.40173339844</ele>
        <time>2019-04-13T11:55:27Z</time>
      </trkpt>
      <trkpt lat="44.17833" lon="4.68717">
        <ele>101.55639648438</ele>
        <time>2019-04-13T11:55:32Z</time>
      </trkpt>
      <trkpt lat="44.17838" lon="4.68716">
        <ele>102.037109375</ele>
        <time>2019-04-13T11:55:33Z</time>
      </trkpt>
      <trkpt lat="44.17846" lon="4.68712">
        <ele>102.037109375</ele>
        <time>2019-04-13T11:55:35Z</time>
      </trkpt>
      <trkpt lat="44.17858" lon="4.68702">
        <ele>102.037109375</ele>
        <time>2019-04-13T11:55:39Z</time>
      </trkpt>
      <trkpt lat="44.17872" lon="4.68709">
        <ele>100.11450195312</ele>
        <time>2019-04-13T11:55:43Z</time>
      </trkpt>
      <trkpt lat="44.17902" lon="4.68714">
        <ele>96.749877929688</ele>
        <time>2019-04-13T11:55:51Z</time>
      </trkpt>
      <trkpt lat="44.17929" lon="4.68704">
        <ele>96.269287109375</ele>
        <time>2019-04-13T11:55:58Z</time>
      </trkpt>
      <trkpt lat="44.17957" lon="4.68697">
        <ele>95.307739257812</ele>
        <time>2019-04-13T11:56:04Z</time>
      </trkpt>
      <trkpt lat="44.1798" lon="4.68688">
        <ele>93.865844726562</ele>
        <time>2019-04-13T11:56:12Z</time>
      </trkpt>
      <trkpt lat="44.18005" lon="4.68691">
        <ele>90.98193359375</ele>
        <time>2019-04-13T11:56:20Z</time>
      </trkpt>
      <trkpt lat="44.18024" lon="4.68684">
        <ele>90.020629882812</ele>
        <time>2019-04-13T11:56:25Z</time>
      </trkpt>
      <trkpt lat="44.18054" lon="4.68672">
        <ele>90.98193359375</ele>
        <time>2019-04-13T11:56:35Z</time>
      </trkpt>
      <trkpt lat="44.18063" lon="4.68662">
        <ele>91.943237304688</ele>
        <time>2019-04-13T11:56:39Z</time>
      </trkpt>
      <trkpt lat="44.18072" lon="4.6865">
        <ele>90.020629882812</ele>
        <time>2019-04-13T11:56:44Z</time>
      </trkpt>
      <trkpt lat="44.18082" lon="4.68613">
        <ele>92.423950195312</ele>
        <time>2019-04-13T11:56:58Z</time>
      </trkpt>
      <trkpt lat="44.18079" lon="4.68579">
        <ele>93.865844726562</ele>
        <time>2019-04-13T11:57:09Z</time>
      </trkpt>
      <trkpt lat="44.18074" lon="4.68551">
        <ele>95.307739257812</ele>
        <time>2019-04-13T11:57:20Z</time>
      </trkpt>
      <trkpt lat="44.18084" lon="4.68525">
        <ele>95.307739257812</ele>
        <time>2019-04-13T11:57:34Z</time>
      </trkpt>
      <trkpt lat="44.18122" lon="4.6851">
        <ele>93.865844726562</ele>
        <time>2019-04-13T11:57:48Z</time>
      </trkpt>
      <trkpt lat="44.18155" lon="4.68481">
        <ele>93.385131835938</ele>
        <time>2019-04-13T11:58:00Z</time>
      </trkpt>
      <trkpt lat="44.18167" lon="4.68471">
        <ele>91.943237304688</ele>
        <time>2019-04-13T11:58:04Z</time>
      </trkpt>
      <trkpt lat="44.182" lon="4.68441">
        <ele>91.462524414062</ele>
        <time>2019-04-13T11:58:17Z</time>
      </trkpt>
      <trkpt lat="44.18238" lon="4.68402">
        <ele>91.462524414062</ele>
        <time>2019-04-13T11:58:33Z</time>
      </trkpt>
      <trkpt lat="44.18241" lon="4.684">
        <ele>91.462524414062</ele>
        <time>2019-04-13T11:58:34Z</time>
      </trkpt>
      <trkpt lat="44.18249" lon="4.6839">
        <ele>92.423950195312</ele>
        <time>2019-04-13T11:58:38Z</time>
      </trkpt>
      <trkpt lat="44.18268" lon="4.68354">
        <ele>93.385131835938</ele>
        <time>2019-04-13T11:58:51Z</time>
      </trkpt>
      <trkpt lat="44.18302" lon="4.68316">
        <ele>91.943237304688</ele>
        <time>2019-04-13T11:59:06Z</time>
      </trkpt>
      <trkpt lat="44.18328" lon="4.68278">
        <ele>91.943237304688</ele>
        <time>2019-04-13T11:59:19Z</time>
      </trkpt>
      <trkpt lat="44.18351" lon="4.6824">
        <ele>92.904541015625</ele>
        <time>2019-04-13T11:59:31Z</time>
      </trkpt>
      <trkpt lat="44.18366" lon="4.68181">
        <ele>93.865844726562</ele>
        <time>2019-04-13T11:59:46Z</time>
      </trkpt>
      <trkpt lat="44.18383" lon="4.68125">
        <ele>95.307739257812</ele>
        <time>2019-04-13T12:00:04Z</time>
      </trkpt>
      <trkpt lat="44.18395" lon="4.68089">
        <ele>97.23046875</ele>
        <time>2019-04-13T12:00:17Z</time>
      </trkpt>
      <trkpt lat="44.18411" lon="4.68036">
        <ele>96.269287109375</ele>
        <time>2019-04-13T12:00:32Z</time>
      </trkpt>
      <trkpt lat="44.18436" lon="4.67991">
        <ele>95.307739257812</ele>
        <time>2019-04-13T12:00:44Z</time>
      </trkpt>
      <trkpt lat="44.18447" lon="4.67955">
        <ele>96.749877929688</ele>
        <time>2019-04-13T12:00:55Z</time>
      </trkpt>
      <trkpt lat="44.18446" lon="4.67948">
        <ele>96.749877929688</ele>
        <time>2019-04-13T12:00:58Z</time>
      </trkpt>
      <trkpt lat="44.18443" lon="4.6794">
        <ele>97.711181640625</ele>
        <time>2019-04-13T12:01:02Z</time>
      </trkpt>
      <trkpt lat="44.18433" lon="4.67915">
        <ele>99.153076171875</ele>
        <time>2019-04-13T12:01:12Z</time>
      </trkpt>
      <trkpt lat="44.18411" lon="4.67877">
        <ele>100.59509277344</ele>
        <time>2019-04-13T12:01:29Z</time>
      </trkpt>
      <trkpt lat="44.18385" lon="4.67829">
        <ele>99.153076171875</ele>
        <time>2019-04-13T12:01:44Z</time>
      </trkpt>
      <trkpt lat="44.18378" lon="4.67817">
        <ele>98.672485351562</ele>
        <time>2019-04-13T12:01:47Z</time>
      </trkpt>
      <trkpt lat="44.18383" lon="4.67791">
        <ele>98.19189453125</ele>
        <time>2019-04-13T12:01:53Z</time>
      </trkpt>
      <trkpt lat="44.18426" lon="4.67773">
        <ele>97.711181640625</ele>
        <time>2019-04-13T12:02:08Z</time>
      </trkpt>
      <trkpt lat="44.18443" lon="4.67761">
        <ele>95.307739257812</ele>
        <time>2019-04-13T12:02:14Z</time>
      </trkpt>
      <trkpt lat="44.18454" lon="4.67748">
        <ele>94.8271484375</ele>
        <time>2019-04-13T12:02:17Z</time>
      </trkpt>
      <trkpt lat="44.18492" lon="4.67722">
        <ele>93.385131835938</ele>
        <time>2019-04-13T12:02:24Z</time>
      </trkpt>
      <trkpt lat="44.18502" lon="4.67718">
        <ele>93.385131835938</ele>
        <time>2019-04-13T12:02:26Z</time>
      </trkpt>
      <trkpt lat="44.18511" lon="4.67715">
        <ele>94.346557617188</ele>
        <time>2019-04-13T12:02:28Z</time>
      </trkpt>
      <trkpt lat="44.18514" lon="4.67709">
        <ele>95.788452148438</ele>
        <time>2019-04-13T12:02:30Z</time>
      </trkpt>
      <trkpt lat="44.18511" lon="4.67704">
        <ele>95.788452148438</ele>
        <time>2019-04-13T12:02:32Z</time>
      </trkpt>
      <trkpt lat="44.18487" lon="4.67677">
        <ele>97.23046875</ele>
        <time>2019-04-13T12:02:45Z</time>
      </trkpt>
      <trkpt lat="44.18454" lon="4.6765">
        <ele>99.153076171875</ele>
        <time>2019-04-13T12:03:01Z</time>
      </trkpt>
      <trkpt lat="44.18425" lon="4.67615">
        <ele>99.153076171875</ele>
        <time>2019-04-13T12:03:17Z</time>
      </trkpt>
      <trkpt lat="44.18391" lon="4.67569">
        <ele>101.55639648438</ele>
        <time>2019-04-13T12:03:36Z</time>
      </trkpt>
      <trkpt lat="44.18374" lon="4.67525">
        <ele>102.99829101562</ele>
        <time>2019-04-13T12:03:52Z</time>
      </trkpt>
      <trkpt lat="44.18391" lon="4.67496">
        <ele>104.92102050781</ele>
        <time>2019-04-13T12:04:08Z</time>
      </trkpt>
      <trkpt lat="44.18408" lon="4.67463">
        <ele>106.36303710938</ele>
        <time>2019-04-13T12:04:26Z</time>
      </trkpt>
      <trkpt lat="44.18407" lon="4.67447">
        <ele>106.36303710938</ele>
        <time>2019-04-13T12:04:33Z</time>
      </trkpt>
      <trkpt lat="44.18403" lon="4.67422">
        <ele>107.80505371094</ele>
        <time>2019-04-13T12:04:46Z</time>
      </trkpt>
      <trkpt lat="44.18407" lon="4.67401">
        <ele>108.28564453125</ele>
        <time>2019-04-13T12:04:55Z</time>
      </trkpt>
      <trkpt lat="44.18406" lon="4.67361">
        <ele>108.76623535156</ele>
        <time>2019-04-13T12:05:10Z</time>
      </trkpt>
      <trkpt lat="44.18401" lon="4.67325">
        <ele>112.13098144531</ele>
        <time>2019-04-13T12:05:25Z</time>
      </trkpt>
      <trkpt lat="44.18401" lon="4.67306">
        <ele>114.05358886719</ele>
        <time>2019-04-13T12:05:34Z</time>
      </trkpt>
      <trkpt lat="44.18403" lon="4.67263">
        <ele>115.01489257812</ele>
        <time>2019-04-13T12:05:50Z</time>
      </trkpt>
      <trkpt lat="44.18401" lon="4.67228">
        <ele>117.89880371094</ele>
        <time>2019-04-13T12:06:05Z</time>
      </trkpt>
      <trkpt lat="44.18394" lon="4.672">
        <ele>118.86010742188</ele>
        <time>2019-04-13T12:06:19Z</time>
      </trkpt>
      <trkpt lat="44.1839" lon="4.67188">
        <ele>120.30212402344</ele>
        <time>2019-04-13T12:06:26Z</time>
      </trkpt>
      <trkpt lat="44.18367" lon="4.6717">
        <ele>121.744140625</ele>
        <time>2019-04-13T12:06:41Z</time>
      </trkpt>
      <trkpt lat="44.18361" lon="4.6716">
        <ele>122.70544433594</ele>
        <time>2019-04-13T12:06:48Z</time>
      </trkpt>
      <trkpt lat="44.18349" lon="4.67144">
        <ele>123.66674804688</ele>
        <time>2019-04-13T12:06:59Z</time>
      </trkpt>
      <trkpt lat="44.18355" lon="4.67136">
        <ele>125.10876464844</ele>
        <time>2019-04-13T12:07:04Z</time>
      </trkpt>
      <trkpt lat="44.18363" lon="4.67137">
        <ele>125.10876464844</ele>
        <time>2019-04-13T12:07:18Z</time>
      </trkpt>
      <trkpt lat="44.1837" lon="4.67144">
        <ele>126.06994628906</ele>
        <time>2019-04-13T12:09:05Z</time>
      </trkpt>
      <trkpt lat="44.18399" lon="4.67152">
        <ele>127.51196289062</ele>
        <time>2019-04-13T12:09:25Z</time>
      </trkpt>
      <trkpt lat="44.18423" lon="4.67147">
        <ele>130.87670898438</ele>
        <time>2019-04-13T12:09:42Z</time>
      </trkpt>
      <trkpt lat="44.18448" lon="4.67135">
        <ele>131.35729980469</ele>
        <time>2019-04-13T12:09:58Z</time>
      </trkpt>
      <trkpt lat="44.18472" lon="4.67124">
        <ele>133.76049804688</ele>
        <time>2019-04-13T12:10:15Z</time>
      </trkpt>
      <trkpt lat="44.18492" lon="4.67114">
        <ele>134.2412109375</ele>
        <time>2019-04-13T12:10:29Z</time>
      </trkpt>
      <trkpt lat="44.18512" lon="4.67098">
        <ele>137.60583496094</ele>
        <time>2019-04-13T12:10:43Z</time>
      </trkpt>
      <trkpt lat="44.18533" lon="4.67076">
        <ele>137.60583496094</ele>
        <time>2019-04-13T12:10:58Z</time>
      </trkpt>
      <trkpt lat="44.1855" lon="4.67052">
        <ele>140.97045898438</ele>
        <time>2019-04-13T12:11:12Z</time>
      </trkpt>
      <trkpt lat="44.18572" lon="4.67024">
        <ele>141.93176269531</ele>
        <time>2019-04-13T12:11:29Z</time>
      </trkpt>
      <trkpt lat="44.18587" lon="4.67034">
        <ele>143.85437011719</ele>
        <time>2019-04-13T12:11:39Z</time>
      </trkpt>
      <trkpt lat="44.18587" lon="4.67045">
        <ele>143.37365722656</ele>
        <time>2019-04-13T12:11:46Z</time>
      </trkpt>
      <trkpt lat="44.18577" lon="4.67084">
        <ele>142.41247558594</ele>
        <time>2019-04-13T12:11:58Z</time>
      </trkpt>
      <trkpt lat="44.18563" lon="4.67131">
        <ele>143.37365722656</ele>
        <time>2019-04-13T12:12:14Z</time>
      </trkpt>
      <trkpt lat="44.1854" lon="4.6717">
        <ele>145.29638671875</ele>
        <time>2019-04-13T12:12:31Z</time>
      </trkpt>
      <trkpt lat="44.18512" lon="4.67208">
        <ele>148.18041992188</ele>
        <time>2019-04-13T12:12:49Z</time>
      </trkpt>
      <trkpt lat="44.18522" lon="4.6723">
        <ele>147.69970703125</ele>
        <time>2019-04-13T12:13:00Z</time>
      </trkpt>
      <trkpt lat="44.18529" lon="4.67231">
        <ele>151.06420898438</ele>
        <time>2019-04-13T12:13:04Z</time>
      </trkpt>
      <trkpt lat="44.1855" lon="4.6721">
        <ele>152.02575683594</ele>
        <time>2019-04-13T12:13:19Z</time>
      </trkpt>
      <trkpt lat="44.18574" lon="4.67183">
        <ele>151.544921875</ele>
        <time>2019-04-13T12:13:34Z</time>
      </trkpt>
      <trkpt lat="44.18594" lon="4.6716">
        <ele>154.90954589844</ele>
        <time>2019-04-13T12:13:45Z</time>
      </trkpt>
      <trkpt lat="44.18605" lon="4.67145">
        <ele>156.3515625</ele>
        <time>2019-04-13T12:13:54Z</time>
      </trkpt>
      <trkpt lat="44.18621" lon="4.67121">
        <ele>159.23547363281</ele>
        <time>2019-04-13T12:14:09Z</time>
      </trkpt>
      <trkpt lat="44.18622" lon="4.6712">
        <ele>159.23547363281</ele>
        <time>2019-04-13T12:14:10Z</time>
      </trkpt>
      <trkpt lat="44.18641" lon="4.67088">
        <ele>161.63891601562</ele>
        <time>2019-04-13T12:14:29Z</time>
      </trkpt>
      <trkpt lat="44.18657" lon="4.67058">
        <ele>163.08081054688</ele>
        <time>2019-04-13T12:14:48Z</time>
      </trkpt>
      <trkpt lat="44.18659" lon="4.67054">
        <ele>165.00341796875</ele>
        <time>2019-04-13T12:14:51Z</time>
      </trkpt>
      <trkpt lat="44.1866" lon="4.67052">
        <ele>165.48413085938</ele>
        <time>2019-04-13T12:14:52Z</time>
      </trkpt>
      <trkpt lat="44.18671" lon="4.67028">
        <ele>166.4453125</ele>
        <time>2019-04-13T12:15:08Z</time>
      </trkpt>
      <trkpt lat="44.18687" lon="4.66997">
        <ele>169.81005859375</ele>
        <time>2019-04-13T12:15:28Z</time>
      </trkpt>
      <trkpt lat="44.18691" lon="4.66991">
        <ele>171.25207519531</ele>
        <time>2019-04-13T12:15:32Z</time>
      </trkpt>
      <trkpt lat="44.18708" lon="4.66962">
        <ele>173.6552734375</ele>
        <time>2019-04-13T12:15:51Z</time>
      </trkpt>
      <trkpt lat="44.18718" lon="4.66941">
        <ele>176.05859375</ele>
        <time>2019-04-13T12:16:04Z</time>
      </trkpt>
      <trkpt lat="44.18722" lon="4.66928">
        <ele>177.02001953125</ele>
        <time>2019-04-13T12:16:11Z</time>
      </trkpt>
      <trkpt lat="44.1873" lon="4.66891">
        <ele>177.98120117188</ele>
        <time>2019-04-13T12:16:27Z</time>
      </trkpt>
      <trkpt lat="44.18746" lon="4.66847">
        <ele>178.94262695312</ele>
        <time>2019-04-13T12:16:45Z</time>
      </trkpt>
      <trkpt lat="44.18779" lon="4.6681">
        <ele>176.53930664062</ele>
        <time>2019-04-13T12:16:58Z</time>
      </trkpt>
      <trkpt lat="44.18775" lon="4.66783">
        <ele>177.02001953125</ele>
        <time>2019-04-13T12:17:05Z</time>
      </trkpt>
      <trkpt lat="44.18745" lon="4.6677">
        <ele>177.02001953125</ele>
        <time>2019-04-13T12:17:19Z</time>
      </trkpt>
      <trkpt lat="44.18706" lon="4.66758">
        <ele>176.53930664062</ele>
        <time>2019-04-13T12:17:34Z</time>
      </trkpt>
      <trkpt lat="44.18672" lon="4.66743">
        <ele>177.98120117188</ele>
        <time>2019-04-13T12:17:48Z</time>
      </trkpt>
      <trkpt lat="44.18656" lon="4.66735">
        <ele>179.90380859375</ele>
        <time>2019-04-13T12:17:58Z</time>
      </trkpt>
      <trkpt lat="44.18629" lon="4.66747">
        <ele>180.38452148438</ele>
        <time>2019-04-13T12:18:15Z</time>
      </trkpt>
      <trkpt lat="44.18607" lon="4.66768">
        <ele>182.30712890625</ele>
        <time>2019-04-13T12:18:31Z</time>
      </trkpt>
      <trkpt lat="44.1858" lon="4.66777">
        <ele>183.7490234375</ele>
        <time>2019-04-13T12:18:47Z</time>
      </trkpt>
      <trkpt lat="44.18563" lon="4.66761">
        <ele>185.19116210938</ele>
        <time>2019-04-13T12:18:59Z</time>
      </trkpt>
      <trkpt lat="44.18562" lon="4.66754">
        <ele>187.11376953125</ele>
        <time>2019-04-13T12:19:02Z</time>
      </trkpt>
      <trkpt lat="44.18558" lon="4.66728">
        <ele>189.03637695312</ele>
        <time>2019-04-13T12:19:16Z</time>
      </trkpt>
      <trkpt lat="44.18556" lon="4.667">
        <ele>189.51696777344</ele>
        <time>2019-04-13T12:19:32Z</time>
      </trkpt>
      <trkpt lat="44.18553" lon="4.66689">
        <ele>189.99768066406</ele>
        <time>2019-04-13T12:20:10Z</time>
      </trkpt>
      <trkpt lat="44.18551" lon="4.66674">
        <ele>190.47839355469</ele>
        <time>2019-04-13T12:21:41Z</time>
      </trkpt>
      <trkpt lat="44.18537" lon="4.66635">
        <ele>190.47839355469</ele>
        <time>2019-04-13T12:21:56Z</time>
      </trkpt>
      <trkpt lat="44.18504" lon="4.66626">
        <ele>189.99768066406</ele>
        <time>2019-04-13T12:22:08Z</time>
      </trkpt>
      <trkpt lat="44.18479" lon="4.66654">
        <ele>190.47839355469</ele>
        <time>2019-04-13T12:22:20Z</time>
      </trkpt>
      <trkpt lat="44.18453" lon="4.66666">
        <ele>192.88171386719</ele>
        <time>2019-04-13T12:22:32Z</time>
      </trkpt>
      <trkpt lat="44.18447" lon="4.6667">
        <ele>194.32373046875</ele>
        <time>2019-04-13T12:22:35Z</time>
      </trkpt>
      <trkpt lat="44.18416" lon="4.66671">
        <ele>196.72692871094</ele>
        <time>2019-04-13T12:22:53Z</time>
      </trkpt>
      <trkpt lat="44.18396" lon="4.66652">
        <ele>194.80432128906</ele>
        <time>2019-04-13T12:23:04Z</time>
      </trkpt>
      <trkpt lat="44.18363" lon="4.66613">
        <ele>195.28491210938</ele>
        <time>2019-04-13T12:23:19Z</time>
      </trkpt>
      <trkpt lat="44.18353" lon="4.66609">
        <ele>195.765625</ele>
        <time>2019-04-13T12:23:24Z</time>
      </trkpt>
      <trkpt lat="44.18345" lon="4.66611">
        <ele>196.72692871094</ele>
        <time>2019-04-13T12:23:28Z</time>
      </trkpt>
      <trkpt lat="44.18319" lon="4.66621">
        <ele>197.68823242188</ele>
        <time>2019-04-13T12:23:42Z</time>
      </trkpt>
      <trkpt lat="44.18314" lon="4.66622">
        <ele>198.1689453125</ele>
        <time>2019-04-13T12:23:44Z</time>
      </trkpt>
      <trkpt lat="44.1831" lon="4.66627">
        <ele>198.64953613281</ele>
        <time>2019-04-13T12:23:47Z</time>
      </trkpt>
      <trkpt lat="44.18313" lon="4.66652">
        <ele>200.572265625</ele>
        <time>2019-04-13T12:23:59Z</time>
      </trkpt>
      <trkpt lat="44.18309" lon="4.66677">
        <ele>204.41748046875</ele>
        <time>2019-04-13T12:24:11Z</time>
      </trkpt>
      <trkpt lat="44.18308" lon="4.66679">
        <ele>204.41748046875</ele>
        <time>2019-04-13T12:24:12Z</time>
      </trkpt>
      <trkpt lat="44.18295" lon="4.66702">
        <ele>207.30139160156</ele>
        <time>2019-04-13T12:24:28Z</time>
      </trkpt>
      <trkpt lat="44.1828" lon="4.66712">
        <ele>210.666015625</ele>
        <time>2019-04-13T12:24:40Z</time>
      </trkpt>
      <trkpt lat="44.18279" lon="4.66712">
        <ele>210.666015625</ele>
        <time>2019-04-13T12:24:41Z</time>
      </trkpt>
      <trkpt lat="44.18276" lon="4.66714">
        <ele>211.14672851562</ele>
        <time>2019-04-13T12:24:43Z</time>
      </trkpt>
      <trkpt lat="44.18257" lon="4.66723">
        <ele>214.51123046875</ele>
        <time>2019-04-13T12:25:00Z</time>
      </trkpt>
      <trkpt lat="44.18239" lon="4.6673">
        <ele>214.99194335938</ele>
        <time>2019-04-13T12:25:14Z</time>
      </trkpt>
      <trkpt lat="44.1823" lon="4.66735">
        <ele>215.47265625</ele>
        <time>2019-04-13T12:25:21Z</time>
      </trkpt>
      <trkpt lat="44.18223" lon="4.66733">
        <ele>216.91467285156</ele>
        <time>2019-04-13T12:25:26Z</time>
      </trkpt>
      <trkpt lat="44.1821" lon="4.66736">
        <ele>219.31799316406</ele>
        <time>2019-04-13T12:25:35Z</time>
      </trkpt>
      <trkpt lat="44.18204" lon="4.66742">
        <ele>221.72119140625</ele>
        <time>2019-04-13T12:25:40Z</time>
      </trkpt>
      <trkpt lat="44.18191" lon="4.66747">
        <ele>221.24060058594</ele>
        <time>2019-04-13T12:25:50Z</time>
      </trkpt>
      <trkpt lat="44.18171" lon="4.66723">
        <ele>221.72119140625</ele>
        <time>2019-04-13T12:26:04Z</time>
      </trkpt>
      <trkpt lat="44.18165" lon="4.66723">
        <ele>222.20178222656</ele>
        <time>2019-04-13T12:26:23Z</time>
      </trkpt>
      <trkpt lat="44.18155" lon="4.6671">
        <ele>222.20178222656</ele>
        <time>2019-04-13T12:27:09Z</time>
      </trkpt>
      <trkpt lat="44.18136" lon="4.66695">
        <ele>223.16320800781</ele>
        <time>2019-04-13T12:27:21Z</time>
      </trkpt>
      <trkpt lat="44.18127" lon="4.66689">
        <ele>225.0859375</ele>
        <time>2019-04-13T12:27:26Z</time>
      </trkpt>
      <trkpt lat="44.18117" lon="4.66665">
        <ele>221.72119140625</ele>
        <time>2019-04-13T12:27:35Z</time>
      </trkpt>
      <trkpt lat="44.18115" lon="4.6666">
        <ele>221.24060058594</ele>
        <time>2019-04-13T12:27:36Z</time>
      </trkpt>
      <trkpt lat="44.18091" lon="4.66619">
        <ele>222.20178222656</ele>
        <time>2019-04-13T12:27:46Z</time>
      </trkpt>
      <trkpt lat="44.18081" lon="4.66607">
        <ele>224.60522460938</ele>
        <time>2019-04-13T12:27:51Z</time>
      </trkpt>
      <trkpt lat="44.18071" lon="4.66594">
        <ele>227.48913574219</ele>
        <time>2019-04-13T12:27:59Z</time>
      </trkpt>
      <trkpt lat="44.18053" lon="4.66572">
        <ele>227.48913574219</ele>
        <time>2019-04-13T12:28:12Z</time>
      </trkpt>
      <trkpt lat="44.18028" lon="4.66561">
        <ele>228.93115234375</ele>
        <time>2019-04-13T12:28:25Z</time>
      </trkpt>
      <trkpt lat="44.18003" lon="4.66554">
        <ele>230.85375976562</ele>
        <time>2019-04-13T12:28:39Z</time>
      </trkpt>
      <trkpt lat="44.17994" lon="4.6655">
        <ele>231.81494140625</ele>
        <time>2019-04-13T12:28:44Z</time>
      </trkpt>
      <trkpt lat="44.17965" lon="4.66549">
        <ele>233.25708007812</ele>
        <time>2019-04-13T12:29:00Z</time>
      </trkpt>
      <trkpt lat="44.17944" lon="4.66556">
        <ele>233.73767089844</ele>
        <time>2019-04-13T12:29:11Z</time>
      </trkpt>
      <trkpt lat="44.17933" lon="4.66554">
        <ele>236.62170410156</ele>
        <time>2019-04-13T12:29:17Z</time>
      </trkpt>
      <trkpt lat="44.17919" lon="4.6655">
        <ele>239.02490234375</ele>
        <time>2019-04-13T12:29:27Z</time>
      </trkpt>
      <trkpt lat="44.17909" lon="4.66547">
        <ele>239.50549316406</ele>
        <time>2019-04-13T12:29:34Z</time>
      </trkpt>
      <trkpt lat="44.17902" lon="4.66545">
        <ele>240.46704101562</ele>
        <time>2019-04-13T12:29:52Z</time>
      </trkpt>
      <trkpt lat="44.17902" lon="4.66545">
        <ele>239.02490234375</ele>
        <time>2019-04-13T12:29:55Z</time>
      </trkpt>
      <trkpt lat="44.17902" lon="4.66544">
        <ele>238.06359863281</ele>
        <time>2019-04-13T12:30:06Z</time>
      </trkpt>
      <trkpt lat="44.17902" lon="4.66545">
        <ele>239.50549316406</ele>
        <time>2019-04-13T12:30:11Z</time>
      </trkpt>
      <trkpt lat="44.17887" lon="4.66547">
        <ele>240.46704101562</ele>
        <time>2019-04-13T12:30:37Z</time>
      </trkpt>
      <trkpt lat="44.17886" lon="4.66548">
        <ele>240.46704101562</ele>
        <time>2019-04-13T12:30:38Z</time>
      </trkpt>
      <trkpt lat="44.17868" lon="4.66537">
        <ele>242.3896484375</ele>
        <time>2019-04-13T12:30:51Z</time>
      </trkpt>
      <trkpt lat="44.17847" lon="4.66549">
        <ele>243.35083007812</ele>
        <time>2019-04-13T12:31:06Z</time>
      </trkpt>
      <trkpt lat="44.17833" lon="4.66556">
        <ele>244.31225585938</ele>
        <time>2019-04-13T12:31:15Z</time>
      </trkpt>
      <trkpt lat="44.17826" lon="4.66563">
        <ele>243.83154296875</ele>
        <time>2019-04-13T12:31:20Z</time>
      </trkpt>
      <trkpt lat="44.17798" lon="4.66599">
        <ele>244.79284667969</ele>
        <time>2019-04-13T12:31:35Z</time>
      </trkpt>
      <trkpt lat="44.17772" lon="4.66628">
        <ele>245.2734375</ele>
        <time>2019-04-13T12:31:50Z</time>
      </trkpt>
      <trkpt lat="44.17768" lon="4.66627">
        <ele>244.79284667969</ele>
        <time>2019-04-13T12:31:56Z</time>
      </trkpt>
      <trkpt lat="44.17765" lon="4.66619">
        <ele>243.83154296875</ele>
        <time>2019-04-13T12:32:00Z</time>
      </trkpt>
      <trkpt lat="44.17758" lon="4.66612">
        <ele>243.35083007812</ele>
        <time>2019-04-13T12:32:09Z</time>
      </trkpt>
      <trkpt lat="44.17755" lon="4.66608">
        <ele>242.87023925781</ele>
        <time>2019-04-13T12:32:18Z</time>
      </trkpt>
      <trkpt lat="44.17753" lon="4.66605">
        <ele>240.46704101562</ele>
        <time>2019-04-13T12:32:21Z</time>
      </trkpt>
      <trkpt lat="44.1775" lon="4.66599">
        <ele>239.98620605469</ele>
        <time>2019-04-13T12:32:30Z</time>
      </trkpt>
      <trkpt lat="44.17742" lon="4.66587">
        <ele>236.14099121094</ele>
        <time>2019-04-13T12:32:36Z</time>
      </trkpt>
      <trkpt lat="44.17729" lon="4.66593">
        <ele>237.10229492188</ele>
        <time>2019-04-13T12:32:42Z</time>
      </trkpt>
      <trkpt lat="44.17694" lon="4.66585">
        <ele>237.10229492188</ele>
        <time>2019-04-13T12:33:00Z</time>
      </trkpt>
      <trkpt lat="44.17687" lon="4.6654">
        <ele>235.66027832031</ele>
        <time>2019-04-13T12:33:13Z</time>
      </trkpt>
      <trkpt lat="44.17664" lon="4.66476">
        <ele>234.21838378906</ele>
        <time>2019-04-13T12:33:26Z</time>
      </trkpt>
      <trkpt lat="44.17648" lon="4.66456">
        <ele>236.62170410156</ele>
        <time>2019-04-13T12:33:32Z</time>
      </trkpt>
      <trkpt lat="44.17642" lon="4.6645">
        <ele>237.58288574219</ele>
        <time>2019-04-13T12:33:34Z</time>
      </trkpt>
      <trkpt lat="44.17615" lon="4.66461">
        <ele>238.06359863281</ele>
        <time>2019-04-13T12:33:42Z</time>
      </trkpt>
      <trkpt lat="44.17599" lon="4.66478">
        <ele>237.10229492188</ele>
        <time>2019-04-13T12:33:47Z</time>
      </trkpt>
      <trkpt lat="44.17543" lon="4.66511">
        <ele>236.14099121094</ele>
        <time>2019-04-13T12:34:04Z</time>
      </trkpt>
      <trkpt lat="44.17479" lon="4.66526">
        <ele>235.66027832031</ele>
        <time>2019-04-13T12:34:22Z</time>
      </trkpt>
      <trkpt lat="44.17445" lon="4.66528">
        <ele>238.06359863281</ele>
        <time>2019-04-13T12:34:32Z</time>
      </trkpt>
      <trkpt lat="44.1745" lon="4.66551">
        <ele>235.1796875</ele>
        <time>2019-04-13T12:34:39Z</time>
      </trkpt>
      <trkpt lat="44.17453" lon="4.66554">
        <ele>233.73767089844</ele>
        <time>2019-04-13T12:34:40Z</time>
      </trkpt>
      <trkpt lat="44.17484" lon="4.66586">
        <ele>229.89233398438</ele>
        <time>2019-04-13T12:34:47Z</time>
      </trkpt>
      <trkpt lat="44.17504" lon="4.66607">
        <ele>227.9697265625</ele>
        <time>2019-04-13T12:34:50Z</time>
      </trkpt>
      <trkpt lat="44.17516" lon="4.66622">
        <ele>228.45043945312</ele>
        <time>2019-04-13T12:34:52Z</time>
      </trkpt>
      <trkpt lat="44.17531" lon="4.6665">
        <ele>225.0859375</ele>
        <time>2019-04-13T12:34:55Z</time>
      </trkpt>
      <trkpt lat="44.17537" lon="4.66731">
        <ele>221.24060058594</ele>
        <time>2019-04-13T12:35:02Z</time>
      </trkpt>
      <trkpt lat="44.17528" lon="4.66765">
        <ele>217.8759765625</ele>
        <time>2019-04-13T12:35:05Z</time>
      </trkpt>
      <trkpt lat="44.17526" lon="4.66776">
        <ele>217.8759765625</ele>
        <time>2019-04-13T12:35:06Z</time>
      </trkpt>
      <trkpt lat="44.17523" lon="4.66797">
        <ele>216.43395996094</ele>
        <time>2019-04-13T12:35:08Z</time>
      </trkpt>
      <trkpt lat="44.17531" lon="4.66893">
        <ele>214.51123046875</ele>
        <time>2019-04-13T12:35:19Z</time>
      </trkpt>
      <trkpt lat="44.17531" lon="4.66902">
        <ele>214.99194335938</ele>
        <time>2019-04-13T12:35:21Z</time>
      </trkpt>
      <trkpt lat="44.17535" lon="4.66923">
        <ele>213.55004882812</ele>
        <time>2019-04-13T12:35:26Z</time>
      </trkpt>
      <trkpt lat="44.17534" lon="4.66937">
        <ele>213.55004882812</ele>
        <time>2019-04-13T12:35:29Z</time>
      </trkpt>
      <trkpt lat="44.17532" lon="4.66955">
        <ele>211.14672851562</ele>
        <time>2019-04-13T12:35:32Z</time>
      </trkpt>
      <trkpt lat="44.17518" lon="4.67012">
        <ele>211.62744140625</ele>
        <time>2019-04-13T12:35:44Z</time>
      </trkpt>
      <trkpt lat="44.17511" lon="4.67017">
        <ele>211.14672851562</ele>
        <time>2019-04-13T12:35:48Z</time>
      </trkpt>
      <trkpt lat="44.17509" lon="4.67022">
        <ele>213.0693359375</ele>
        <time>2019-04-13T12:35:51Z</time>
      </trkpt>
      <trkpt lat="44.17506" lon="4.67025">
        <ele>211.62744140625</ele>
        <time>2019-04-13T12:35:53Z</time>
      </trkpt>
      <trkpt lat="44.17503" lon="4.6703">
        <ele>211.62744140625</ele>
        <time>2019-04-13T12:35:56Z</time>
      </trkpt>
      <trkpt lat="44.1749" lon="4.67058">
        <ele>214.51123046875</ele>
        <time>2019-04-13T12:36:11Z</time>
      </trkpt>
      <trkpt lat="44.17489" lon="4.67061">
        <ele>214.51123046875</ele>
        <time>2019-04-13T12:36:13Z</time>
      </trkpt>
      <trkpt lat="44.17484" lon="4.67063">
        <ele>216.43395996094</ele>
        <time>2019-04-13T12:36:17Z</time>
      </trkpt>
      <trkpt lat="44.17468" lon="4.67048">
        <ele>216.91467285156</ele>
        <time>2019-04-13T12:36:31Z</time>
      </trkpt>
      <trkpt lat="44.17456" lon="4.67026">
        <ele>220.27917480469</ele>
        <time>2019-04-13T12:36:46Z</time>
      </trkpt>
      <trkpt lat="44.17428" lon="4.67005">
        <ele>220.75988769531</ele>
        <time>2019-04-13T12:37:02Z</time>
      </trkpt>
      <trkpt lat="44.17411" lon="4.67002">
        <ele>222.20178222656</ele>
        <time>2019-04-13T12:37:10Z</time>
      </trkpt>
      <trkpt lat="44.17412" lon="4.67014">
        <ele>217.8759765625</ele>
        <time>2019-04-13T12:37:15Z</time>
      </trkpt>
      <trkpt lat="44.17419" lon="4.67026">
        <ele>213.55004882812</ele>
        <time>2019-04-13T12:37:18Z</time>
      </trkpt>
      <trkpt lat="44.17426" lon="4.67036">
        <ele>211.62744140625</ele>
        <time>2019-04-13T12:37:20Z</time>
      </trkpt>
      <trkpt lat="44.17433" lon="4.67055">
        <ele>208.26281738281</ele>
        <time>2019-04-13T12:37:22Z</time>
      </trkpt>
      <trkpt lat="44.1744" lon="4.67066">
        <ele>207.30139160156</ele>
        <time>2019-04-13T12:37:24Z</time>
      </trkpt>
      <trkpt lat="44.17449" lon="4.67086">
        <ele>205.37878417969</ele>
        <time>2019-04-13T12:37:27Z</time>
      </trkpt>
      <trkpt lat="44.17462" lon="4.67106">
        <ele>205.85949707031</ele>
        <time>2019-04-13T12:37:32Z</time>
      </trkpt>
      <trkpt lat="44.17475" lon="4.67116">
        <ele>205.85949707031</ele>
        <time>2019-04-13T12:37:36Z</time>
      </trkpt>
      <trkpt lat="44.17484" lon="4.67119">
        <ele>204.89807128906</ele>
        <time>2019-04-13T12:37:38Z</time>
      </trkpt>
      <trkpt lat="44.17488" lon="4.67121">
        <ele>204.41748046875</ele>
        <time>2019-04-13T12:37:39Z</time>
      </trkpt>
      <trkpt lat="44.17496" lon="4.67126">
        <ele>201.05285644531</ele>
        <time>2019-04-13T12:37:41Z</time>
      </trkpt>
      <trkpt lat="44.17502" lon="4.67126">
        <ele>200.572265625</ele>
        <time>2019-04-13T12:37:43Z</time>
      </trkpt>
      <trkpt lat="44.17519" lon="4.67125">
        <ele>198.1689453125</ele>
        <time>2019-04-13T12:37:47Z</time>
      </trkpt>
      <trkpt lat="44.17548" lon="4.67114">
        <ele>193.84301757812</ele>
        <time>2019-04-13T12:37:53Z</time>
      </trkpt>
      <trkpt lat="44.17566" lon="4.67109">
        <ele>192.40112304688</ele>
        <time>2019-04-13T12:37:57Z</time>
      </trkpt>
      <trkpt lat="44.17567" lon="4.67125">
        <ele>192.88171386719</ele>
        <time>2019-04-13T12:38:01Z</time>
      </trkpt>
      <trkpt lat="44.17567" lon="4.67147">
        <ele>191.92028808594</ele>
        <time>2019-04-13T12:38:05Z</time>
      </trkpt>
      <trkpt lat="44.17564" lon="4.67172">
        <ele>191.43957519531</ele>
        <time>2019-04-13T12:38:09Z</time>
      </trkpt>
      <trkpt lat="44.17568" lon="4.67181">
        <ele>190.47839355469</ele>
        <time>2019-04-13T12:38:12Z</time>
      </trkpt>
      <trkpt lat="44.17579" lon="4.6721">
        <ele>187.11376953125</ele>
        <time>2019-04-13T12:38:17Z</time>
      </trkpt>
      <trkpt lat="44.17579" lon="4.67223">
        <ele>184.22985839844</ele>
        <time>2019-04-13T12:38:19Z</time>
      </trkpt>
      <trkpt lat="44.17568" lon="4.67231">
        <ele>181.82641601562</ele>
        <time>2019-04-13T12:38:22Z</time>
      </trkpt>
      <trkpt lat="44.17559" lon="4.6723">
        <ele>180.38452148438</ele>
        <time>2019-04-13T12:38:24Z</time>
      </trkpt>
      <trkpt lat="44.17536" lon="4.67225">
        <ele>173.6552734375</ele>
        <time>2019-04-13T12:38:28Z</time>
      </trkpt>
      <trkpt lat="44.17521" lon="4.67226">
        <ele>171.25207519531</ele>
        <time>2019-04-13T12:38:31Z</time>
      </trkpt>
      <trkpt lat="44.17494" lon="4.67232">
        <ele>168.84875488281</ele>
        <time>2019-04-13T12:38:37Z</time>
      </trkpt>
      <trkpt lat="44.17484" lon="4.67242">
        <ele>167.40673828125</ele>
        <time>2019-04-13T12:38:40Z</time>
      </trkpt>
      <trkpt lat="44.17474" lon="4.67249">
        <ele>165.48413085938</ele>
        <time>2019-04-13T12:38:42Z</time>
      </trkpt>
      <trkpt lat="44.17463" lon="4.67255">
        <ele>164.04211425781</ele>
        <time>2019-04-13T12:38:44Z</time>
      </trkpt>
      <trkpt lat="44.17443" lon="4.67272">
        <ele>161.63891601562</ele>
        <time>2019-04-13T12:38:48Z</time>
      </trkpt>
      <trkpt lat="44.17437" lon="4.67277">
        <ele>161.63891601562</ele>
        <time>2019-04-13T12:38:49Z</time>
      </trkpt>
      <trkpt lat="44.1742" lon="4.67287">
        <ele>160.19689941406</ele>
        <time>2019-04-13T12:38:52Z</time>
      </trkpt>
      <trkpt lat="44.17389" lon="4.67309">
        <ele>157.79357910156</ele>
        <time>2019-04-13T12:38:58Z</time>
      </trkpt>
      <trkpt lat="44.17387" lon="4.67313">
        <ele>157.79357910156</ele>
        <time>2019-04-13T12:38:59Z</time>
      </trkpt>
      <trkpt lat="44.17376" lon="4.67324">
        <ele>156.83215332031</ele>
        <time>2019-04-13T12:39:07Z</time>
      </trkpt>
      <trkpt lat="44.17372" lon="4.67324">
        <ele>156.3515625</ele>
        <time>2019-04-13T12:39:36Z</time>
      </trkpt>
      <trkpt lat="44.17372" lon="4.67328">
        <ele>155.87097167969</ele>
        <time>2019-04-13T12:40:54Z</time>
      </trkpt>
      <trkpt lat="44.17369" lon="4.6733">
        <ele>156.83215332031</ele>
        <time>2019-04-13T12:41:11Z</time>
      </trkpt>
      <trkpt lat="44.17372" lon="4.67348">
        <ele>155.87097167969</ele>
        <time>2019-04-13T12:41:19Z</time>
      </trkpt>
      <trkpt lat="44.17369" lon="4.67387">
        <ele>157.79357910156</ele>
        <time>2019-04-13T12:41:33Z</time>
      </trkpt>
      <trkpt lat="44.1737" lon="4.67439">
        <ele>158.75476074219</ele>
        <time>2019-04-13T12:41:50Z</time>
      </trkpt>
      <trkpt lat="44.17366" lon="4.67468">
        <ele>160.67749023438</ele>
        <time>2019-04-13T12:41:59Z</time>
      </trkpt>
      <trkpt lat="44.17349" lon="4.67506">
        <ele>160.19689941406</ele>
        <time>2019-04-13T12:42:19Z</time>
      </trkpt>
      <trkpt lat="44.17342" lon="4.6753">
        <ele>161.63891601562</ele>
        <time>2019-04-13T12:42:31Z</time>
      </trkpt>
      <trkpt lat="44.1734" lon="4.67579">
        <ele>162.60009765625</ele>
        <time>2019-04-13T12:42:52Z</time>
      </trkpt>
      <trkpt lat="44.17341" lon="4.67604">
        <ele>160.19689941406</ele>
        <time>2019-04-13T12:42:57Z</time>
      </trkpt>
      <trkpt lat="44.17335" lon="4.67647">
        <ele>159.23547363281</ele>
        <time>2019-04-13T12:43:04Z</time>
      </trkpt>
      <trkpt lat="44.17325" lon="4.67676">
        <ele>161.63891601562</ele>
        <time>2019-04-13T12:43:11Z</time>
      </trkpt>
      <trkpt lat="44.17324" lon="4.67677">
        <ele>162.11950683594</ele>
        <time>2019-04-13T12:43:12Z</time>
      </trkpt>
      <trkpt lat="44.17305" lon="4.67676">
        <ele>160.19689941406</ele>
        <time>2019-04-13T12:43:19Z</time>
      </trkpt>
      <trkpt lat="44.17281" lon="4.67684">
        <ele>159.71618652344</ele>
        <time>2019-04-13T12:43:25Z</time>
      </trkpt>
      <trkpt lat="44.17268" lon="4.67695">
        <ele>162.60009765625</ele>
        <time>2019-04-13T12:43:31Z</time>
      </trkpt>
      <trkpt lat="44.17241" lon="4.67696">
        <ele>160.67749023438</ele>
        <time>2019-04-13T12:43:38Z</time>
      </trkpt>
      <trkpt lat="44.1723" lon="4.67695">
        <ele>156.83215332031</ele>
        <time>2019-04-13T12:43:40Z</time>
      </trkpt>
      <trkpt lat="44.17196" lon="4.67694">
        <ele>153.46765136719</ele>
        <time>2019-04-13T12:43:45Z</time>
      </trkpt>
      <trkpt lat="44.17172" lon="4.67693">
        <ele>150.58361816406</ele>
        <time>2019-04-13T12:43:48Z</time>
      </trkpt>
      <trkpt lat="44.17157" lon="4.67694">
        <ele>150.58361816406</ele>
        <time>2019-04-13T12:43:50Z</time>
      </trkpt>
      <trkpt lat="44.17133" lon="4.67728">
        <ele>151.544921875</ele>
        <time>2019-04-13T12:43:57Z</time>
      </trkpt>
      <trkpt lat="44.17125" lon="4.67734">
        <ele>153.46765136719</ele>
        <time>2019-04-13T12:43:59Z</time>
      </trkpt>
      <trkpt lat="44.17111" lon="4.67741">
        <ele>147.69970703125</ele>
        <time>2019-04-13T12:44:03Z</time>
      </trkpt>
      <trkpt lat="44.17098" lon="4.67741">
        <ele>148.66101074219</ele>
        <time>2019-04-13T12:44:08Z</time>
      </trkpt>
      <trkpt lat="44.17091" lon="4.6775">
        <ele>147.69970703125</ele>
        <time>2019-04-13T12:44:11Z</time>
      </trkpt>
      <trkpt lat="44.17088" lon="4.67767">
        <ele>144.33520507812</ele>
        <time>2019-04-13T12:44:14Z</time>
      </trkpt>
      <trkpt lat="44.17086" lon="4.67772">
        <ele>143.85437011719</ele>
        <time>2019-04-13T12:44:15Z</time>
      </trkpt>
      <trkpt lat="44.17078" lon="4.67786">
        <ele>142.41247558594</ele>
        <time>2019-04-13T12:44:20Z</time>
      </trkpt>
      <trkpt lat="44.17071" lon="4.67798">
        <ele>140.97045898438</ele>
        <time>2019-04-13T12:44:24Z</time>
      </trkpt>
      <trkpt lat="44.17065" lon="4.6781">
        <ele>140.00915527344</ele>
        <time>2019-04-13T12:44:27Z</time>
      </trkpt>
      <trkpt lat="44.17058" lon="4.67824">
        <ele>137.60583496094</ele>
        <time>2019-04-13T12:44:30Z</time>
      </trkpt>
      <trkpt lat="44.17052" lon="4.67829">
        <ele>137.12524414062</ele>
        <time>2019-04-13T12:44:32Z</time>
      </trkpt>
      <trkpt lat="44.1704" lon="4.67846">
        <ele>136.16394042969</ele>
        <time>2019-04-13T12:44:36Z</time>
      </trkpt>
      <trkpt lat="44.17023" lon="4.67851">
        <ele>134.72192382812</ele>
        <time>2019-04-13T12:44:40Z</time>
      </trkpt>
      <trkpt lat="44.17007" lon="4.67855">
        <ele>133.27990722656</ele>
        <time>2019-04-13T12:44:43Z</time>
      </trkpt>
      <trkpt lat="44.17001" lon="4.67856">
        <ele>133.27990722656</ele>
        <time>2019-04-13T12:44:50Z</time>
      </trkpt>
      <trkpt lat="44.16987" lon="4.67857">
        <ele>131.35729980469</ele>
        <time>2019-04-13T12:44:56Z</time>
      </trkpt>
      <trkpt lat="44.16982" lon="4.67857">
        <ele>129.91528320312</ele>
        <time>2019-04-13T12:44:57Z</time>
      </trkpt>
      <trkpt lat="44.16966" lon="4.67883">
        <ele>127.03137207031</ele>
        <time>2019-04-13T12:45:03Z</time>
      </trkpt>
      <trkpt lat="44.16961" lon="4.6792">
        <ele>127.51196289062</ele>
        <time>2019-04-13T12:45:09Z</time>
      </trkpt>
      <trkpt lat="44.1696" lon="4.67954">
        <ele>130.39599609375</ele>
        <time>2019-04-13T12:45:19Z</time>
      </trkpt>
      <trkpt lat="44.1696" lon="4.67958">
        <ele>130.39599609375</ele>
        <time>2019-04-13T12:45:20Z</time>
      </trkpt>
      <trkpt lat="44.1696" lon="4.67975">
        <ele>130.87670898438</ele>
        <time>2019-04-13T12:45:26Z</time>
      </trkpt>
      <trkpt lat="44.16958" lon="4.67981">
        <ele>130.39599609375</ele>
        <time>2019-04-13T12:45:30Z</time>
      </trkpt>
      <trkpt lat="44.16943" lon="4.67982">
        <ele>128.47338867188</ele>
        <time>2019-04-13T12:45:37Z</time>
      </trkpt>
      <trkpt lat="44.16934" lon="4.67986">
        <ele>126.06994628906</ele>
        <time>2019-04-13T12:45:41Z</time>
      </trkpt>
      <trkpt lat="44.16932" lon="4.68009">
        <ele>124.62805175781</ele>
        <time>2019-04-13T12:45:46Z</time>
      </trkpt>
      <trkpt lat="44.16931" lon="4.68019">
        <ele>122.70544433594</ele>
        <time>2019-04-13T12:45:48Z</time>
      </trkpt>
      <trkpt lat="44.16931" lon="4.68035">
        <ele>120.30212402344</ele>
        <time>2019-04-13T12:45:50Z</time>
      </trkpt>
      <trkpt lat="44.16931" lon="4.68042">
        <ele>120.30212402344</ele>
        <time>2019-04-13T12:45:51Z</time>
      </trkpt>
      <trkpt lat="44.1693" lon="4.68072">
        <ele>119.3408203125</ele>
        <time>2019-04-13T12:45:56Z</time>
      </trkpt>
      <trkpt lat="44.16931" lon="4.68093">
        <ele>117.41821289062</ele>
        <time>2019-04-13T12:46:01Z</time>
      </trkpt>
      <trkpt lat="44.16931" lon="4.68098">
        <ele>118.37939453125</ele>
        <time>2019-04-13T12:47:01Z</time>
      </trkpt>
      <trkpt lat="44.16931" lon="4.68104">
        <ele>116.9375</ele>
        <time>2019-04-13T12:47:04Z</time>
      </trkpt>
      <trkpt lat="44.16922" lon="4.68111">
        <ele>115.97619628906</ele>
        <time>2019-04-13T12:47:10Z</time>
      </trkpt>
      <trkpt lat="44.16921" lon="4.68114">
        <ele>115.01489257812</ele>
        <time>2019-04-13T12:47:14Z</time>
      </trkpt>
      <trkpt lat="44.16922" lon="4.68123">
        <ele>115.01489257812</ele>
        <time>2019-04-13T12:47:18Z</time>
      </trkpt>
      <trkpt lat="44.16923" lon="4.68134">
        <ele>113.09228515625</ele>
        <time>2019-04-13T12:47:22Z</time>
      </trkpt>
      <trkpt lat="44.16919" lon="4.68141">
        <ele>113.09228515625</ele>
        <time>2019-04-13T12:47:36Z</time>
      </trkpt>
      <trkpt lat="44.16919" lon="4.68143">
        <ele>114.5341796875</ele>
        <time>2019-04-13T12:47:41Z</time>
      </trkpt>
      <trkpt lat="44.16919" lon="4.68143">
        <ele>113.09228515625</ele>
        <time>2019-04-13T12:47:43Z</time>
      </trkpt>
      <trkpt lat="44.16919" lon="4.68141">
        <ele>113.57299804688</ele>
        <time>2019-04-13T12:48:51Z</time>
      </trkpt>
      <trkpt lat="44.16902" lon="4.6813">
        <ele>111.65026855469</ele>
        <time>2019-04-13T12:49:00Z</time>
      </trkpt>
      <trkpt lat="44.16886" lon="4.68115">
        <ele>108.76623535156</ele>
        <time>2019-04-13T12:49:04Z</time>
      </trkpt>
      <trkpt lat="44.16878" lon="4.68105">
        <ele>108.28564453125</ele>
        <time>2019-04-13T12:49:06Z</time>
      </trkpt>
      <trkpt lat="44.16869" lon="4.68092">
        <ele>108.28564453125</ele>
        <time>2019-04-13T12:49:09Z</time>
      </trkpt>
      <trkpt lat="44.16854" lon="4.68048">
        <ele>108.28564453125</ele>
        <time>2019-04-13T12:49:20Z</time>
      </trkpt>
      <trkpt lat="44.16834" lon="4.68">
        <ele>110.68884277344</ele>
        <time>2019-04-13T12:49:37Z</time>
      </trkpt>
      <trkpt lat="44.16827" lon="4.67965">
        <ele>112.13098144531</ele>
        <time>2019-04-13T12:49:50Z</time>
      </trkpt>
      <trkpt lat="44.16824" lon="4.6792">
        <ele>114.5341796875</ele>
        <time>2019-04-13T12:50:07Z</time>
      </trkpt>
      <trkpt lat="44.16824" lon="4.67886">
        <ele>116.9375</ele>
        <time>2019-04-13T12:50:23Z</time>
      </trkpt>
      <trkpt lat="44.16823" lon="4.67881">
        <ele>116.9375</ele>
        <time>2019-04-13T12:50:25Z</time>
      </trkpt>
      <trkpt lat="44.16818" lon="4.67881">
        <ele>116.9375</ele>
        <time>2019-04-13T12:50:29Z</time>
      </trkpt>
      <trkpt lat="44.16783" lon="4.67909">
        <ele>117.41821289062</ele>
        <time>2019-04-13T12:50:45Z</time>
      </trkpt>
      <trkpt lat="44.16738" lon="4.67904">
        <ele>117.89880371094</ele>
        <time>2019-04-13T12:51:02Z</time>
      </trkpt>
      <trkpt lat="44.16688" lon="4.67904">
        <ele>117.89880371094</ele>
        <time>2019-04-13T12:51:20Z</time>
      </trkpt>
      <trkpt lat="44.16641" lon="4.6795">
        <ele>117.41821289062</ele>
        <time>2019-04-13T12:51:38Z</time>
      </trkpt>
      <trkpt lat="44.16623" lon="4.68002">
        <ele>117.41821289062</ele>
        <time>2019-04-13T12:51:51Z</time>
      </trkpt>
      <trkpt lat="44.16611" lon="4.68012">
        <ele>118.37939453125</ele>
        <time>2019-04-13T12:51:56Z</time>
      </trkpt>
      <trkpt lat="44.16603" lon="4.68013">
        <ele>119.82141113281</ele>
        <time>2019-04-13T12:52:01Z</time>
      </trkpt>
      <trkpt lat="44.16606" lon="4.68033">
        <ele>118.37939453125</ele>
        <time>2019-04-13T12:52:08Z</time>
      </trkpt>
      <trkpt lat="44.16611" lon="4.6804">
        <ele>119.3408203125</ele>
        <time>2019-04-13T12:52:11Z</time>
      </trkpt>
      <trkpt lat="44.16618" lon="4.68065">
        <ele>116.45678710938</ele>
        <time>2019-04-13T12:52:18Z</time>
      </trkpt>
      <trkpt lat="44.16621" lon="4.68084">
        <ele>117.89880371094</ele>
        <time>2019-04-13T12:52:22Z</time>
      </trkpt>
      <trkpt lat="44.16624" lon="4.68094">
        <ele>115.97619628906</ele>
        <time>2019-04-13T12:52:24Z</time>
      </trkpt>
      <trkpt lat="44.16623" lon="4.6813">
        <ele>115.49560546875</ele>
        <time>2019-04-13T12:52:32Z</time>
      </trkpt>
      <trkpt lat="44.16614" lon="4.68144">
        <ele>117.41821289062</ele>
        <time>2019-04-13T12:52:38Z</time>
      </trkpt>
      <trkpt lat="44.16609" lon="4.68154">
        <ele>117.41821289062</ele>
        <time>2019-04-13T12:52:43Z</time>
      </trkpt>
      <trkpt lat="44.16602" lon="4.68174">
        <ele>115.97619628906</ele>
        <time>2019-04-13T12:52:47Z</time>
      </trkpt>
      <trkpt lat="44.16592" lon="4.68198">
        <ele>117.41821289062</ele>
        <time>2019-04-13T12:52:53Z</time>
      </trkpt>
      <trkpt lat="44.16587" lon="4.68216">
        <ele>119.82141113281</ele>
        <time>2019-04-13T12:53:01Z</time>
      </trkpt>
      <trkpt lat="44.16572" lon="4.68255">
        <ele>119.82141113281</ele>
        <time>2019-04-13T12:53:14Z</time>
      </trkpt>
      <trkpt lat="44.16561" lon="4.68293">
        <ele>119.3408203125</ele>
        <time>2019-04-13T12:53:26Z</time>
      </trkpt>
      <trkpt lat="44.16551" lon="4.68344">
        <ele>118.86010742188</ele>
        <time>2019-04-13T12:53:38Z</time>
      </trkpt>
      <trkpt lat="44.16542" lon="4.68374">
        <ele>116.45678710938</ele>
        <time>2019-04-13T12:53:44Z</time>
      </trkpt>
      <trkpt lat="44.16533" lon="4.68407">
        <ele>112.61157226562</ele>
        <time>2019-04-13T12:53:50Z</time>
      </trkpt>
      <trkpt lat="44.16527" lon="4.68425">
        <ele>109.24694824219</ele>
        <time>2019-04-13T12:53:54Z</time>
      </trkpt>
      <trkpt lat="44.16521" lon="4.68432">
        <ele>106.36303710938</ele>
        <time>2019-04-13T12:53:57Z</time>
      </trkpt>
      <trkpt lat="44.16519" lon="4.68434">
        <ele>105.40173339844</ele>
        <time>2019-04-13T12:53:58Z</time>
      </trkpt>
      <trkpt lat="44.16515" lon="4.68429">
        <ele>103.95971679688</ele>
        <time>2019-04-13T12:54:08Z</time>
      </trkpt>
      <trkpt lat="44.16516" lon="4.68418">
        <ele>104.4404296875</ele>
        <time>2019-04-13T12:54:31Z</time>
      </trkpt>
      <trkpt lat="44.16513" lon="4.68408">
        <ele>104.92102050781</ele>
        <time>2019-04-13T12:54:37Z</time>
      </trkpt>
      <trkpt lat="44.16507" lon="4.68377">
        <ele>107.80505371094</ele>
        <time>2019-04-13T12:54:52Z</time>
      </trkpt>
      <trkpt lat="44.16494" lon="4.6836">
        <ele>110.20825195312</ele>
        <time>2019-04-13T12:55:05Z</time>
      </trkpt>
      <trkpt lat="44.1648" lon="4.68344">
        <ele>110.68884277344</ele>
        <time>2019-04-13T12:55:18Z</time>
      </trkpt>
      <trkpt lat="44.16464" lon="4.6834">
        <ele>111.65026855469</ele>
        <time>2019-04-13T12:55:30Z</time>
      </trkpt>
      <trkpt lat="44.16453" lon="4.68327">
        <ele>114.05358886719</ele>
        <time>2019-04-13T12:55:40Z</time>
      </trkpt>
      <trkpt lat="44.1645" lon="4.68321">
        <ele>114.05358886719</ele>
        <time>2019-04-13T12:55:43Z</time>
      </trkpt>
      <trkpt lat="44.16443" lon="4.68298">
        <ele>115.01489257812</ele>
        <time>2019-04-13T12:55:54Z</time>
      </trkpt>
      <trkpt lat="44.16436" lon="4.68289">
        <ele>115.01489257812</ele>
        <time>2019-04-13T12:56:00Z</time>
      </trkpt>
      <trkpt lat="44.16428" lon="4.68284">
        <ele>115.97619628906</ele>
        <time>2019-04-13T12:56:06Z</time>
      </trkpt>
      <trkpt lat="44.16407" lon="4.68279">
        <ele>117.41821289062</ele>
        <time>2019-04-13T12:56:19Z</time>
      </trkpt>
      <trkpt lat="44.16394" lon="4.68274">
        <ele>118.86010742188</ele>
        <time>2019-04-13T12:56:29Z</time>
      </trkpt>
      <trkpt lat="44.1639" lon="4.68272">
        <ele>120.30212402344</ele>
        <time>2019-04-13T12:56:32Z</time>
      </trkpt>
      <trkpt lat="44.16369" lon="4.68261">
        <ele>122.70544433594</ele>
        <time>2019-04-13T12:56:48Z</time>
      </trkpt>
      <trkpt lat="44.16365" lon="4.6826">
        <ele>123.66674804688</ele>
        <time>2019-04-13T12:56:51Z</time>
      </trkpt>
      <trkpt lat="44.16353" lon="4.68259">
        <ele>125.10876464844</ele>
        <time>2019-04-13T12:57:01Z</time>
      </trkpt>
      <trkpt lat="44.16342" lon="4.6826">
        <ele>127.03137207031</ele>
        <time>2019-04-13T12:57:10Z</time>
      </trkpt>
      <trkpt lat="44.16334" lon="4.68263">
        <ele>127.99255371094</ele>
        <time>2019-04-13T12:57:16Z</time>
      </trkpt>
      <trkpt lat="44.16317" lon="4.68258">
        <ele>127.99255371094</ele>
        <time>2019-04-13T12:57:28Z</time>
      </trkpt>
      <trkpt lat="44.16287" lon="4.68263">
        <ele>126.55065917969</ele>
        <time>2019-04-13T12:57:44Z</time>
      </trkpt>
      <trkpt lat="44.16264" lon="4.68272">
        <ele>126.06994628906</ele>
        <time>2019-04-13T12:57:55Z</time>
      </trkpt>
      <trkpt lat="44.16253" lon="4.68273">
        <ele>124.62805175781</ele>
        <time>2019-04-13T12:58:00Z</time>
      </trkpt>
      <trkpt lat="44.16233" lon="4.68264">
        <ele>125.58935546875</ele>
        <time>2019-04-13T12:58:10Z</time>
      </trkpt>
      <trkpt lat="44.16229" lon="4.68257">
        <ele>125.58935546875</ele>
        <time>2019-04-13T12:58:24Z</time>
      </trkpt>
      <trkpt lat="44.16225" lon="4.68251">
        <ele>126.55065917969</ele>
        <time>2019-04-13T12:58:45Z</time>
      </trkpt>
      <trkpt lat="44.16225" lon="4.6825">
        <ele>127.03137207031</ele>
        <time>2019-04-13T12:59:09Z</time>
      </trkpt>
      <trkpt lat="44.16224" lon="4.68248">
        <ele>127.99255371094</ele>
        <time>2019-04-13T12:59:12Z</time>
      </trkpt>
      <trkpt lat="44.16223" lon="4.68241">
        <ele>127.99255371094</ele>
        <time>2019-04-13T12:59:16Z</time>
      </trkpt>
      <trkpt lat="44.16221" lon="4.68234">
        <ele>128.9541015625</ele>
        <time>2019-04-13T12:59:22Z</time>
      </trkpt>
      <trkpt lat="44.1621" lon="4.68227">
        <ele>130.39599609375</ele>
        <time>2019-04-13T12:59:30Z</time>
      </trkpt>
      <trkpt lat="44.162" lon="4.68215">
        <ele>132.31860351562</ele>
        <time>2019-04-13T12:59:44Z</time>
      </trkpt>
      <trkpt lat="44.16199" lon="4.68214">
        <ele>132.79931640625</ele>
        <time>2019-04-13T12:59:46Z</time>
      </trkpt>
      <trkpt lat="44.16185" lon="4.68206">
        <ele>134.2412109375</ele>
        <time>2019-04-13T12:59:57Z</time>
      </trkpt>
      <trkpt lat="44.16181" lon="4.68195">
        <ele>135.68310546875</ele>
        <time>2019-04-13T13:00:04Z</time>
      </trkpt>
      <trkpt lat="44.1617" lon="4.68177">
        <ele>138.08654785156</ele>
        <time>2019-04-13T13:00:18Z</time>
      </trkpt>
      <trkpt lat="44.16163" lon="4.6817">
        <ele>139.0478515625</ele>
        <time>2019-04-13T13:00:24Z</time>
      </trkpt>
      <trkpt lat="44.16157" lon="4.68158">
        <ele>140.48986816406</ele>
        <time>2019-04-13T13:00:35Z</time>
      </trkpt>
      <trkpt lat="44.16154" lon="4.68153">
        <ele>140.97045898438</ele>
        <time>2019-04-13T13:00:39Z</time>
      </trkpt>
      <trkpt lat="44.16146" lon="4.68153">
        <ele>141.93176269531</ele>
        <time>2019-04-13T13:00:45Z</time>
      </trkpt>
      <trkpt lat="44.16136" lon="4.68164">
        <ele>142.41247558594</ele>
        <time>2019-04-13T13:00:54Z</time>
      </trkpt>
      <trkpt lat="44.16133" lon="4.68167">
        <ele>141.93176269531</ele>
        <time>2019-04-13T13:00:56Z</time>
      </trkpt>
      <trkpt lat="44.16124" lon="4.68162">
        <ele>140.48986816406</ele>
        <time>2019-04-13T13:00:59Z</time>
      </trkpt>
      <trkpt lat="44.16121" lon="4.68157">
        <ele>140.48986816406</ele>
        <time>2019-04-13T13:01:01Z</time>
      </trkpt>
      <trkpt lat="44.16118" lon="4.68148">
        <ele>140.00915527344</ele>
        <time>2019-04-13T13:01:16Z</time>
      </trkpt>
      <trkpt lat="44.16118" lon="4.68148">
        <ele>140.00915527344</ele>
        <time>2019-04-13T13:01:22Z</time>
      </trkpt>
      <trkpt lat="44.16119" lon="4.68122">
        <ele>138.56726074219</ele>
        <time>2019-04-13T13:01:31Z</time>
      </trkpt>
      <trkpt lat="44.1612" lon="4.68115">
        <ele>137.12524414062</ele>
        <time>2019-04-13T13:01:33Z</time>
      </trkpt>
      <trkpt lat="44.16118" lon="4.68104">
        <ele>136.16394042969</ele>
        <time>2019-04-13T13:01:36Z</time>
      </trkpt>
      <trkpt lat="44.16118" lon="4.68089">
        <ele>134.72192382812</ele>
        <time>2019-04-13T13:01:39Z</time>
      </trkpt>
      <trkpt lat="44.1612" lon="4.68066">
        <ele>133.27990722656</ele>
        <time>2019-04-13T13:01:42Z</time>
      </trkpt>
      <trkpt lat="44.16124" lon="4.68051">
        <ele>131.35729980469</ele>
        <time>2019-04-13T13:01:44Z</time>
      </trkpt>
      <trkpt lat="44.16124" lon="4.68017">
        <ele>127.03137207031</ele>
        <time>2019-04-13T13:01:49Z</time>
      </trkpt>
      <trkpt lat="44.16124" lon="4.67996">
        <ele>126.06994628906</ele>
        <time>2019-04-13T13:01:53Z</time>
      </trkpt>
      <trkpt lat="44.16106" lon="4.67963">
        <ele>125.10876464844</ele>
        <time>2019-04-13T13:01:59Z</time>
      </trkpt>
      <trkpt lat="44.161" lon="4.67945">
        <ele>125.10876464844</ele>
        <time>2019-04-13T13:02:02Z</time>
      </trkpt>
      <trkpt lat="44.16096" lon="4.67933">
        <ele>123.66674804688</ele>
        <time>2019-04-13T13:02:04Z</time>
      </trkpt>
      <trkpt lat="44.16072" lon="4.67901">
        <ele>121.744140625</ele>
        <time>2019-04-13T13:02:13Z</time>
      </trkpt>
      <trkpt lat="44.16062" lon="4.67908">
        <ele>121.26354980469</ele>
        <time>2019-04-13T13:02:16Z</time>
      </trkpt>
      <trkpt lat="44.16062" lon="4.67927">
        <ele>121.744140625</ele>
        <time>2019-04-13T13:02:23Z</time>
      </trkpt>
      <trkpt lat="44.16064" lon="4.6793">
        <ele>121.26354980469</ele>
        <time>2019-04-13T13:02:25Z</time>
      </trkpt>
      <trkpt lat="44.16071" lon="4.67952">
        <ele>123.66674804688</ele>
        <time>2019-04-13T13:02:35Z</time>
      </trkpt>
      <trkpt lat="44.16075" lon="4.67985">
        <ele>123.18615722656</ele>
        <time>2019-04-13T13:02:47Z</time>
      </trkpt>
      <trkpt lat="44.16064" lon="4.67996">
        <ele>123.66674804688</ele>
        <time>2019-04-13T13:02:55Z</time>
      </trkpt>
      <trkpt lat="44.16034" lon="4.67998">
        <ele>124.62805175781</ele>
        <time>2019-04-13T13:03:12Z</time>
      </trkpt>
      <trkpt lat="44.16024" lon="4.68">
        <ele>127.03137207031</ele>
        <time>2019-04-13T13:03:18Z</time>
      </trkpt>
      <trkpt lat="44.16001" lon="4.6801">
        <ele>128.9541015625</ele>
        <time>2019-04-13T13:03:31Z</time>
      </trkpt>
      <trkpt lat="44.15977" lon="4.68015">
        <ele>131.837890625</ele>
        <time>2019-04-13T13:03:48Z</time>
      </trkpt>
      <trkpt lat="44.15951" lon="4.68007">
        <ele>133.76049804688</ele>
        <time>2019-04-13T13:04:06Z</time>
      </trkpt>
      <trkpt lat="44.15929" lon="4.67995">
        <ele>134.72192382812</ele>
        <time>2019-04-13T13:04:22Z</time>
      </trkpt>
      <trkpt lat="44.15927" lon="4.67995">
        <ele>134.72192382812</ele>
        <time>2019-04-13T13:04:23Z</time>
      </trkpt>
      <trkpt lat="44.15924" lon="4.67995">
        <ele>136.16394042969</ele>
        <time>2019-04-13T13:04:39Z</time>
      </trkpt>
      <trkpt lat="44.15913" lon="4.67991">
        <ele>136.64465332031</ele>
        <time>2019-04-13T13:05:01Z</time>
      </trkpt>
      <trkpt lat="44.1589" lon="4.67991">
        <ele>138.08654785156</ele>
        <time>2019-04-13T13:05:17Z</time>
      </trkpt>
      <trkpt lat="44.15862" lon="4.68001">
        <ele>138.08654785156</ele>
        <time>2019-04-13T13:05:32Z</time>
      </trkpt>
      <trkpt lat="44.15828" lon="4.68025">
        <ele>139.0478515625</ele>
        <time>2019-04-13T13:05:49Z</time>
      </trkpt>
      <trkpt lat="44.15827" lon="4.68027">
        <ele>139.0478515625</ele>
        <time>2019-04-13T13:05:50Z</time>
      </trkpt>
      <trkpt lat="44.15835" lon="4.68068">
        <ele>137.12524414062</ele>
        <time>2019-04-13T13:06:00Z</time>
      </trkpt>
      <trkpt lat="44.15872" lon="4.68106">
        <ele>137.12524414062</ele>
        <time>2019-04-13T13:06:16Z</time>
      </trkpt>
      <trkpt lat="44.15897" lon="4.68158">
        <ele>136.16394042969</ele>
        <time>2019-04-13T13:06:29Z</time>
      </trkpt>
      <trkpt lat="44.15896" lon="4.68203">
        <ele>136.16394042969</ele>
        <time>2019-04-13T13:06:40Z</time>
      </trkpt>
      <trkpt lat="44.15882" lon="4.68244">
        <ele>137.60583496094</ele>
        <time>2019-04-13T13:06:54Z</time>
      </trkpt>
      <trkpt lat="44.15868" lon="4.68304">
        <ele>138.56726074219</ele>
        <time>2019-04-13T13:07:10Z</time>
      </trkpt>
      <trkpt lat="44.15866" lon="4.68317">
        <ele>140.00915527344</ele>
        <time>2019-04-13T13:07:14Z</time>
      </trkpt>
      <trkpt lat="44.15864" lon="4.68368">
        <ele>141.45104980469</ele>
        <time>2019-04-13T13:07:29Z</time>
      </trkpt>
      <trkpt lat="44.15873" lon="4.6842">
        <ele>140.97045898438</ele>
        <time>2019-04-13T13:07:41Z</time>
      </trkpt>
      <trkpt lat="44.15874" lon="4.68478">
        <ele>140.48986816406</ele>
        <time>2019-04-13T13:07:56Z</time>
      </trkpt>
      <trkpt lat="44.15865" lon="4.68525">
        <ele>143.85437011719</ele>
        <time>2019-04-13T13:08:12Z</time>
      </trkpt>
      <trkpt lat="44.1585" lon="4.68559">
        <ele>146.73840332031</ele>
        <time>2019-04-13T13:08:31Z</time>
      </trkpt>
      <trkpt lat="44.15845" lon="4.68591">
        <ele>147.21899414062</ele>
        <time>2019-04-13T13:08:45Z</time>
      </trkpt>
      <trkpt lat="44.15848" lon="4.68633">
        <ele>149.1416015625</ele>
        <time>2019-04-13T13:09:00Z</time>
      </trkpt>
      <trkpt lat="44.15849" lon="4.68647">
        <ele>150.58361816406</ele>
        <time>2019-04-13T13:09:06Z</time>
      </trkpt>
      <trkpt lat="44.15853" lon="4.68693">
        <ele>149.62231445312</ele>
        <time>2019-04-13T13:09:21Z</time>
      </trkpt>
      <trkpt lat="44.15866" lon="4.68738">
        <ele>148.66101074219</ele>
        <time>2019-04-13T13:09:34Z</time>
      </trkpt>
      <trkpt lat="44.15891" lon="4.68783">
        <ele>149.1416015625</ele>
        <time>2019-04-13T13:09:49Z</time>
      </trkpt>
      <trkpt lat="44.15897" lon="4.68793">
        <ele>148.66101074219</ele>
        <time>2019-04-13T13:09:53Z</time>
      </trkpt>
      <trkpt lat="44.15892" lon="4.68827">
        <ele>150.58361816406</ele>
        <time>2019-04-13T13:10:04Z</time>
      </trkpt>
      <trkpt lat="44.15889" lon="4.68843">
        <ele>151.06420898438</ele>
        <time>2019-04-13T13:10:10Z</time>
      </trkpt>
      <trkpt lat="44.15893" lon="4.68883">
        <ele>152.98693847656</ele>
        <time>2019-04-13T13:10:25Z</time>
      </trkpt>
      <trkpt lat="44.15894" lon="4.68911">
        <ele>155.39025878906</ele>
        <time>2019-04-13T13:10:38Z</time>
      </trkpt>
      <trkpt lat="44.15902" lon="4.68936">
        <ele>157.31286621094</ele>
        <time>2019-04-13T13:10:52Z</time>
      </trkpt>
      <trkpt lat="44.15902" lon="4.68945">
        <ele>157.79357910156</ele>
        <time>2019-04-13T13:10:56Z</time>
      </trkpt>
      <trkpt lat="44.15894" lon="4.68974">
        <ele>160.19689941406</ele>
        <time>2019-04-13T13:11:11Z</time>
      </trkpt>
      <trkpt lat="44.15888" lon="4.69019">
        <ele>159.23547363281</ele>
        <time>2019-04-13T13:11:28Z</time>
      </trkpt>
      <trkpt lat="44.15881" lon="4.69022">
        <ele>159.23547363281</ele>
        <time>2019-04-13T13:11:33Z</time>
      </trkpt>
      <trkpt lat="44.15877" lon="4.69022">
        <ele>159.23547363281</ele>
        <time>2019-04-13T13:11:35Z</time>
      </trkpt>
      <trkpt lat="44.15842" lon="4.69008">
        <ele>160.67749023438</ele>
        <time>2019-04-13T13:11:54Z</time>
      </trkpt>
      <trkpt lat="44.15816" lon="4.69001">
        <ele>162.11950683594</ele>
        <time>2019-04-13T13:12:06Z</time>
      </trkpt>
      <trkpt lat="44.15775" lon="4.68986">
        <ele>161.63891601562</ele>
        <time>2019-04-13T13:12:25Z</time>
      </trkpt>
      <trkpt lat="44.15736" lon="4.68975">
        <ele>160.19689941406</ele>
        <time>2019-04-13T13:12:38Z</time>
      </trkpt>
      <trkpt lat="44.15708" lon="4.68964">
        <ele>161.63891601562</ele>
        <time>2019-04-13T13:12:50Z</time>
      </trkpt>
      <trkpt lat="44.15674" lon="4.68954">
        <ele>163.5615234375</ele>
        <time>2019-04-13T13:13:06Z</time>
      </trkpt>
      <trkpt lat="44.15664" lon="4.6895">
        <ele>164.52270507812</ele>
        <time>2019-04-13T13:13:11Z</time>
      </trkpt>
      <trkpt lat="44.15663" lon="4.68958">
        <ele>164.04211425781</ele>
        <time>2019-04-13T13:15:18Z</time>
      </trkpt>
      <trkpt lat="44.15664" lon="4.68972">
        <ele>165.00341796875</ele>
        <time>2019-04-13T13:15:43Z</time>
      </trkpt>
      <trkpt lat="44.15669" lon="4.69012">
        <ele>164.04211425781</ele>
        <time>2019-04-13T13:15:56Z</time>
      </trkpt>
      <trkpt lat="44.15667" lon="4.69046">
        <ele>165.48413085938</ele>
        <time>2019-04-13T13:16:08Z</time>
      </trkpt>
      <trkpt lat="44.15667" lon="4.69049">
        <ele>165.48413085938</ele>
        <time>2019-04-13T13:16:09Z</time>
      </trkpt>
      <trkpt lat="44.15664" lon="4.69061">
        <ele>165.48413085938</ele>
        <time>2019-04-13T13:16:13Z</time>
      </trkpt>
      <trkpt lat="44.1566" lon="4.6908">
        <ele>165.48413085938</ele>
        <time>2019-04-13T13:16:20Z</time>
      </trkpt>
      <trkpt lat="44.1566" lon="4.69101">
        <ele>165.00341796875</ele>
        <time>2019-04-13T13:16:29Z</time>
      </trkpt>
      <trkpt lat="44.1566" lon="4.69104">
        <ele>165.00341796875</ele>
        <time>2019-04-13T13:16:37Z</time>
      </trkpt>
      <trkpt lat="44.15664" lon="4.69107">
        <ele>165.48413085938</ele>
        <time>2019-04-13T13:16:50Z</time>
      </trkpt>
      <trkpt lat="44.15664" lon="4.69108">
        <ele>165.48413085938</ele>
        <time>2019-04-13T13:16:53Z</time>
      </trkpt>
      <trkpt lat="44.1566" lon="4.69146">
        <ele>165.48413085938</ele>
        <time>2019-04-13T13:17:05Z</time>
      </trkpt>
      <trkpt lat="44.15657" lon="4.69159">
        <ele>165.96472167969</ele>
        <time>2019-04-13T13:17:09Z</time>
      </trkpt>
      <trkpt lat="44.1566" lon="4.69168">
        <ele>165.48413085938</ele>
        <time>2019-04-13T13:17:13Z</time>
      </trkpt>
      <trkpt lat="44.15658" lon="4.69195">
        <ele>165.96472167969</ele>
        <time>2019-04-13T13:17:22Z</time>
      </trkpt>
      <trkpt lat="44.15662" lon="4.69223">
        <ele>165.48413085938</ele>
        <time>2019-04-13T13:17:30Z</time>
      </trkpt>
      <trkpt lat="44.15673" lon="4.69237">
        <ele>163.08081054688</ele>
        <time>2019-04-13T13:17:35Z</time>
      </trkpt>
      <trkpt lat="44.15685" lon="4.69247">
        <ele>161.158203125</ele>
        <time>2019-04-13T13:17:39Z</time>
      </trkpt>
      <trkpt lat="44.15699" lon="4.69254">
        <ele>160.19689941406</ele>
        <time>2019-04-13T13:17:43Z</time>
      </trkpt>
      <trkpt lat="44.15712" lon="4.69256">
        <ele>158.75476074219</ele>
        <time>2019-04-13T13:17:46Z</time>
      </trkpt>
      <trkpt lat="44.1572" lon="4.69254">
        <ele>157.31286621094</ele>
        <time>2019-04-13T13:17:48Z</time>
      </trkpt>
      <trkpt lat="44.15731" lon="4.69256">
        <ele>155.39025878906</ele>
        <time>2019-04-13T13:17:50Z</time>
      </trkpt>
      <trkpt lat="44.15756" lon="4.69257">
        <ele>153.46765136719</ele>
        <time>2019-04-13T13:17:57Z</time>
      </trkpt>
      <trkpt lat="44.15755" lon="4.69256">
        <ele>153.46765136719</ele>
        <time>2019-04-13T13:18:04Z</time>
      </trkpt>
      <trkpt lat="44.15765" lon="4.69248">
        <ele>151.544921875</ele>
        <time>2019-04-13T13:18:09Z</time>
      </trkpt>
      <trkpt lat="44.15787" lon="4.69253">
        <ele>150.10302734375</ele>
        <time>2019-04-13T13:18:14Z</time>
      </trkpt>
      <trkpt lat="44.158" lon="4.69259">
        <ele>147.69970703125</ele>
        <time>2019-04-13T13:18:16Z</time>
      </trkpt>
      <trkpt lat="44.15811" lon="4.69273">
        <ele>144.81579589844</ele>
        <time>2019-04-13T13:18:19Z</time>
      </trkpt>
      <trkpt lat="44.15824" lon="4.69279">
        <ele>145.29638671875</ele>
        <time>2019-04-13T13:18:24Z</time>
      </trkpt>
      <trkpt lat="44.15841" lon="4.69265">
        <ele>148.18041992188</ele>
        <time>2019-04-13T13:18:35Z</time>
      </trkpt>
      <trkpt lat="44.15845" lon="4.69255">
        <ele>149.62231445312</ele>
        <time>2019-04-13T13:18:41Z</time>
      </trkpt>
      <trkpt lat="44.15851" lon="4.69248">
        <ele>151.06420898438</ele>
        <time>2019-04-13T13:18:47Z</time>
      </trkpt>
      <trkpt lat="44.15864" lon="4.69236">
        <ele>152.98693847656</ele>
        <time>2019-04-13T13:18:59Z</time>
      </trkpt>
      <trkpt lat="44.15883" lon="4.69227">
        <ele>154.42895507812</ele>
        <time>2019-04-13T13:19:13Z</time>
      </trkpt>
      <trkpt lat="44.159" lon="4.6922">
        <ele>155.87097167969</ele>
        <time>2019-04-13T13:19:24Z</time>
      </trkpt>
      <trkpt lat="44.15904" lon="4.69226">
        <ele>156.3515625</ele>
        <time>2019-04-13T13:19:29Z</time>
      </trkpt>
      <trkpt lat="44.15923" lon="4.69239">
        <ele>157.31286621094</ele>
        <time>2019-04-13T13:19:42Z</time>
      </trkpt>
      <trkpt lat="44.1594" lon="4.69245">
        <ele>159.71618652344</ele>
        <time>2019-04-13T13:19:54Z</time>
      </trkpt>
      <trkpt lat="44.15954" lon="4.69252">
        <ele>158.27416992188</ele>
        <time>2019-04-13T13:20:02Z</time>
      </trkpt>
      <trkpt lat="44.15964" lon="4.69255">
        <ele>156.3515625</ele>
        <time>2019-04-13T13:20:06Z</time>
      </trkpt>
      <trkpt lat="44.15975" lon="4.69261">
        <ele>153.94836425781</ele>
        <time>2019-04-13T13:20:09Z</time>
      </trkpt>
      <trkpt lat="44.15989" lon="4.69271">
        <ele>151.06420898438</ele>
        <time>2019-04-13T13:20:13Z</time>
      </trkpt>
      <trkpt lat="44.15997" lon="4.69275">
        <ele>146.73840332031</ele>
        <time>2019-04-13T13:20:16Z</time>
      </trkpt>
      <trkpt lat="44.16002" lon="4.69276">
        <ele>145.77709960938</ele>
        <time>2019-04-13T13:20:18Z</time>
      </trkpt>
      <trkpt lat="44.16014" lon="4.69276">
        <ele>145.29638671875</ele>
        <time>2019-04-13T13:20:22Z</time>
      </trkpt>
      <trkpt lat="44.16017" lon="4.69276">
        <ele>145.29638671875</ele>
        <time>2019-04-13T13:20:23Z</time>
      </trkpt>
      <trkpt lat="44.16055" lon="4.69293">
        <ele>141.45104980469</ele>
        <time>2019-04-13T13:20:34Z</time>
      </trkpt>
      <trkpt lat="44.16068" lon="4.69297">
        <ele>138.08654785156</ele>
        <time>2019-04-13T13:20:38Z</time>
      </trkpt>
      <trkpt lat="44.16071" lon="4.69299">
        <ele>138.08654785156</ele>
        <time>2019-04-13T13:20:39Z</time>
      </trkpt>
      <trkpt lat="44.16072" lon="4.69301">
        <ele>138.08654785156</ele>
        <time>2019-04-13T13:20:40Z</time>
      </trkpt>
      <trkpt lat="44.16081" lon="4.69305">
        <ele>134.2412109375</ele>
        <time>2019-04-13T13:20:45Z</time>
      </trkpt>
      <trkpt lat="44.16086" lon="4.69307">
        <ele>133.27990722656</ele>
        <time>2019-04-13T13:20:47Z</time>
      </trkpt>
      <trkpt lat="44.16094" lon="4.6931">
        <ele>130.39599609375</ele>
        <time>2019-04-13T13:20:51Z</time>
      </trkpt>
      <trkpt lat="44.16103" lon="4.69313">
        <ele>124.62805175781</ele>
        <time>2019-04-13T13:20:57Z</time>
      </trkpt>
      <trkpt lat="44.16111" lon="4.69313">
        <ele>119.82141113281</ele>
        <time>2019-04-13T13:21:01Z</time>
      </trkpt>
      <trkpt lat="44.16127" lon="4.69305">
        <ele>117.41821289062</ele>
        <time>2019-04-13T13:21:05Z</time>
      </trkpt>
      <trkpt lat="44.16138" lon="4.69308">
        <ele>115.97619628906</ele>
        <time>2019-04-13T13:21:09Z</time>
      </trkpt>
      <trkpt lat="44.16141" lon="4.69321">
        <ele>114.05358886719</ele>
        <time>2019-04-13T13:21:15Z</time>
      </trkpt>
      <trkpt lat="44.16147" lon="4.69327">
        <ele>113.09228515625</ele>
        <time>2019-04-13T13:21:23Z</time>
      </trkpt>
      <trkpt lat="44.1615" lon="4.69331">
        <ele>113.57299804688</ele>
        <time>2019-04-13T13:21:40Z</time>
      </trkpt>
      <trkpt lat="44.16154" lon="4.69332">
        <ele>112.61157226562</ele>
        <time>2019-04-13T13:22:28Z</time>
      </trkpt>
      <trkpt lat="44.16155" lon="4.69334">
        <ele>112.13098144531</ele>
        <time>2019-04-13T13:22:50Z</time>
      </trkpt>
      <trkpt lat="44.16153" lon="4.69336">
        <ele>112.13098144531</ele>
        <time>2019-04-13T13:23:15Z</time>
      </trkpt>
      <trkpt lat="44.16154" lon="4.69336">
        <ele>111.65026855469</ele>
        <time>2019-04-13T13:23:20Z</time>
      </trkpt>
      <trkpt lat="44.16181" lon="4.69346">
        <ele>111.65026855469</ele>
        <time>2019-04-13T13:23:32Z</time>
      </trkpt>
      <trkpt lat="44.16188" lon="4.69346">
        <ele>112.13098144531</ele>
        <time>2019-04-13T13:23:34Z</time>
      </trkpt>
      <trkpt lat="44.16195" lon="4.69347">
        <ele>114.05358886719</ele>
        <time>2019-04-13T13:23:41Z</time>
      </trkpt>
      <trkpt lat="44.16202" lon="4.69351">
        <ele>117.41821289062</ele>
        <time>2019-04-13T13:23:53Z</time>
      </trkpt>
      <trkpt lat="44.1621" lon="4.69356">
        <ele>117.41821289062</ele>
        <time>2019-04-13T13:24:09Z</time>
      </trkpt>
      <trkpt lat="44.16222" lon="4.69359">
        <ele>115.97619628906</ele>
        <time>2019-04-13T13:24:19Z</time>
      </trkpt>
      <trkpt lat="44.16234" lon="4.69366">
        <ele>112.61157226562</ele>
        <time>2019-04-13T13:24:36Z</time>
      </trkpt>
      <trkpt lat="44.16244" lon="4.69367">
        <ele>108.28564453125</ele>
        <time>2019-04-13T13:24:39Z</time>
      </trkpt>
      <trkpt lat="44.16252" lon="4.69369">
        <ele>106.36303710938</ele>
        <time>2019-04-13T13:24:41Z</time>
      </trkpt>
      <trkpt lat="44.16257" lon="4.6937">
        <ele>105.40173339844</ele>
        <time>2019-04-13T13:24:42Z</time>
      </trkpt>
      <trkpt lat="44.16282" lon="4.69377">
        <ele>101.07568359375</ele>
        <time>2019-04-13T13:24:48Z</time>
      </trkpt>
      <trkpt lat="44.16293" lon="4.69379">
        <ele>97.23046875</ele>
        <time>2019-04-13T13:24:52Z</time>
      </trkpt>
      <trkpt lat="44.16301" lon="4.6938">
        <ele>95.788452148438</ele>
        <time>2019-04-13T13:24:55Z</time>
      </trkpt>
      <trkpt lat="44.16311" lon="4.69382">
        <ele>92.423950195312</ele>
        <time>2019-04-13T13:24:58Z</time>
      </trkpt>
      <trkpt lat="44.16319" lon="4.69385">
        <ele>90.020629882812</ele>
        <time>2019-04-13T13:25:00Z</time>
      </trkpt>
      <trkpt lat="44.16326" lon="4.69389">
        <ele>88.578735351562</ele>
        <time>2019-04-13T13:25:02Z</time>
      </trkpt>
      <trkpt lat="44.16343" lon="4.69391">
        <ele>86.17529296875</ele>
        <time>2019-04-13T13:25:07Z</time>
      </trkpt>
      <trkpt lat="44.16367" lon="4.69394">
        <ele>82.330078125</ele>
        <time>2019-04-13T13:25:14Z</time>
      </trkpt>
      <trkpt lat="44.16373" lon="4.69398">
        <ele>83.77197265625</ele>
        <time>2019-04-13T13:25:28Z</time>
      </trkpt>
      <trkpt lat="44.16375" lon="4.69399">
        <ele>83.291381835938</ele>
        <time>2019-04-13T13:25:36Z</time>
      </trkpt>
      <trkpt lat="44.16386" lon="4.69409">
        <ele>80.407470703125</ele>
        <time>2019-04-13T13:25:42Z</time>
      </trkpt>
      <trkpt lat="44.16392" lon="4.69409">
        <ele>79.926635742188</ele>
        <time>2019-04-13T13:25:44Z</time>
      </trkpt>
      <trkpt lat="44.16425" lon="4.69397">
        <ele>77.042846679688</ele>
        <time>2019-04-13T13:25:53Z</time>
      </trkpt>
      <trkpt lat="44.16429" lon="4.69396">
        <ele>77.5234375</ele>
        <time>2019-04-13T13:25:54Z</time>
      </trkpt>
      <trkpt lat="44.16448" lon="4.69391">
        <ele>77.042846679688</ele>
        <time>2019-04-13T13:26:00Z</time>
      </trkpt>
      <trkpt lat="44.16453" lon="4.69388">
        <ele>77.042846679688</ele>
        <time>2019-04-13T13:26:02Z</time>
      </trkpt>
      <trkpt lat="44.16461" lon="4.69386">
        <ele>75.600830078125</ele>
        <time>2019-04-13T13:26:05Z</time>
      </trkpt>
      <trkpt lat="44.16495" lon="4.69383">
        <ele>74.158813476562</ele>
        <time>2019-04-13T13:26:15Z</time>
      </trkpt>
      <trkpt lat="44.16519" lon="4.69382">
        <ele>71.755493164062</ele>
        <time>2019-04-13T13:26:22Z</time>
      </trkpt>
      <trkpt lat="44.16541" lon="4.69408">
        <ele>68.87158203125</ele>
        <time>2019-04-13T13:26:29Z</time>
      </trkpt>
      <trkpt lat="44.1657" lon="4.69443">
        <ele>66.948974609375</ele>
        <time>2019-04-13T13:26:37Z</time>
      </trkpt>
      <trkpt lat="44.16575" lon="4.6945">
        <ele>66.46826171875</ele>
        <time>2019-04-13T13:26:39Z</time>
      </trkpt>
      <trkpt lat="44.16603" lon="4.69448">
        <ele>64.545654296875</ele>
        <time>2019-04-13T13:26:48Z</time>
      </trkpt>
      <trkpt lat="44.16618" lon="4.6945">
        <ele>63.103637695312</ele>
        <time>2019-04-13T13:26:53Z</time>
      </trkpt>
      <trkpt lat="44.16631" lon="4.69466">
        <ele>62.142333984375</ele>
        <time>2019-04-13T13:27:01Z</time>
      </trkpt>
      <trkpt lat="44.1663" lon="4.69467">
        <ele>61.181030273438</ele>
        <time>2019-04-13T13:27:16Z</time>
      </trkpt>
      <trkpt lat="44.1663" lon="4.69471">
        <ele>62.622924804688</ele>
        <time>2019-04-13T13:27:55Z</time>
      </trkpt>
      <trkpt lat="44.16629" lon="4.69473">
        <ele>62.622924804688</ele>
        <time>2019-04-13T13:27:56Z</time>
      </trkpt>
      <trkpt lat="44.16627" lon="4.69507">
        <ele>61.181030273438</ele>
        <time>2019-04-13T13:28:07Z</time>
      </trkpt>
      <trkpt lat="44.16622" lon="4.69555">
        <ele>61.181030273438</ele>
        <time>2019-04-13T13:28:20Z</time>
      </trkpt>
      <trkpt lat="44.1662" lon="4.69565">
        <ele>61.181030273438</ele>
        <time>2019-04-13T13:28:23Z</time>
      </trkpt>
      <trkpt lat="44.16622" lon="4.69613">
        <ele>60.700317382812</ele>
        <time>2019-04-13T13:28:35Z</time>
      </trkpt>
      <trkpt lat="44.16632" lon="4.69651">
        <ele>59.739135742188</ele>
        <time>2019-04-13T13:28:45Z</time>
      </trkpt>
      <trkpt lat="44.16636" lon="4.69657">
        <ele>63.584350585938</ele>
        <time>2019-04-13T13:30:14Z</time>
      </trkpt>
      <trkpt lat="44.16624" lon="4.6968">
        <ele>64.545654296875</ele>
        <time>2019-04-13T13:30:28Z</time>
      </trkpt>
      <trkpt lat="44.16616" lon="4.69712">
        <ele>66.46826171875</ele>
        <time>2019-04-13T13:30:44Z</time>
      </trkpt>
      <trkpt lat="44.16608" lon="4.69739">
        <ele>69.352294921875</ele>
        <time>2019-04-13T13:30:57Z</time>
      </trkpt>
      <trkpt lat="44.16606" lon="4.69767">
        <ele>72.236206054688</ele>
        <time>2019-04-13T13:31:12Z</time>
      </trkpt>
      <trkpt lat="44.16607" lon="4.69773">
        <ele>72.716918945312</ele>
        <time>2019-04-13T13:31:15Z</time>
      </trkpt>
      <trkpt lat="44.16615" lon="4.69778">
        <ele>72.236206054688</ele>
        <time>2019-04-13T13:31:20Z</time>
      </trkpt>
      <trkpt lat="44.16643" lon="4.6979">
        <ele>72.236206054688</ele>
        <time>2019-04-13T13:31:37Z</time>
      </trkpt>
      <trkpt lat="44.16644" lon="4.69807">
        <ele>71.755493164062</ele>
        <time>2019-04-13T13:31:43Z</time>
      </trkpt>
      <trkpt lat="44.16635" lon="4.69863">
        <ele>69.352294921875</ele>
        <time>2019-04-13T13:31:55Z</time>
      </trkpt>
      <trkpt lat="44.16633" lon="4.69864">
        <ele>69.352294921875</ele>
        <time>2019-04-13T13:31:56Z</time>
      </trkpt>
      <trkpt lat="44.16606" lon="4.69856">
        <ele>69.832885742188</ele>
        <time>2019-04-13T13:32:06Z</time>
      </trkpt>
      <trkpt lat="44.16593" lon="4.69851">
        <ele>71.755493164062</ele>
        <time>2019-04-13T13:32:11Z</time>
      </trkpt>
      <trkpt lat="44.16578" lon="4.69861">
        <ele>71.755493164062</ele>
        <time>2019-04-13T13:32:21Z</time>
      </trkpt>
      <trkpt lat="44.16556" lon="4.69865">
        <ele>72.236206054688</ele>
        <time>2019-04-13T13:32:32Z</time>
      </trkpt>
      <trkpt lat="44.16538" lon="4.69863">
        <ele>72.236206054688</ele>
        <time>2019-04-13T13:32:45Z</time>
      </trkpt>
      <trkpt lat="44.16529" lon="4.69864">
        <ele>73.197631835938</ele>
        <time>2019-04-13T13:32:51Z</time>
      </trkpt>
      <trkpt lat="44.16516" lon="4.69867">
        <ele>74.158813476562</ele>
        <time>2019-04-13T13:33:01Z</time>
      </trkpt>
      <trkpt lat="44.16498" lon="4.69864">
        <ele>75.600830078125</ele>
        <time>2019-04-13T13:33:13Z</time>
      </trkpt>
      <trkpt lat="44.16486" lon="4.6986">
        <ele>77.042846679688</ele>
        <time>2019-04-13T13:33:21Z</time>
      </trkpt>
      <trkpt lat="44.16461" lon="4.69856">
        <ele>78.965454101562</ele>
        <time>2019-04-13T13:33:35Z</time>
      </trkpt>
      <trkpt lat="44.16441" lon="4.69851">
        <ele>80.407470703125</ele>
        <time>2019-04-13T13:33:49Z</time>
      </trkpt>
      <trkpt lat="44.1644" lon="4.69851">
        <ele>80.407470703125</ele>
        <time>2019-04-13T13:33:50Z</time>
      </trkpt>
      <trkpt lat="44.16434" lon="4.69846">
        <ele>81.368774414062</ele>
        <time>2019-04-13T13:33:54Z</time>
      </trkpt>
      <trkpt lat="44.16419" lon="4.69834">
        <ele>83.291381835938</ele>
        <time>2019-04-13T13:34:05Z</time>
      </trkpt>
      <trkpt lat="44.16409" lon="4.69834">
        <ele>84.252685546875</ele>
        <time>2019-04-13T13:34:11Z</time>
      </trkpt>
      <trkpt lat="44.16397" lon="4.6983">
        <ele>84.7333984375</ele>
        <time>2019-04-13T13:34:21Z</time>
      </trkpt>
      <trkpt lat="44.1639" lon="4.6983">
        <ele>85.213989257812</ele>
        <time>2019-04-13T13:34:26Z</time>
      </trkpt>
      <trkpt lat="44.16378" lon="4.69819">
        <ele>86.17529296875</ele>
        <time>2019-04-13T13:34:35Z</time>
      </trkpt>
      <trkpt lat="44.16366" lon="4.69811">
        <ele>88.578735351562</ele>
        <time>2019-04-13T13:34:46Z</time>
      </trkpt>
      <trkpt lat="44.16359" lon="4.69806">
        <ele>89.539916992188</ele>
        <time>2019-04-13T13:34:52Z</time>
      </trkpt>
      <trkpt lat="44.16341" lon="4.69796">
        <ele>91.943237304688</ele>
        <time>2019-04-13T13:35:06Z</time>
      </trkpt>
      <trkpt lat="44.16334" lon="4.69802">
        <ele>91.943237304688</ele>
        <time>2019-04-13T13:35:18Z</time>
      </trkpt>
      <trkpt lat="44.16334" lon="4.6981">
        <ele>92.904541015625</ele>
        <time>2019-04-13T13:35:31Z</time>
      </trkpt>
      <trkpt lat="44.16333" lon="4.69811">
        <ele>93.385131835938</ele>
        <time>2019-04-13T13:35:45Z</time>
      </trkpt>
      <trkpt lat="44.16334" lon="4.69815">
        <ele>93.865844726562</ele>
        <time>2019-04-13T13:36:02Z</time>
      </trkpt>
      <trkpt lat="44.16331" lon="4.69833">
        <ele>96.749877929688</ele>
        <time>2019-04-13T13:36:16Z</time>
      </trkpt>
      <trkpt lat="44.16327" lon="4.69849">
        <ele>99.153076171875</ele>
        <time>2019-04-13T13:36:29Z</time>
      </trkpt>
      <trkpt lat="44.16325" lon="4.69863">
        <ele>101.07568359375</ele>
        <time>2019-04-13T13:36:43Z</time>
      </trkpt>
      <trkpt lat="44.16321" lon="4.69874">
        <ele>102.037109375</ele>
        <time>2019-04-13T13:36:54Z</time>
      </trkpt>
      <trkpt lat="44.16318" lon="4.69883">
        <ele>103.47900390625</ele>
        <time>2019-04-13T13:37:08Z</time>
      </trkpt>
      <trkpt lat="44.16318" lon="4.69893">
        <ele>105.88244628906</ele>
        <time>2019-04-13T13:37:20Z</time>
      </trkpt>
      <trkpt lat="44.16319" lon="4.69893">
        <ele>106.36303710938</ele>
        <time>2019-04-13T13:37:35Z</time>
      </trkpt>
      <trkpt lat="44.16317" lon="4.69898">
        <ele>108.28564453125</ele>
        <time>2019-04-13T13:37:49Z</time>
      </trkpt>
      <trkpt lat="44.16318" lon="4.69902">
        <ele>111.65026855469</ele>
        <time>2019-04-13T13:38:05Z</time>
      </trkpt>
      <trkpt lat="44.16317" lon="4.69906">
        <ele>112.61157226562</ele>
        <time>2019-04-13T13:38:24Z</time>
      </trkpt>
      <trkpt lat="44.16315" lon="4.69913">
        <ele>114.05358886719</ele>
        <time>2019-04-13T13:38:39Z</time>
      </trkpt>
      <trkpt lat="44.16313" lon="4.69919">
        <ele>116.45678710938</ele>
        <time>2019-04-13T13:38:53Z</time>
      </trkpt>
      <trkpt lat="44.1631" lon="4.69932">
        <ele>119.3408203125</ele>
        <time>2019-04-13T13:39:11Z</time>
      </trkpt>
      <trkpt lat="44.16309" lon="4.69948">
        <ele>121.26354980469</ele>
        <time>2019-04-13T13:39:26Z</time>
      </trkpt>
      <trkpt lat="44.16306" lon="4.69959">
        <ele>122.22473144531</ele>
        <time>2019-04-13T13:39:37Z</time>
      </trkpt>
      <trkpt lat="44.16313" lon="4.69966">
        <ele>122.70544433594</ele>
        <time>2019-04-13T13:50:42Z</time>
      </trkpt>
      <trkpt lat="44.16309" lon="4.69971">
        <ele>123.18615722656</ele>
        <time>2019-04-13T13:50:58Z</time>
      </trkpt>
      <trkpt lat="44.16305" lon="4.69997">
        <ele>122.22473144531</ele>
        <time>2019-04-13T13:51:09Z</time>
      </trkpt>
      <trkpt lat="44.16302" lon="4.70026">
        <ele>117.89880371094</ele>
        <time>2019-04-13T13:51:16Z</time>
      </trkpt>
      <trkpt lat="44.163" lon="4.70032">
        <ele>113.57299804688</ele>
        <time>2019-04-13T13:51:17Z</time>
      </trkpt>
      <trkpt lat="44.16297" lon="4.7004">
        <ele>113.09228515625</ele>
        <time>2019-04-13T13:51:18Z</time>
      </trkpt>
      <trkpt lat="44.16293" lon="4.70069">
        <ele>117.41821289062</ele>
        <time>2019-04-13T13:51:22Z</time>
      </trkpt>
      <trkpt lat="44.16292" lon="4.70073">
        <ele>118.37939453125</ele>
        <time>2019-04-13T13:51:24Z</time>
      </trkpt>
      <trkpt lat="44.16291" lon="4.70081">
        <ele>120.30212402344</ele>
        <time>2019-04-13T13:51:28Z</time>
      </trkpt>
      <trkpt lat="44.16292" lon="4.70103">
        <ele>124.62805175781</ele>
        <time>2019-04-13T13:51:40Z</time>
      </trkpt>
      <trkpt lat="44.16291" lon="4.70105">
        <ele>124.62805175781</ele>
        <time>2019-04-13T13:51:41Z</time>
      </trkpt>
      <trkpt lat="44.16291" lon="4.70124">
        <ele>123.66674804688</ele>
        <time>2019-04-13T13:51:53Z</time>
      </trkpt>
      <trkpt lat="44.16292" lon="4.70141">
        <ele>122.22473144531</ele>
        <time>2019-04-13T13:52:19Z</time>
      </trkpt>
      <trkpt lat="44.16294" lon="4.70159">
        <ele>115.97619628906</ele>
        <time>2019-04-13T13:52:24Z</time>
      </trkpt>
      <trkpt lat="44.16295" lon="4.70166">
        <ele>115.01489257812</ele>
        <time>2019-04-13T13:52:25Z</time>
      </trkpt>
      <trkpt lat="44.16298" lon="4.70199">
        <ele>112.13098144531</ele>
        <time>2019-04-13T13:52:29Z</time>
      </trkpt>
      <trkpt lat="44.16301" lon="4.70234">
        <ele>109.24694824219</ele>
        <time>2019-04-13T13:52:33Z</time>
      </trkpt>
      <trkpt lat="44.16298" lon="4.70264">
        <ele>109.24694824219</ele>
        <time>2019-04-13T13:52:40Z</time>
      </trkpt>
      <trkpt lat="44.16292" lon="4.70273">
        <ele>109.24694824219</ele>
        <time>2019-04-13T13:53:09Z</time>
      </trkpt>
      <trkpt lat="44.16294" lon="4.703">
        <ele>107.80505371094</ele>
        <time>2019-04-13T13:53:19Z</time>
      </trkpt>
      <trkpt lat="44.16294" lon="4.70306">
        <ele>107.32434082031</ele>
        <time>2019-04-13T13:53:20Z</time>
      </trkpt>
      <trkpt lat="44.16296" lon="4.70345">
        <ele>105.88244628906</ele>
        <time>2019-04-13T13:53:27Z</time>
      </trkpt>
      <trkpt lat="44.16297" lon="4.70374">
        <ele>104.4404296875</ele>
        <time>2019-04-13T13:53:31Z</time>
      </trkpt>
      <trkpt lat="44.16301" lon="4.70407">
        <ele>102.037109375</ele>
        <time>2019-04-13T13:53:37Z</time>
      </trkpt>
      <trkpt lat="44.16302" lon="4.7041">
        <ele>101.07568359375</ele>
        <time>2019-04-13T13:53:38Z</time>
      </trkpt>
      <trkpt lat="44.16311" lon="4.70421">
        <ele>97.23046875</ele>
        <time>2019-04-13T13:53:42Z</time>
      </trkpt>
      <trkpt lat="44.16312" lon="4.70425">
        <ele>96.749877929688</ele>
        <time>2019-04-13T13:53:43Z</time>
      </trkpt>
      <trkpt lat="44.16315" lon="4.70442">
        <ele>94.346557617188</ele>
        <time>2019-04-13T13:53:49Z</time>
      </trkpt>
      <trkpt lat="44.1632" lon="4.70453">
        <ele>90.98193359375</ele>
        <time>2019-04-13T13:53:53Z</time>
      </trkpt>
      <trkpt lat="44.16328" lon="4.70478">
        <ele>86.656005859375</ele>
        <time>2019-04-13T13:53:58Z</time>
      </trkpt>
      <trkpt lat="44.16338" lon="4.70497">
        <ele>83.291381835938</ele>
        <time>2019-04-13T13:54:02Z</time>
      </trkpt>
      <trkpt lat="44.1634" lon="4.70501">
        <ele>83.291381835938</ele>
        <time>2019-04-13T13:54:03Z</time>
      </trkpt>
      <trkpt lat="44.16344" lon="4.70513">
        <ele>81.368774414062</ele>
        <time>2019-04-13T13:54:06Z</time>
      </trkpt>
      <trkpt lat="44.16345" lon="4.7052">
        <ele>79.926635742188</ele>
        <time>2019-04-13T13:54:08Z</time>
      </trkpt>
      <trkpt lat="44.16345" lon="4.70523">
        <ele>78.965454101562</ele>
        <time>2019-04-13T13:54:09Z</time>
      </trkpt>
      <trkpt lat="44.16345" lon="4.70542">
        <ele>74.639526367188</ele>
        <time>2019-04-13T13:54:13Z</time>
      </trkpt>
      <trkpt lat="44.16347" lon="4.70546">
        <ele>74.639526367188</ele>
        <time>2019-04-13T13:54:14Z</time>
      </trkpt>
      <trkpt lat="44.16348" lon="4.7055">
        <ele>74.158813476562</ele>
        <time>2019-04-13T13:54:15Z</time>
      </trkpt>
      <trkpt lat="44.16352" lon="4.7057">
        <ele>69.352294921875</ele>
        <time>2019-04-13T13:54:20Z</time>
      </trkpt>
      <trkpt lat="44.16353" lon="4.70573">
        <ele>68.87158203125</ele>
        <time>2019-04-13T13:54:21Z</time>
      </trkpt>
      <trkpt lat="44.16356" lon="4.70587">
        <ele>68.87158203125</ele>
        <time>2019-04-13T13:54:34Z</time>
      </trkpt>
      <trkpt lat="44.16358" lon="4.70593">
        <ele>68.390869140625</ele>
        <time>2019-04-13T13:54:58Z</time>
      </trkpt>
      <trkpt lat="44.16364" lon="4.70616">
        <ele>66.948974609375</ele>
        <time>2019-04-13T13:55:07Z</time>
      </trkpt>
      <trkpt lat="44.16376" lon="4.70626">
        <ele>67.910278320312</ele>
        <time>2019-04-13T13:55:12Z</time>
      </trkpt>
      <trkpt lat="44.16403" lon="4.70656">
        <ele>66.46826171875</ele>
        <time>2019-04-13T13:55:24Z</time>
      </trkpt>
      <trkpt lat="44.16434" lon="4.70681">
        <ele>63.584350585938</ele>
        <time>2019-04-13T13:55:36Z</time>
      </trkpt>
      <trkpt lat="44.16438" lon="4.70681">
        <ele>64.545654296875</ele>
        <time>2019-04-13T13:55:38Z</time>
      </trkpt>
      <trkpt lat="44.1644" lon="4.7067">
        <ele>65.507080078125</ele>
        <time>2019-04-13T13:55:47Z</time>
      </trkpt>
      <trkpt lat="44.1644" lon="4.7066">
        <ele>67.910278320312</ele>
        <time>2019-04-13T13:55:53Z</time>
      </trkpt>
      <trkpt lat="44.16447" lon="4.70645">
        <ele>70.3134765625</ele>
        <time>2019-04-13T13:56:04Z</time>
      </trkpt>
      <trkpt lat="44.16454" lon="4.70647">
        <ele>71.27490234375</ele>
        <time>2019-04-13T13:56:08Z</time>
      </trkpt>
      <trkpt lat="44.16459" lon="4.70653">
        <ele>70.794189453125</ele>
        <time>2019-04-13T13:56:23Z</time>
      </trkpt>
      <trkpt lat="44.1646" lon="4.70654">
        <ele>70.3134765625</ele>
        <time>2019-04-13T13:56:27Z</time>
      </trkpt>
      <trkpt lat="44.16463" lon="4.70666">
        <ele>66.46826171875</ele>
        <time>2019-04-13T13:56:33Z</time>
      </trkpt>
      <trkpt lat="44.16475" lon="4.70664">
        <ele>65.987670898438</ele>
        <time>2019-04-13T13:56:38Z</time>
      </trkpt>
      <trkpt lat="44.16479" lon="4.70662">
        <ele>65.987670898438</ele>
        <time>2019-04-13T13:56:40Z</time>
      </trkpt>
      <trkpt lat="44.16489" lon="4.70661">
        <ele>65.507080078125</ele>
        <time>2019-04-13T13:56:45Z</time>
      </trkpt>
      <trkpt lat="44.16497" lon="4.70664">
        <ele>64.545654296875</ele>
        <time>2019-04-13T13:56:59Z</time>
      </trkpt>
      <trkpt lat="44.16495" lon="4.70665">
        <ele>64.065063476562</ele>
        <time>2019-04-13T13:57:03Z</time>
      </trkpt>
      <trkpt lat="44.16499" lon="4.7068">
        <ele>61.661743164062</ele>
        <time>2019-04-13T13:57:08Z</time>
      </trkpt>
      <trkpt lat="44.16494" lon="4.70718">
        <ele>62.142333984375</ele>
        <time>2019-04-13T13:57:21Z</time>
      </trkpt>
      <trkpt lat="44.16489" lon="4.70765">
        <ele>62.622924804688</ele>
        <time>2019-04-13T13:57:38Z</time>
      </trkpt>
      <trkpt lat="44.16483" lon="4.7082">
        <ele>62.142333984375</ele>
        <time>2019-04-13T13:57:53Z</time>
      </trkpt>
      <trkpt lat="44.16474" lon="4.70886">
        <ele>61.181030273438</ele>
        <time>2019-04-13T13:58:11Z</time>
      </trkpt>
      <trkpt lat="44.16467" lon="4.70934">
        <ele>57.816528320312</ele>
        <time>2019-04-13T13:58:19Z</time>
      </trkpt>
      <trkpt lat="44.16466" lon="4.70942">
        <ele>57.816528320312</ele>
        <time>2019-04-13T13:58:20Z</time>
      </trkpt>
      <trkpt lat="44.1646" lon="4.70976">
        <ele>56.37451171875</ele>
        <time>2019-04-13T13:58:24Z</time>
      </trkpt>
      <trkpt lat="44.16451" lon="4.71009">
        <ele>55.893798828125</ele>
        <time>2019-04-13T13:58:31Z</time>
      </trkpt>
      <trkpt lat="44.16444" lon="4.71006">
        <ele>55.893798828125</ele>
        <time>2019-04-13T13:58:38Z</time>
      </trkpt>
      <trkpt lat="44.16428" lon="4.71011">
        <ele>55.4130859375</ele>
        <time>2019-04-13T13:58:50Z</time>
      </trkpt>
      <trkpt lat="44.16423" lon="4.71012">
        <ele>54.932373046875</ele>
        <time>2019-04-13T13:58:53Z</time>
      </trkpt>
      <trkpt lat="44.16418" lon="4.7101">
        <ele>55.893798828125</ele>
        <time>2019-04-13T13:58:56Z</time>
      </trkpt>
      <trkpt lat="44.16415" lon="4.71004">
        <ele>57.335815429688</ele>
        <time>2019-04-13T13:59:00Z</time>
      </trkpt>
      <trkpt lat="44.16408" lon="4.70999">
        <ele>57.816528320312</ele>
        <time>2019-04-13T13:59:05Z</time>
      </trkpt>
      <trkpt lat="44.16402" lon="4.70981">
        <ele>58.297119140625</ele>
        <time>2019-04-13T13:59:15Z</time>
      </trkpt>
      <trkpt lat="44.16388" lon="4.70964">
        <ele>59.739135742188</ele>
        <time>2019-04-13T13:59:28Z</time>
      </trkpt>
      <trkpt lat="44.16383" lon="4.70948">
        <ele>60.2197265625</ele>
        <time>2019-04-13T13:59:37Z</time>
      </trkpt>
      <trkpt lat="44.16375" lon="4.7094">
        <ele>61.661743164062</ele>
        <time>2019-04-13T13:59:44Z</time>
      </trkpt>
      <trkpt lat="44.16368" lon="4.70931">
        <ele>61.661743164062</ele>
        <time>2019-04-13T13:59:50Z</time>
      </trkpt>
      <trkpt lat="44.16354" lon="4.7092">
        <ele>63.584350585938</ele>
        <time>2019-04-13T14:00:04Z</time>
      </trkpt>
      <trkpt lat="44.16349" lon="4.70916">
        <ele>62.622924804688</ele>
        <time>2019-04-13T14:00:07Z</time>
      </trkpt>
      <trkpt lat="44.16344" lon="4.70907">
        <ele>63.103637695312</ele>
        <time>2019-04-13T14:00:13Z</time>
      </trkpt>
      <trkpt lat="44.16341" lon="4.70904">
        <ele>63.584350585938</ele>
        <time>2019-04-13T14:00:16Z</time>
      </trkpt>
      <trkpt lat="44.16335" lon="4.70904">
        <ele>65.0263671875</ele>
        <time>2019-04-13T14:00:22Z</time>
      </trkpt>
      <trkpt lat="44.16332" lon="4.70912">
        <ele>64.545654296875</ele>
        <time>2019-04-13T14:00:25Z</time>
      </trkpt>
      <trkpt lat="44.16328" lon="4.70924">
        <ele>65.507080078125</ele>
        <time>2019-04-13T14:00:30Z</time>
      </trkpt>
      <trkpt lat="44.16313" lon="4.7094">
        <ele>65.0263671875</ele>
        <time>2019-04-13T14:00:39Z</time>
      </trkpt>
      <trkpt lat="44.16311" lon="4.70951">
        <ele>65.0263671875</ele>
        <time>2019-04-13T14:00:43Z</time>
      </trkpt>
      <trkpt lat="44.16307" lon="4.7096">
        <ele>65.987670898438</ele>
        <time>2019-04-13T14:00:49Z</time>
      </trkpt>
      <trkpt lat="44.16308" lon="4.70967">
        <ele>66.46826171875</ele>
        <time>2019-04-13T14:00:55Z</time>
      </trkpt>
      <trkpt lat="44.16284" lon="4.70983">
        <ele>68.87158203125</ele>
        <time>2019-04-13T14:01:10Z</time>
      </trkpt>
      <trkpt lat="44.1628" lon="4.70989">
        <ele>70.794189453125</ele>
        <time>2019-04-13T14:01:14Z</time>
      </trkpt>
      <trkpt lat="44.16277" lon="4.70994">
        <ele>71.755493164062</ele>
        <time>2019-04-13T14:01:17Z</time>
      </trkpt>
      <trkpt lat="44.16268" lon="4.71012">
        <ele>72.236206054688</ele>
        <time>2019-04-13T14:01:28Z</time>
      </trkpt>
      <trkpt lat="44.16251" lon="4.7101">
        <ele>72.236206054688</ele>
        <time>2019-04-13T14:01:42Z</time>
      </trkpt>
      <trkpt lat="44.16249" lon="4.71007">
        <ele>72.236206054688</ele>
        <time>2019-04-13T14:02:09Z</time>
      </trkpt>
      <trkpt lat="44.16239" lon="4.70975">
        <ele>71.755493164062</ele>
        <time>2019-04-13T14:02:25Z</time>
      </trkpt>
      <trkpt lat="44.16235" lon="4.70924">
        <ele>73.197631835938</ele>
        <time>2019-04-13T14:02:44Z</time>
      </trkpt>
      <trkpt lat="44.16228" lon="4.70871">
        <ele>72.716918945312</ele>
        <time>2019-04-13T14:03:00Z</time>
      </trkpt>
      <trkpt lat="44.16227" lon="4.70839">
        <ele>74.639526367188</ele>
        <time>2019-04-13T14:03:12Z</time>
      </trkpt>
      <trkpt lat="44.1623" lon="4.70825">
        <ele>75.120239257812</ele>
        <time>2019-04-13T14:03:18Z</time>
      </trkpt>
      <trkpt lat="44.16232" lon="4.70809">
        <ele>78.004028320312</ele>
        <time>2019-04-13T14:03:26Z</time>
      </trkpt>
      <trkpt lat="44.16232" lon="4.70806">
        <ele>78.484741210938</ele>
        <time>2019-04-13T14:03:28Z</time>
      </trkpt>
      <trkpt lat="44.1623" lon="4.70783">
        <ele>81.368774414062</ele>
        <time>2019-04-13T14:03:42Z</time>
      </trkpt>
      <trkpt lat="44.16229" lon="4.70773">
        <ele>80.88818359375</ele>
        <time>2019-04-13T14:03:46Z</time>
      </trkpt>
      <trkpt lat="44.16222" lon="4.70755">
        <ele>84.252685546875</ele>
        <time>2019-04-13T14:03:56Z</time>
      </trkpt>
      <trkpt lat="44.1622" lon="4.70736">
        <ele>85.694580078125</ele>
        <time>2019-04-13T14:04:08Z</time>
      </trkpt>
      <trkpt lat="44.16222" lon="4.70718">
        <ele>88.578735351562</ele>
        <time>2019-04-13T14:04:19Z</time>
      </trkpt>
      <trkpt lat="44.16221" lon="4.70714">
        <ele>89.059326171875</ele>
        <time>2019-04-13T14:04:22Z</time>
      </trkpt>
      <trkpt lat="44.1622" lon="4.70707">
        <ele>89.059326171875</ele>
        <time>2019-04-13T14:04:26Z</time>
      </trkpt>
      <trkpt lat="44.1622" lon="4.70698">
        <ele>90.501342773438</ele>
        <time>2019-04-13T14:04:32Z</time>
      </trkpt>
      <trkpt lat="44.1622" lon="4.7069">
        <ele>90.98193359375</ele>
        <time>2019-04-13T14:04:36Z</time>
      </trkpt>
      <trkpt lat="44.16221" lon="4.70684">
        <ele>91.943237304688</ele>
        <time>2019-04-13T14:04:39Z</time>
      </trkpt>
      <trkpt lat="44.16218" lon="4.7068">
        <ele>92.904541015625</ele>
        <time>2019-04-13T14:04:42Z</time>
      </trkpt>
      <trkpt lat="44.16216" lon="4.70667">
        <ele>93.865844726562</ele>
        <time>2019-04-13T14:04:50Z</time>
      </trkpt>
      <trkpt lat="44.16208" lon="4.70669">
        <ele>93.385131835938</ele>
        <time>2019-04-13T14:05:02Z</time>
      </trkpt>
      <trkpt lat="44.16207" lon="4.70672">
        <ele>93.385131835938</ele>
        <time>2019-04-13T14:05:32Z</time>
      </trkpt>
      <trkpt lat="44.16207" lon="4.7068">
        <ele>94.346557617188</ele>
        <time>2019-04-13T14:05:50Z</time>
      </trkpt>
      <trkpt lat="44.16199" lon="4.70696">
        <ele>94.8271484375</ele>
        <time>2019-04-13T14:06:05Z</time>
      </trkpt>
      <trkpt lat="44.16182" lon="4.70716">
        <ele>93.385131835938</ele>
        <time>2019-04-13T14:06:17Z</time>
      </trkpt>
      <trkpt lat="44.1616" lon="4.70747">
        <ele>93.865844726562</ele>
        <time>2019-04-13T14:06:30Z</time>
      </trkpt>
      <trkpt lat="44.16128" lon="4.70763">
        <ele>94.346557617188</ele>
        <time>2019-04-13T14:06:45Z</time>
      </trkpt>
      <trkpt lat="44.16093" lon="4.70783">
        <ele>94.346557617188</ele>
        <time>2019-04-13T14:07:00Z</time>
      </trkpt>
      <trkpt lat="44.16062" lon="4.70823">
        <ele>94.8271484375</ele>
        <time>2019-04-13T14:07:14Z</time>
      </trkpt>
      <trkpt lat="44.16046" lon="4.7084">
        <ele>97.711181640625</ele>
        <time>2019-04-13T14:07:24Z</time>
      </trkpt>
      <trkpt lat="44.16023" lon="4.70837">
        <ele>97.711181640625</ele>
        <time>2019-04-13T14:07:37Z</time>
      </trkpt>
      <trkpt lat="44.15988" lon="4.70836">
        <ele>97.711181640625</ele>
        <time>2019-04-13T14:07:53Z</time>
      </trkpt>
      <trkpt lat="44.15946" lon="4.70858">
        <ele>98.672485351562</ele>
        <time>2019-04-13T14:08:09Z</time>
      </trkpt>
      <trkpt lat="44.15914" lon="4.70875">
        <ele>99.153076171875</ele>
        <time>2019-04-13T14:08:21Z</time>
      </trkpt>
      <trkpt lat="44.15887" lon="4.70859">
        <ele>96.749877929688</ele>
        <time>2019-04-13T14:08:29Z</time>
      </trkpt>
      <trkpt lat="44.15873" lon="4.7087">
        <ele>96.269287109375</ele>
        <time>2019-04-13T14:08:33Z</time>
      </trkpt>
      <trkpt lat="44.15828" lon="4.70927">
        <ele>95.788452148438</ele>
        <time>2019-04-13T14:08:50Z</time>
      </trkpt>
      <trkpt lat="44.15788" lon="4.7092">
        <ele>96.749877929688</ele>
        <time>2019-04-13T14:09:04Z</time>
      </trkpt>
      <trkpt lat="44.15737" lon="4.70887">
        <ele>95.307739257812</ele>
        <time>2019-04-13T14:09:22Z</time>
      </trkpt>
      <trkpt lat="44.15692" lon="4.70852">
        <ele>94.8271484375</ele>
        <time>2019-04-13T14:09:38Z</time>
      </trkpt>
      <trkpt lat="44.15644" lon="4.70818">
        <ele>96.749877929688</ele>
        <time>2019-04-13T14:09:56Z</time>
      </trkpt>
      <trkpt lat="44.15619" lon="4.70804">
        <ele>95.307739257812</ele>
        <time>2019-04-13T14:10:08Z</time>
      </trkpt>
      <trkpt lat="44.15583" lon="4.70841">
        <ele>94.8271484375</ele>
        <time>2019-04-13T14:10:21Z</time>
      </trkpt>
      <trkpt lat="44.15536" lon="4.70871">
        <ele>96.269287109375</ele>
        <time>2019-04-13T14:10:38Z</time>
      </trkpt>
      <trkpt lat="44.1548" lon="4.7089">
        <ele>95.307739257812</ele>
        <time>2019-04-13T14:10:56Z</time>
      </trkpt>
      <trkpt lat="44.1542" lon="4.70894">
        <ele>93.865844726562</ele>
        <time>2019-04-13T14:11:13Z</time>
      </trkpt>
      <trkpt lat="44.15366" lon="4.70883">
        <ele>92.904541015625</ele>
        <time>2019-04-13T14:11:27Z</time>
      </trkpt>
      <trkpt lat="44.15346" lon="4.70879">
        <ele>94.8271484375</ele>
        <time>2019-04-13T14:11:33Z</time>
      </trkpt>
      <trkpt lat="44.15312" lon="4.70867">
        <ele>97.711181640625</ele>
        <time>2019-04-13T14:11:50Z</time>
      </trkpt>
      <trkpt lat="44.15274" lon="4.70855">
        <ele>98.672485351562</ele>
        <time>2019-04-13T14:12:09Z</time>
      </trkpt>
      <trkpt lat="44.1524" lon="4.7084">
        <ele>99.153076171875</ele>
        <time>2019-04-13T14:12:27Z</time>
      </trkpt>
      <trkpt lat="44.15236" lon="4.70838">
        <ele>99.6337890625</ele>
        <time>2019-04-13T14:12:29Z</time>
      </trkpt>
      <trkpt lat="44.1521" lon="4.70807">
        <ele>101.55639648438</ele>
        <time>2019-04-13T14:12:48Z</time>
      </trkpt>
      <trkpt lat="44.15197" lon="4.70792">
        <ele>104.92102050781</ele>
        <time>2019-04-13T14:12:59Z</time>
      </trkpt>
      <trkpt lat="44.1519" lon="4.70788">
        <ele>104.92102050781</ele>
        <time>2019-04-13T14:13:05Z</time>
      </trkpt>
      <trkpt lat="44.1516" lon="4.7077">
        <ele>106.36303710938</ele>
        <time>2019-04-13T14:13:25Z</time>
      </trkpt>
      <trkpt lat="44.15149" lon="4.70761">
        <ele>107.80505371094</ele>
        <time>2019-04-13T14:13:33Z</time>
      </trkpt>
      <trkpt lat="44.15125" lon="4.70751">
        <ele>110.20825195312</ele>
        <time>2019-04-13T14:13:52Z</time>
      </trkpt>
      <trkpt lat="44.15109" lon="4.70741">
        <ele>110.20825195312</ele>
        <time>2019-04-13T14:14:04Z</time>
      </trkpt>
      <trkpt lat="44.15103" lon="4.70737">
        <ele>110.20825195312</ele>
        <time>2019-04-13T14:14:08Z</time>
      </trkpt>
      <trkpt lat="44.15093" lon="4.70728">
        <ele>109.24694824219</ele>
        <time>2019-04-13T14:14:14Z</time>
      </trkpt>
      <trkpt lat="44.15095" lon="4.70719">
        <ele>110.68884277344</ele>
        <time>2019-04-13T14:14:19Z</time>
      </trkpt>
      <trkpt lat="44.151" lon="4.70714">
        <ele>111.16955566406</ele>
        <time>2019-04-13T14:14:24Z</time>
      </trkpt>
      <trkpt lat="44.15114" lon="4.70719">
        <ele>112.13098144531</ele>
        <time>2019-04-13T14:14:35Z</time>
      </trkpt>
      <trkpt lat="44.15127" lon="4.70715">
        <ele>113.09228515625</ele>
        <time>2019-04-13T14:14:45Z</time>
      </trkpt>
      <trkpt lat="44.1514" lon="4.70691">
        <ele>116.45678710938</ele>
        <time>2019-04-13T14:15:00Z</time>
      </trkpt>
      <trkpt lat="44.15141" lon="4.70688">
        <ele>117.41821289062</ele>
        <time>2019-04-13T14:15:02Z</time>
      </trkpt>
      <trkpt lat="44.15162" lon="4.70656">
        <ele>118.86010742188</ele>
        <time>2019-04-13T14:15:21Z</time>
      </trkpt>
      <trkpt lat="44.15182" lon="4.7066">
        <ele>122.22473144531</ele>
        <time>2019-04-13T14:15:36Z</time>
      </trkpt>
      <trkpt lat="44.15184" lon="4.70663">
        <ele>122.22473144531</ele>
        <time>2019-04-13T14:15:38Z</time>
      </trkpt>
      <trkpt lat="44.15194" lon="4.70662">
        <ele>124.14733886719</ele>
        <time>2019-04-13T14:15:47Z</time>
      </trkpt>
      <trkpt lat="44.15203" lon="4.70659">
        <ele>124.14733886719</ele>
        <time>2019-04-13T14:15:59Z</time>
      </trkpt>
      <trkpt lat="44.15205" lon="4.70652">
        <ele>125.58935546875</ele>
        <time>2019-04-13T14:16:05Z</time>
      </trkpt>
      <trkpt lat="44.15207" lon="4.70646">
        <ele>125.10876464844</ele>
        <time>2019-04-13T14:16:18Z</time>
      </trkpt>
      <trkpt lat="44.1521" lon="4.70641">
        <ele>126.55065917969</ele>
        <time>2019-04-13T14:18:36Z</time>
      </trkpt>
      <trkpt lat="44.1521" lon="4.7064">
        <ele>126.55065917969</ele>
        <time>2019-04-13T14:18:38Z</time>
      </trkpt>
      <trkpt lat="44.1521" lon="4.70637">
        <ele>126.06994628906</ele>
        <time>2019-04-13T14:18:40Z</time>
      </trkpt>
      <trkpt lat="44.15215" lon="4.70625">
        <ele>127.03137207031</ele>
        <time>2019-04-13T14:18:48Z</time>
      </trkpt>
      <trkpt lat="44.15214" lon="4.70615">
        <ele>127.03137207031</ele>
        <time>2019-04-13T14:18:52Z</time>
      </trkpt>
      <trkpt lat="44.15226" lon="4.70597">
        <ele>128.9541015625</ele>
        <time>2019-04-13T14:19:02Z</time>
      </trkpt>
      <trkpt lat="44.15227" lon="4.70587">
        <ele>128.47338867188</ele>
        <time>2019-04-13T14:19:07Z</time>
      </trkpt>
      <trkpt lat="44.15227" lon="4.7058">
        <ele>127.99255371094</ele>
        <time>2019-04-13T14:19:09Z</time>
      </trkpt>
      <trkpt lat="44.1523" lon="4.70569">
        <ele>128.9541015625</ele>
        <time>2019-04-13T14:19:14Z</time>
      </trkpt>
      <trkpt lat="44.15236" lon="4.70543">
        <ele>128.9541015625</ele>
        <time>2019-04-13T14:19:25Z</time>
      </trkpt>
      <trkpt lat="44.15238" lon="4.70539">
        <ele>129.91528320312</ele>
        <time>2019-04-13T14:19:27Z</time>
      </trkpt>
      <trkpt lat="44.1524" lon="4.7053">
        <ele>128.47338867188</ele>
        <time>2019-04-13T14:19:31Z</time>
      </trkpt>
      <trkpt lat="44.15241" lon="4.70527">
        <ele>128.9541015625</ele>
        <time>2019-04-13T14:19:32Z</time>
      </trkpt>
      <trkpt lat="44.15246" lon="4.70487">
        <ele>127.51196289062</ele>
        <time>2019-04-13T14:19:44Z</time>
      </trkpt>
      <trkpt lat="44.15254" lon="4.70458">
        <ele>129.43469238281</ele>
        <time>2019-04-13T14:19:54Z</time>
      </trkpt>
      <trkpt lat="44.15254" lon="4.70444">
        <ele>126.55065917969</ele>
        <time>2019-04-13T14:19:59Z</time>
      </trkpt>
      <trkpt lat="44.15265" lon="4.70423">
        <ele>127.03137207031</ele>
        <time>2019-04-13T14:20:06Z</time>
      </trkpt>
      <trkpt lat="44.15272" lon="4.70415">
        <ele>128.47338867188</ele>
        <time>2019-04-13T14:20:11Z</time>
      </trkpt>
      <trkpt lat="44.15279" lon="4.7041">
        <ele>130.39599609375</ele>
        <time>2019-04-13T14:20:16Z</time>
      </trkpt>
      <trkpt lat="44.15292" lon="4.70398">
        <ele>133.76049804688</ele>
        <time>2019-04-13T14:20:27Z</time>
      </trkpt>
      <trkpt lat="44.15293" lon="4.70396">
        <ele>133.27990722656</ele>
        <time>2019-04-13T14:20:28Z</time>
      </trkpt>
      <trkpt lat="44.15298" lon="4.70384">
        <ele>134.2412109375</ele>
        <time>2019-04-13T14:20:35Z</time>
      </trkpt>
      <trkpt lat="44.15307" lon="4.70369">
        <ele>135.20251464844</ele>
        <time>2019-04-13T14:20:44Z</time>
      </trkpt>
      <trkpt lat="44.15313" lon="4.70358">
        <ele>134.72192382812</ele>
        <time>2019-04-13T14:20:50Z</time>
      </trkpt>
      <trkpt lat="44.15327" lon="4.70338">
        <ele>136.16394042969</ele>
        <time>2019-04-13T14:21:01Z</time>
      </trkpt>
      <trkpt lat="44.15337" lon="4.70333">
        <ele>138.56726074219</ele>
        <time>2019-04-13T14:21:13Z</time>
      </trkpt>
      <trkpt lat="44.15343" lon="4.70331">
        <ele>140.00915527344</ele>
        <time>2019-04-13T14:21:26Z</time>
      </trkpt>
      <trkpt lat="44.15355" lon="4.70325">
        <ele>141.93176269531</ele>
        <time>2019-04-13T14:21:42Z</time>
      </trkpt>
      <trkpt lat="44.15364" lon="4.7032">
        <ele>144.81579589844</ele>
        <time>2019-04-13T14:21:56Z</time>
      </trkpt>
      <trkpt lat="44.15374" lon="4.70316">
        <ele>147.69970703125</ele>
        <time>2019-04-13T14:22:08Z</time>
      </trkpt>
      <trkpt lat="44.15381" lon="4.70311">
        <ele>147.69970703125</ele>
        <time>2019-04-13T14:22:21Z</time>
      </trkpt>
      <trkpt lat="44.15401" lon="4.70299">
        <ele>147.21899414062</ele>
        <time>2019-04-13T14:22:36Z</time>
      </trkpt>
      <trkpt lat="44.15423" lon="4.70289">
        <ele>148.66101074219</ele>
        <time>2019-04-13T14:22:51Z</time>
      </trkpt>
      <trkpt lat="44.15439" lon="4.70284">
        <ele>150.10302734375</ele>
        <time>2019-04-13T14:23:04Z</time>
      </trkpt>
      <trkpt lat="44.15453" lon="4.70283">
        <ele>153.94836425781</ele>
        <time>2019-04-13T14:23:15Z</time>
      </trkpt>
      <trkpt lat="44.15459" lon="4.70282">
        <ele>155.39025878906</ele>
        <time>2019-04-13T14:23:19Z</time>
      </trkpt>
      <trkpt lat="44.15466" lon="4.70278">
        <ele>155.87097167969</ele>
        <time>2019-04-13T14:23:25Z</time>
      </trkpt>
      <trkpt lat="44.15469" lon="4.70273">
        <ele>156.3515625</ele>
        <time>2019-04-13T14:23:29Z</time>
      </trkpt>
      <trkpt lat="44.15475" lon="4.70254">
        <ele>159.23547363281</ele>
        <time>2019-04-13T14:23:39Z</time>
      </trkpt>
      <trkpt lat="44.15475" lon="4.70253">
        <ele>159.71618652344</ele>
        <time>2019-04-13T14:23:40Z</time>
      </trkpt>
      <trkpt lat="44.15474" lon="4.70243">
        <ele>159.23547363281</ele>
        <time>2019-04-13T14:23:58Z</time>
      </trkpt>
      <trkpt lat="44.15476" lon="4.70241">
        <ele>158.27416992188</ele>
        <time>2019-04-13T14:24:17Z</time>
      </trkpt>
      <trkpt lat="44.1548" lon="4.70239">
        <ele>159.23547363281</ele>
        <time>2019-04-13T14:24:39Z</time>
      </trkpt>
      <trkpt lat="44.15481" lon="4.70239">
        <ele>159.71618652344</ele>
        <time>2019-04-13T14:25:02Z</time>
      </trkpt>
      <trkpt lat="44.15481" lon="4.70239">
        <ele>159.71618652344</ele>
        <time>2019-04-13T14:25:08Z</time>
      </trkpt>
      <trkpt lat="44.1547" lon="4.70233">
        <ele>155.39025878906</ele>
        <time>2019-04-13T14:25:13Z</time>
      </trkpt>
      <trkpt lat="44.15467" lon="4.70227">
        <ele>154.42895507812</ele>
        <time>2019-04-13T14:25:15Z</time>
      </trkpt>
      <trkpt lat="44.15459" lon="4.70213">
        <ele>150.58361816406</ele>
        <time>2019-04-13T14:25:19Z</time>
      </trkpt>
      <trkpt lat="44.15454" lon="4.70207">
        <ele>149.1416015625</ele>
        <time>2019-04-13T14:25:21Z</time>
      </trkpt>
      <trkpt lat="44.15448" lon="4.70192">
        <ele>145.29638671875</ele>
        <time>2019-04-13T14:25:25Z</time>
      </trkpt>
      <trkpt lat="44.15439" lon="4.70187">
        <ele>141.93176269531</ele>
        <time>2019-04-13T14:25:28Z</time>
      </trkpt>
      <trkpt lat="44.15432" lon="4.70178">
        <ele>140.00915527344</ele>
        <time>2019-04-13T14:25:30Z</time>
      </trkpt>
      <trkpt lat="44.15426" lon="4.70172">
        <ele>137.60583496094</ele>
        <time>2019-04-13T14:25:32Z</time>
      </trkpt>
      <trkpt lat="44.15413" lon="4.70156">
        <ele>135.20251464844</ele>
        <time>2019-04-13T14:25:36Z</time>
      </trkpt>
      <trkpt lat="44.15398" lon="4.70135">
        <ele>129.43469238281</ele>
        <time>2019-04-13T14:25:40Z</time>
      </trkpt>
      <trkpt lat="44.15386" lon="4.70103">
        <ele>125.10876464844</ele>
        <time>2019-04-13T14:25:44Z</time>
      </trkpt>
      <trkpt lat="44.15384" lon="4.70095">
        <ele>124.62805175781</ele>
        <time>2019-04-13T14:25:45Z</time>
      </trkpt>
      <trkpt lat="44.15381" lon="4.70079">
        <ele>122.70544433594</ele>
        <time>2019-04-13T14:25:47Z</time>
      </trkpt>
      <trkpt lat="44.15373" lon="4.70015">
        <ele>117.41821289062</ele>
        <time>2019-04-13T14:25:53Z</time>
      </trkpt>
      <trkpt lat="44.15369" lon="4.69989">
        <ele>111.16955566406</ele>
        <time>2019-04-13T14:25:55Z</time>
      </trkpt>
      <trkpt lat="44.15364" lon="4.6996">
        <ele>109.24694824219</ele>
        <time>2019-04-13T14:25:57Z</time>
      </trkpt>
      <trkpt lat="44.15357" lon="4.69918">
        <ele>109.72766113281</ele>
        <time>2019-04-13T14:26:03Z</time>
      </trkpt>
      <trkpt lat="44.15357" lon="4.69919">
        <ele>109.72766113281</ele>
        <time>2019-04-13T14:26:24Z</time>
      </trkpt>
      <trkpt lat="44.15347" lon="4.699">
        <ele>106.36303710938</ele>
        <time>2019-04-13T14:26:34Z</time>
      </trkpt>
      <trkpt lat="44.15345" lon="4.69896">
        <ele>105.40173339844</ele>
        <time>2019-04-13T14:26:35Z</time>
      </trkpt>
      <trkpt lat="44.15334" lon="4.69868">
        <ele>102.99829101562</ele>
        <time>2019-04-13T14:26:39Z</time>
      </trkpt>
      <trkpt lat="44.15331" lon="4.69836">
        <ele>102.51770019531</ele>
        <time>2019-04-13T14:26:43Z</time>
      </trkpt>
      <trkpt lat="44.15333" lon="4.69783">
        <ele>99.153076171875</ele>
        <time>2019-04-13T14:26:49Z</time>
      </trkpt>
      <trkpt lat="44.15333" lon="4.69766">
        <ele>98.19189453125</ele>
        <time>2019-04-13T14:26:51Z</time>
      </trkpt>
      <trkpt lat="44.15333" lon="4.69701">
        <ele>93.865844726562</ele>
        <time>2019-04-13T14:26:59Z</time>
      </trkpt>
      <trkpt lat="44.15331" lon="4.69693">
        <ele>94.346557617188</ele>
        <time>2019-04-13T14:27:00Z</time>
      </trkpt>
      <trkpt lat="44.15328" lon="4.69674">
        <ele>92.904541015625</ele>
        <time>2019-04-13T14:27:03Z</time>
      </trkpt>
      <trkpt lat="44.15328" lon="4.69659">
        <ele>90.98193359375</ele>
        <time>2019-04-13T14:27:06Z</time>
      </trkpt>
      <trkpt lat="44.1532" lon="4.69641">
        <ele>88.098022460938</ele>
        <time>2019-04-13T14:27:09Z</time>
      </trkpt>
      <trkpt lat="44.15308" lon="4.69606">
        <ele>84.7333984375</ele>
        <time>2019-04-13T14:27:16Z</time>
      </trkpt>
      <trkpt lat="44.15305" lon="4.69581">
        <ele>83.77197265625</ele>
        <time>2019-04-13T14:27:23Z</time>
      </trkpt>
      <trkpt lat="44.15309" lon="4.69579">
        <ele>83.77197265625</ele>
        <time>2019-04-13T14:27:39Z</time>
      </trkpt>
      <trkpt lat="44.15304" lon="4.69568">
        <ele>83.291381835938</ele>
        <time>2019-04-13T14:28:07Z</time>
      </trkpt>
      <trkpt lat="44.15304" lon="4.69566">
        <ele>84.252685546875</ele>
        <time>2019-04-13T14:28:28Z</time>
      </trkpt>
      <trkpt lat="44.1531" lon="4.69542">
        <ele>80.88818359375</ele>
        <time>2019-04-13T14:28:37Z</time>
      </trkpt>
      <trkpt lat="44.15311" lon="4.69537">
        <ele>80.88818359375</ele>
        <time>2019-04-13T14:28:38Z</time>
      </trkpt>
      <trkpt lat="44.15321" lon="4.6952">
        <ele>83.77197265625</ele>
        <time>2019-04-13T14:28:44Z</time>
      </trkpt>
      <trkpt lat="44.15328" lon="4.69508">
        <ele>79.926635742188</ele>
        <time>2019-04-13T14:28:48Z</time>
      </trkpt>
      <trkpt lat="44.1535" lon="4.69488">
        <ele>80.407470703125</ele>
        <time>2019-04-13T14:28:57Z</time>
      </trkpt>
      <trkpt lat="44.15368" lon="4.69478">
        <ele>82.810791015625</ele>
        <time>2019-04-13T14:29:05Z</time>
      </trkpt>
      <trkpt lat="44.15379" lon="4.69472">
        <ele>83.77197265625</ele>
        <time>2019-04-13T14:29:12Z</time>
      </trkpt>
      <trkpt lat="44.15387" lon="4.69462">
        <ele>83.77197265625</ele>
        <time>2019-04-13T14:29:19Z</time>
      </trkpt>
      <trkpt lat="44.1539" lon="4.69461">
        <ele>84.7333984375</ele>
        <time>2019-04-13T14:29:21Z</time>
      </trkpt>
      <trkpt lat="44.15404" lon="4.69435">
        <ele>84.252685546875</ele>
        <time>2019-04-13T14:29:34Z</time>
      </trkpt>
      <trkpt lat="44.15408" lon="4.69413">
        <ele>79.926635742188</ele>
        <time>2019-04-13T14:29:38Z</time>
      </trkpt>
      <trkpt lat="44.15421" lon="4.69389">
        <ele>81.368774414062</ele>
        <time>2019-04-13T14:29:46Z</time>
      </trkpt>
      <trkpt lat="44.15431" lon="4.69365">
        <ele>79.446044921875</ele>
        <time>2019-04-13T14:29:53Z</time>
      </trkpt>
      <trkpt lat="44.15436" lon="4.6936">
        <ele>77.5234375</ele>
        <time>2019-04-13T14:29:55Z</time>
      </trkpt>
      <trkpt lat="44.1544" lon="4.69358">
        <ele>77.042846679688</ele>
        <time>2019-04-13T14:29:57Z</time>
      </trkpt>
      <trkpt lat="44.1546" lon="4.69335">
        <ele>78.004028320312</ele>
        <time>2019-04-13T14:30:07Z</time>
      </trkpt>
      <trkpt lat="44.15462" lon="4.69333">
        <ele>77.5234375</ele>
        <time>2019-04-13T14:30:20Z</time>
      </trkpt>
      <trkpt lat="44.15474" lon="4.69323">
        <ele>77.5234375</ele>
        <time>2019-04-13T14:30:34Z</time>
      </trkpt>
      <trkpt lat="44.1548" lon="4.693">
        <ele>74.158813476562</ele>
        <time>2019-04-13T14:30:39Z</time>
      </trkpt>
      <trkpt lat="44.15485" lon="4.69286">
        <ele>77.5234375</ele>
        <time>2019-04-13T14:30:43Z</time>
      </trkpt>
      <trkpt lat="44.15486" lon="4.6928">
        <ele>77.042846679688</ele>
        <time>2019-04-13T14:30:45Z</time>
      </trkpt>
      <trkpt lat="44.1549" lon="4.69276">
        <ele>77.5234375</ele>
        <time>2019-04-13T14:30:48Z</time>
      </trkpt>
      <trkpt lat="44.15491" lon="4.69265">
        <ele>77.5234375</ele>
        <time>2019-04-13T14:31:03Z</time>
      </trkpt>
      <trkpt lat="44.15495" lon="4.69236">
        <ele>77.5234375</ele>
        <time>2019-04-13T14:31:16Z</time>
      </trkpt>
      <trkpt lat="44.15496" lon="4.69229">
        <ele>78.484741210938</ele>
        <time>2019-04-13T14:31:18Z</time>
      </trkpt>
      <trkpt lat="44.15506" lon="4.69202">
        <ele>79.926635742188</ele>
        <time>2019-04-13T14:31:30Z</time>
      </trkpt>
      <trkpt lat="44.15505" lon="4.69192">
        <ele>79.926635742188</ele>
        <time>2019-04-13T14:31:34Z</time>
      </trkpt>
      <trkpt lat="44.15508" lon="4.69185">
        <ele>80.407470703125</ele>
        <time>2019-04-13T14:31:37Z</time>
      </trkpt>
      <trkpt lat="44.1551" lon="4.69164">
        <ele>80.407470703125</ele>
        <time>2019-04-13T14:31:45Z</time>
      </trkpt>
      <trkpt lat="44.1551" lon="4.69157">
        <ele>80.88818359375</ele>
        <time>2019-04-13T14:31:48Z</time>
      </trkpt>
      <trkpt lat="44.15515" lon="4.69134">
        <ele>81.368774414062</ele>
        <time>2019-04-13T14:31:56Z</time>
      </trkpt>
      <trkpt lat="44.15517" lon="4.69092">
        <ele>80.88818359375</ele>
        <time>2019-04-13T14:32:07Z</time>
      </trkpt>
      <trkpt lat="44.15515" lon="4.69048">
        <ele>80.407470703125</ele>
        <time>2019-04-13T14:32:18Z</time>
      </trkpt>
      <trkpt lat="44.15515" lon="4.69039">
        <ele>80.88818359375</ele>
        <time>2019-04-13T14:32:20Z</time>
      </trkpt>
      <trkpt lat="44.15509" lon="4.69013">
        <ele>77.5234375</ele>
        <time>2019-04-13T14:32:25Z</time>
      </trkpt>
      <trkpt lat="44.15504" lon="4.6898">
        <ele>76.081420898438</ele>
        <time>2019-04-13T14:32:34Z</time>
      </trkpt>
      <trkpt lat="44.15499" lon="4.68967">
        <ele>73.67822265625</ele>
        <time>2019-04-13T14:32:42Z</time>
      </trkpt>
      <trkpt lat="44.15494" lon="4.68957">
        <ele>71.755493164062</ele>
        <time>2019-04-13T14:32:45Z</time>
      </trkpt>
      <trkpt lat="44.15493" lon="4.68953">
        <ele>72.236206054688</ele>
        <time>2019-04-13T14:32:46Z</time>
      </trkpt>
      <trkpt lat="44.15487" lon="4.68937">
        <ele>71.27490234375</ele>
        <time>2019-04-13T14:32:50Z</time>
      </trkpt>
      <trkpt lat="44.15481" lon="4.68927">
        <ele>70.3134765625</ele>
        <time>2019-04-13T14:32:52Z</time>
      </trkpt>
      <trkpt lat="44.15475" lon="4.689">
        <ele>65.507080078125</ele>
        <time>2019-04-13T14:32:56Z</time>
      </trkpt>
      <trkpt lat="44.15475" lon="4.68892">
        <ele>64.545654296875</ele>
        <time>2019-04-13T14:32:57Z</time>
      </trkpt>
      <trkpt lat="44.15474" lon="4.68872">
        <ele>66.46826171875</ele>
        <time>2019-04-13T14:33:00Z</time>
      </trkpt>
      <trkpt lat="44.15474" lon="4.68868">
        <ele>67.4296875</ele>
        <time>2019-04-13T14:33:02Z</time>
      </trkpt>
      <trkpt lat="44.1547" lon="4.68851">
        <ele>65.987670898438</ele>
        <time>2019-04-13T14:33:07Z</time>
      </trkpt>
      <trkpt lat="44.15478" lon="4.68809">
        <ele>66.948974609375</ele>
        <time>2019-04-13T14:33:16Z</time>
      </trkpt>
      <trkpt lat="44.15478" lon="4.68805">
        <ele>66.948974609375</ele>
        <time>2019-04-13T14:33:17Z</time>
      </trkpt>
      <trkpt lat="44.15479" lon="4.68766">
        <ele>65.987670898438</ele>
        <time>2019-04-13T14:33:26Z</time>
      </trkpt>
      <trkpt lat="44.15486" lon="4.68739">
        <ele>68.390869140625</ele>
        <time>2019-04-13T14:33:35Z</time>
      </trkpt>
      <trkpt lat="44.15493" lon="4.68727">
        <ele>69.352294921875</ele>
        <time>2019-04-13T14:33:40Z</time>
      </trkpt>
      <trkpt lat="44.15495" lon="4.68712">
        <ele>68.87158203125</ele>
        <time>2019-04-13T14:33:46Z</time>
      </trkpt>
      <trkpt lat="44.15497" lon="4.68705">
        <ele>68.87158203125</ele>
        <time>2019-04-13T14:33:50Z</time>
      </trkpt>
      <trkpt lat="44.15493" lon="4.68685">
        <ele>69.352294921875</ele>
        <time>2019-04-13T14:33:57Z</time>
      </trkpt>
      <trkpt lat="44.15495" lon="4.68666">
        <ele>69.832885742188</ele>
        <time>2019-04-13T14:34:03Z</time>
      </trkpt>
      <trkpt lat="44.15496" lon="4.68656">
        <ele>71.27490234375</ele>
        <time>2019-04-13T14:34:08Z</time>
      </trkpt>
      <trkpt lat="44.15495" lon="4.68636">
        <ele>71.755493164062</ele>
        <time>2019-04-13T14:34:24Z</time>
      </trkpt>
      <trkpt lat="44.15496" lon="4.68632">
        <ele>71.755493164062</ele>
        <time>2019-04-13T14:35:08Z</time>
      </trkpt>
      <trkpt lat="44.15497" lon="4.68626">
        <ele>71.755493164062</ele>
        <time>2019-04-13T14:35:17Z</time>
      </trkpt>
      <trkpt lat="44.15495" lon="4.68614">
        <ele>72.236206054688</ele>
        <time>2019-04-13T14:35:22Z</time>
      </trkpt>
      <trkpt lat="44.15491" lon="4.68577">
        <ele>74.639526367188</ele>
        <time>2019-04-13T14:35:34Z</time>
      </trkpt>
      <trkpt lat="44.15498" lon="4.68546">
        <ele>75.600830078125</ele>
        <time>2019-04-13T14:35:49Z</time>
      </trkpt>
      <trkpt lat="44.15495" lon="4.6851">
        <ele>77.5234375</ele>
        <time>2019-04-13T14:36:03Z</time>
      </trkpt>
      <trkpt lat="44.15491" lon="4.68489">
        <ele>77.042846679688</ele>
        <time>2019-04-13T14:36:11Z</time>
      </trkpt>
      <trkpt lat="44.15481" lon="4.68485">
        <ele>76.081420898438</ele>
        <time>2019-04-13T14:36:15Z</time>
      </trkpt>
      <trkpt lat="44.15478" lon="4.68484">
        <ele>75.120239257812</ele>
        <time>2019-04-13T14:36:16Z</time>
      </trkpt>
      <trkpt lat="44.15463" lon="4.6849">
        <ele>70.794189453125</ele>
        <time>2019-04-13T14:36:23Z</time>
      </trkpt>
      <trkpt lat="44.15458" lon="4.68491">
        <ele>69.352294921875</ele>
        <time>2019-04-13T14:36:25Z</time>
      </trkpt>
      <trkpt lat="44.15454" lon="4.68485">
        <ele>68.390869140625</ele>
        <time>2019-04-13T14:36:27Z</time>
      </trkpt>
      <trkpt lat="44.1545" lon="4.68476">
        <ele>66.948974609375</ele>
        <time>2019-04-13T14:36:29Z</time>
      </trkpt>
      <trkpt lat="44.15447" lon="4.68471">
        <ele>66.948974609375</ele>
        <time>2019-04-13T14:36:30Z</time>
      </trkpt>
      <trkpt lat="44.15434" lon="4.68454">
        <ele>64.545654296875</ele>
        <time>2019-04-13T14:36:34Z</time>
      </trkpt>
      <trkpt lat="44.15413" lon="4.68452">
        <ele>61.181030273438</ele>
        <time>2019-04-13T14:36:39Z</time>
      </trkpt>
      <trkpt lat="44.15408" lon="4.68449">
        <ele>60.2197265625</ele>
        <time>2019-04-13T14:36:41Z</time>
      </trkpt>
      <trkpt lat="44.15396" lon="4.68454">
        <ele>56.37451171875</ele>
        <time>2019-04-13T14:36:46Z</time>
      </trkpt>
      <trkpt lat="44.15394" lon="4.68456">
        <ele>56.855102539062</ele>
        <time>2019-04-13T14:36:47Z</time>
      </trkpt>
      <trkpt lat="44.15386" lon="4.68464">
        <ele>53.009765625</ele>
        <time>2019-04-13T14:36:50Z</time>
      </trkpt>
      <trkpt lat="44.15383" lon="4.68466">
        <ele>53.009765625</ele>
        <time>2019-04-13T14:36:51Z</time>
      </trkpt>
      <trkpt lat="44.15372" lon="4.68469">
        <ele>49.645263671875</ele>
        <time>2019-04-13T14:36:54Z</time>
      </trkpt>
      <trkpt lat="44.15366" lon="4.68469">
        <ele>49.16455078125</ele>
        <time>2019-04-13T14:36:55Z</time>
      </trkpt>
      <trkpt lat="44.15351" lon="4.6847">
        <ele>48.203369140625</ele>
        <time>2019-04-13T14:36:59Z</time>
      </trkpt>
      <trkpt lat="44.15346" lon="4.68476">
        <ele>46.76123046875</ele>
        <time>2019-04-13T14:37:01Z</time>
      </trkpt>
      <trkpt lat="44.15345" lon="4.68488">
        <ele>46.280639648438</ele>
        <time>2019-04-13T14:37:04Z</time>
      </trkpt>
      <trkpt lat="44.15339" lon="4.68549">
        <ele>46.280639648438</ele>
        <time>2019-04-13T14:37:19Z</time>
      </trkpt>
      <trkpt lat="44.15337" lon="4.6855">
        <ele>45.799926757812</ele>
        <time>2019-04-13T14:37:41Z</time>
      </trkpt>
      <trkpt lat="44.15336" lon="4.68575">
        <ele>46.76123046875</ele>
        <time>2019-04-13T14:37:54Z</time>
      </trkpt>
      <trkpt lat="44.15333" lon="4.68616">
        <ele>46.76123046875</ele>
        <time>2019-04-13T14:38:09Z</time>
      </trkpt>
      <trkpt lat="44.1533" lon="4.6863">
        <ele>46.280639648438</ele>
        <time>2019-04-13T14:38:14Z</time>
      </trkpt>
      <trkpt lat="44.15308" lon="4.68622">
        <ele>46.280639648438</ele>
        <time>2019-04-13T14:38:25Z</time>
      </trkpt>
      <trkpt lat="44.15282" lon="4.68615">
        <ele>45.799926757812</ele>
        <time>2019-04-13T14:38:36Z</time>
      </trkpt>
      <trkpt lat="44.15233" lon="4.68597">
        <ele>43.877319335938</ele>
        <time>2019-04-13T14:38:50Z</time>
      </trkpt>
      <trkpt lat="44.15183" lon="4.68583">
        <ele>40.512817382812</ele>
        <time>2019-04-13T14:39:01Z</time>
      </trkpt>
      <trkpt lat="44.15174" lon="4.68579">
        <ele>39.55126953125</ele>
        <time>2019-04-13T14:39:03Z</time>
      </trkpt>
      <trkpt lat="44.15148" lon="4.68564">
        <ele>38.109375</ele>
        <time>2019-04-13T14:39:11Z</time>
      </trkpt>
      <trkpt lat="44.15123" lon="4.68547">
        <ele>38.590087890625</ele>
        <time>2019-04-13T14:39:23Z</time>
      </trkpt>
      <trkpt lat="44.15074" lon="4.68508">
        <ele>36.186767578125</ele>
        <time>2019-04-13T14:39:40Z</time>
      </trkpt>
      <trkpt lat="44.15032" lon="4.68461">
        <ele>35.7060546875</ele>
        <time>2019-04-13T14:39:55Z</time>
      </trkpt>
      <trkpt lat="44.14984" lon="4.68421">
        <ele>35.225463867188</ele>
        <time>2019-04-13T14:40:10Z</time>
      </trkpt>
      <trkpt lat="44.1495" lon="4.68427">
        <ele>34.744873046875</ele>
        <time>2019-04-13T14:40:20Z</time>
      </trkpt>
      <trkpt lat="44.1491" lon="4.6842">
        <ele>34.26416015625</ele>
        <time>2019-04-13T14:40:31Z</time>
      </trkpt>
      <trkpt lat="44.14872" lon="4.68404">
        <ele>34.26416015625</ele>
        <time>2019-04-13T14:40:43Z</time>
      </trkpt>
      <trkpt lat="44.14855" lon="4.68366">
        <ele>34.26416015625</ele>
        <time>2019-04-13T14:40:54Z</time>
      </trkpt>
      <trkpt lat="44.14853" lon="4.68291">
        <ele>33.783447265625</ele>
        <time>2019-04-13T14:41:10Z</time>
      </trkpt>
      <trkpt lat="44.14837" lon="4.68263">
        <ele>33.783447265625</ele>
        <time>2019-04-13T14:41:18Z</time>
      </trkpt>
      <trkpt lat="44.14788" lon="4.68246">
        <ele>33.302856445312</ele>
        <time>2019-04-13T14:41:32Z</time>
      </trkpt>
      <trkpt lat="44.14776" lon="4.68212">
        <ele>33.302856445312</ele>
        <time>2019-04-13T14:41:40Z</time>
      </trkpt>
      <trkpt lat="44.14778" lon="4.68149">
        <ele>33.302856445312</ele>
        <time>2019-04-13T14:41:52Z</time>
      </trkpt>
      <trkpt lat="44.14786" lon="4.6804">
        <ele>33.783447265625</ele>
        <time>2019-04-13T14:42:13Z</time>
      </trkpt>
      <trkpt lat="44.14802" lon="4.67961">
        <ele>34.744873046875</ele>
        <time>2019-04-13T14:42:29Z</time>
      </trkpt>
      <trkpt lat="44.14813" lon="4.67921">
        <ele>36.186767578125</ele>
        <time>2019-04-13T14:42:39Z</time>
      </trkpt>
      <trkpt lat="44.1481" lon="4.67909">
        <ele>36.66748046875</ele>
        <time>2019-04-13T14:42:46Z</time>
      </trkpt>
      <trkpt lat="44.14773" lon="4.67897">
        <ele>38.109375</ele>
        <time>2019-04-13T14:43:02Z</time>
      </trkpt>
      <trkpt lat="44.14744" lon="4.67885">
        <ele>38.590087890625</ele>
        <time>2019-04-13T14:43:13Z</time>
      </trkpt>
      <trkpt lat="44.14669" lon="4.67856">
        <ele>38.590087890625</ele>
        <time>2019-04-13T14:43:33Z</time>
      </trkpt>
      <trkpt lat="44.1464" lon="4.67851">
        <ele>39.070678710938</ele>
        <time>2019-04-13T14:43:41Z</time>
      </trkpt>
      <trkpt lat="44.14623" lon="4.67857">
        <ele>37.628662109375</ele>
        <time>2019-04-13T14:43:45Z</time>
      </trkpt>
      <trkpt lat="44.14604" lon="4.67859">
        <ele>36.186767578125</ele>
        <time>2019-04-13T14:43:49Z</time>
      </trkpt>
      <trkpt lat="44.14583" lon="4.67841">
        <ele>36.66748046875</ele>
        <time>2019-04-13T14:43:55Z</time>
      </trkpt>
      <trkpt lat="44.14552" lon="4.67755">
        <ele>36.66748046875</ele>
        <time>2019-04-13T14:44:11Z</time>
      </trkpt>
      <trkpt lat="44.14546" lon="4.67731">
        <ele>37.628662109375</ele>
        <time>2019-04-13T14:44:16Z</time>
      </trkpt>
      <trkpt lat="44.14553" lon="4.67716">
        <ele>37.148071289062</ele>
        <time>2019-04-13T14:44:21Z</time>
      </trkpt>
      <trkpt lat="44.14574" lon="4.67676">
        <ele>37.148071289062</ele>
        <time>2019-04-13T14:44:35Z</time>
      </trkpt>
      <trkpt lat="44.14576" lon="4.67664">
        <ele>38.590087890625</ele>
        <time>2019-04-13T14:58:17Z</time>
      </trkpt>
    </trkseg>
  </trk>
</gpx>